<?xml version="1.0" encoding="UTF-8" standalone="no" ?>
<gpx xmlns="http://www.topografix.com/GPX/1/1" xmlns:xsi="http://www.w3.org/2001/XMLSchema-instance" xsi:schemaLocation="http://www.topografix.com/GPX/1/1 http://www.topografix.com/GPX/1/1/gpx.xsd" version="1.1" creator="VisuGPX - https://www.visugpx.com">
  <metadata>
    <name>Autour de Maincourt</name>
    <desc><![CDATA[départ du parking du sentier de découverte de Maincourt (78), montée et tours dans la forêt, descente sur le sentier, détour par les lavoirs, on continue et on monte devant le château de Dampierre-en-Yvelines. On plrend à gauche derrière la maison de fer, et on reprend à gauche dans la forêt et on retrouve le GR qui nous ramène à Maincourt et on termine par le sentier de découverte et par le dédale des passerelles au-dessus des marais, le long de l'Yvette.]]></desc>
  </metadata>
  <trk>
    <name><![CDATA[track_1489308332990]]></name>
    <trkseg>
      <trkpt lat="48.71983" lon="1.95921">
        <ele>118</ele>
        <time>2017-03-12T09:45:32+01:00</time>
      </trkpt>
      <trkpt lat="48.71983" lon="1.95921">
        <ele>118</ele>
        <time>2017-03-12T09:45:36+01:00</time>
      </trkpt>
      <trkpt lat="48.71981" lon="1.95919">
        <ele>117</ele>
        <time>2017-03-12T09:45:44+01:00</time>
      </trkpt>
      <trkpt lat="48.7198" lon="1.95917">
        <ele>117</ele>
        <time>2017-03-12T09:45:48+01:00</time>
      </trkpt>
      <trkpt lat="48.71979" lon="1.95917">
        <ele>118</ele>
        <time>2017-03-12T09:45:52+01:00</time>
      </trkpt>
      <trkpt lat="48.71981" lon="1.95913">
        <ele>121</ele>
        <time>2017-03-12T09:47:08+01:00</time>
      </trkpt>
      <trkpt lat="48.71981" lon="1.95913">
        <ele>121</ele>
        <time>2017-03-12T09:47:12+01:00</time>
      </trkpt>
      <trkpt lat="48.71981" lon="1.95913">
        <ele>121</ele>
        <time>2017-03-12T09:47:16+01:00</time>
      </trkpt>
      <trkpt lat="48.71983" lon="1.95915">
        <ele>125</ele>
        <time>2017-03-12T09:47:56+01:00</time>
      </trkpt>
      <trkpt lat="48.71984" lon="1.95916">
        <ele>126</ele>
        <time>2017-03-12T09:48:00+01:00</time>
      </trkpt>
      <trkpt lat="48.71984" lon="1.95916">
        <ele>126</ele>
        <time>2017-03-12T09:48:04+01:00</time>
      </trkpt>
      <trkpt lat="48.71986" lon="1.95919">
        <ele>113</ele>
        <time>2017-03-12T09:49:16+01:00</time>
      </trkpt>
      <trkpt lat="48.71988" lon="1.95927">
        <ele>109</ele>
        <time>2017-03-12T09:49:20+01:00</time>
      </trkpt>
      <trkpt lat="48.71988" lon="1.95928">
        <ele>109</ele>
        <time>2017-03-12T09:49:24+01:00</time>
      </trkpt>
      <trkpt lat="48.7199" lon="1.95939">
        <ele>106</ele>
        <time>2017-03-12T09:50:32+01:00</time>
      </trkpt>
      <trkpt lat="48.71993" lon="1.9595">
        <ele>106</ele>
        <time>2017-03-12T09:50:36+01:00</time>
      </trkpt>
      <trkpt lat="48.71999" lon="1.95955">
        <ele>106</ele>
        <time>2017-03-12T09:50:40+01:00</time>
      </trkpt>
      <trkpt lat="48.71999" lon="1.95968">
        <ele>108</ele>
        <time>2017-03-12T09:50:48+01:00</time>
      </trkpt>
      <trkpt lat="48.71995" lon="1.95983">
        <ele>106</ele>
        <time>2017-03-12T09:50:52+01:00</time>
      </trkpt>
      <trkpt lat="48.71994" lon="1.95995">
        <ele>107</ele>
        <time>2017-03-12T09:50:56+01:00</time>
      </trkpt>
      <trkpt lat="48.7199" lon="1.96008">
        <ele>111</ele>
        <time>2017-03-12T09:51:00+01:00</time>
      </trkpt>
      <trkpt lat="48.71985" lon="1.96019">
        <ele>112</ele>
        <time>2017-03-12T09:51:04+01:00</time>
      </trkpt>
      <trkpt lat="48.71985" lon="1.96023">
        <ele>112</ele>
        <time>2017-03-12T09:51:12+01:00</time>
      </trkpt>
      <trkpt lat="48.71985" lon="1.96024">
        <ele>112</ele>
        <time>2017-03-12T09:51:16+01:00</time>
      </trkpt>
      <trkpt lat="48.71985" lon="1.96025">
        <ele>112</ele>
        <time>2017-03-12T09:51:21+01:00</time>
      </trkpt>
      <trkpt lat="48.71986" lon="1.96038">
        <ele>119</ele>
        <time>2017-03-12T09:51:28+01:00</time>
      </trkpt>
      <trkpt lat="48.71987" lon="1.96049">
        <ele>121</ele>
        <time>2017-03-12T09:51:33+01:00</time>
      </trkpt>
      <trkpt lat="48.71986" lon="1.96058">
        <ele>118</ele>
        <time>2017-03-12T09:51:37+01:00</time>
      </trkpt>
      <trkpt lat="48.71983" lon="1.96066">
        <ele>115</ele>
        <time>2017-03-12T09:51:41+01:00</time>
      </trkpt>
      <trkpt lat="48.71981" lon="1.96073">
        <ele>118</ele>
        <time>2017-03-12T09:51:44+01:00</time>
      </trkpt>
      <trkpt lat="48.71983" lon="1.9608">
        <ele>121</ele>
        <time>2017-03-12T09:51:49+01:00</time>
      </trkpt>
      <trkpt lat="48.71986" lon="1.96083">
        <ele>124</ele>
        <time>2017-03-12T09:51:53+01:00</time>
      </trkpt>
      <trkpt lat="48.71987" lon="1.96082">
        <ele>124</ele>
        <time>2017-03-12T09:51:56+01:00</time>
      </trkpt>
      <trkpt lat="48.71995" lon="1.96085">
        <ele>122</ele>
        <time>2017-03-12T09:52:12+01:00</time>
      </trkpt>
      <trkpt lat="48.71996" lon="1.96092">
        <ele>118</ele>
        <time>2017-03-12T09:52:16+01:00</time>
      </trkpt>
      <trkpt lat="48.71996" lon="1.96097">
        <ele>115</ele>
        <time>2017-03-12T09:52:20+01:00</time>
      </trkpt>
      <trkpt lat="48.72005" lon="1.96095">
        <ele>118</ele>
        <time>2017-03-12T09:52:52+01:00</time>
      </trkpt>
      <trkpt lat="48.7201" lon="1.96098">
        <ele>119</ele>
        <time>2017-03-12T09:52:57+01:00</time>
      </trkpt>
      <trkpt lat="48.7202" lon="1.96093">
        <ele>124</ele>
        <time>2017-03-12T09:53:00+01:00</time>
      </trkpt>
      <trkpt lat="48.72031" lon="1.96087">
        <ele>122</ele>
        <time>2017-03-12T09:53:04+01:00</time>
      </trkpt>
      <trkpt lat="48.72038" lon="1.96084">
        <ele>124</ele>
        <time>2017-03-12T09:53:08+01:00</time>
      </trkpt>
      <trkpt lat="48.72043" lon="1.96088">
        <ele>126</ele>
        <time>2017-03-12T09:53:12+01:00</time>
      </trkpt>
      <trkpt lat="48.72049" lon="1.96094">
        <ele>129</ele>
        <time>2017-03-12T09:53:16+01:00</time>
      </trkpt>
      <trkpt lat="48.72051" lon="1.96096">
        <ele>130</ele>
        <time>2017-03-12T09:53:20+01:00</time>
      </trkpt>
      <trkpt lat="48.72058" lon="1.961">
        <ele>136</ele>
        <time>2017-03-12T09:54:04+01:00</time>
      </trkpt>
      <trkpt lat="48.72059" lon="1.96106">
        <ele>135</ele>
        <time>2017-03-12T09:54:08+01:00</time>
      </trkpt>
      <trkpt lat="48.7206" lon="1.96109">
        <ele>136</ele>
        <time>2017-03-12T09:54:13+01:00</time>
      </trkpt>
      <trkpt lat="48.72067" lon="1.96113">
        <ele>143</ele>
        <time>2017-03-12T09:54:36+01:00</time>
      </trkpt>
      <trkpt lat="48.72069" lon="1.96116">
        <ele>143</ele>
        <time>2017-03-12T09:54:41+01:00</time>
      </trkpt>
      <trkpt lat="48.72071" lon="1.96118">
        <ele>146</ele>
        <time>2017-03-12T09:54:45+01:00</time>
      </trkpt>
      <trkpt lat="48.72076" lon="1.96123">
        <ele>150</ele>
        <time>2017-03-12T09:54:56+01:00</time>
      </trkpt>
      <trkpt lat="48.72079" lon="1.96125">
        <ele>151</ele>
        <time>2017-03-12T09:55:00+01:00</time>
      </trkpt>
      <trkpt lat="48.72081" lon="1.96127">
        <ele>152</ele>
        <time>2017-03-12T09:55:04+01:00</time>
      </trkpt>
      <trkpt lat="48.72085" lon="1.96135">
        <ele>154</ele>
        <time>2017-03-12T09:55:36+01:00</time>
      </trkpt>
      <trkpt lat="48.72086" lon="1.96138">
        <ele>155</ele>
        <time>2017-03-12T09:55:40+01:00</time>
      </trkpt>
      <trkpt lat="48.72086" lon="1.96144">
        <ele>157</ele>
        <time>2017-03-12T09:55:45+01:00</time>
      </trkpt>
      <trkpt lat="48.72087" lon="1.96152">
        <ele>158</ele>
        <time>2017-03-12T09:55:49+01:00</time>
      </trkpt>
      <trkpt lat="48.72087" lon="1.96158">
        <ele>156</ele>
        <time>2017-03-12T09:55:52+01:00</time>
      </trkpt>
      <trkpt lat="48.72085" lon="1.9616">
        <ele>157</ele>
        <time>2017-03-12T09:55:56+01:00</time>
      </trkpt>
      <trkpt lat="48.72088" lon="1.9617">
        <ele>151</ele>
        <time>2017-03-12T09:56:09+01:00</time>
      </trkpt>
      <trkpt lat="48.72088" lon="1.96175">
        <ele>151</ele>
        <time>2017-03-12T09:56:13+01:00</time>
      </trkpt>
      <trkpt lat="48.7209" lon="1.96178">
        <ele>151</ele>
        <time>2017-03-12T09:56:16+01:00</time>
      </trkpt>
      <trkpt lat="48.72096" lon="1.96183">
        <ele>152</ele>
        <time>2017-03-12T09:56:24+01:00</time>
      </trkpt>
      <trkpt lat="48.72099" lon="1.96186">
        <ele>154</ele>
        <time>2017-03-12T09:56:29+01:00</time>
      </trkpt>
      <trkpt lat="48.72103" lon="1.96189">
        <ele>153</ele>
        <time>2017-03-12T09:56:33+01:00</time>
      </trkpt>
      <trkpt lat="48.72107" lon="1.96191">
        <ele>154</ele>
        <time>2017-03-12T09:56:36+01:00</time>
      </trkpt>
      <trkpt lat="48.72111" lon="1.96196">
        <ele>152</ele>
        <time>2017-03-12T09:56:41+01:00</time>
      </trkpt>
      <trkpt lat="48.72114" lon="1.96202">
        <ele>152</ele>
        <time>2017-03-12T09:56:44+01:00</time>
      </trkpt>
      <trkpt lat="48.72117" lon="1.96207">
        <ele>155</ele>
        <time>2017-03-12T09:56:48+01:00</time>
      </trkpt>
      <trkpt lat="48.72121" lon="1.96211">
        <ele>154</ele>
        <time>2017-03-12T09:56:52+01:00</time>
      </trkpt>
      <trkpt lat="48.72124" lon="1.96214">
        <ele>153</ele>
        <time>2017-03-12T09:56:56+01:00</time>
      </trkpt>
      <trkpt lat="48.72127" lon="1.96221">
        <ele>148</ele>
        <time>2017-03-12T09:57:04+01:00</time>
      </trkpt>
      <trkpt lat="48.7213" lon="1.96227">
        <ele>147</ele>
        <time>2017-03-12T09:57:08+01:00</time>
      </trkpt>
      <trkpt lat="48.72132" lon="1.9623">
        <ele>148</ele>
        <time>2017-03-12T09:57:13+01:00</time>
      </trkpt>
      <trkpt lat="48.72135" lon="1.96216">
        <ele>152</ele>
        <time>2017-03-12T09:59:08+01:00</time>
      </trkpt>
      <trkpt lat="48.72138" lon="1.96212">
        <ele>154</ele>
        <time>2017-03-12T09:59:12+01:00</time>
      </trkpt>
      <trkpt lat="48.72141" lon="1.96208">
        <ele>157</ele>
        <time>2017-03-12T09:59:16+01:00</time>
      </trkpt>
      <trkpt lat="48.72144" lon="1.96204">
        <ele>159</ele>
        <time>2017-03-12T09:59:20+01:00</time>
      </trkpt>
      <trkpt lat="48.72148" lon="1.96202">
        <ele>161</ele>
        <time>2017-03-12T09:59:24+01:00</time>
      </trkpt>
      <trkpt lat="48.72151" lon="1.96201">
        <ele>162</ele>
        <time>2017-03-12T09:59:28+01:00</time>
      </trkpt>
      <trkpt lat="48.72155" lon="1.96189">
        <ele>163</ele>
        <time>2017-03-12T09:59:36+01:00</time>
      </trkpt>
      <trkpt lat="48.72159" lon="1.96187">
        <ele>163</ele>
        <time>2017-03-12T09:59:40+01:00</time>
      </trkpt>
      <trkpt lat="48.72163" lon="1.96184">
        <ele>163</ele>
        <time>2017-03-12T09:59:44+01:00</time>
      </trkpt>
      <trkpt lat="48.72168" lon="1.96183">
        <ele>164</ele>
        <time>2017-03-12T09:59:48+01:00</time>
      </trkpt>
      <trkpt lat="48.7217" lon="1.96182">
        <ele>164</ele>
        <time>2017-03-12T09:59:52+01:00</time>
      </trkpt>
      <trkpt lat="48.72171" lon="1.96182">
        <ele>164</ele>
        <time>2017-03-12T09:59:56+01:00</time>
      </trkpt>
      <trkpt lat="48.72181" lon="1.96179">
        <ele>165</ele>
        <time>2017-03-12T10:00:16+01:00</time>
      </trkpt>
      <trkpt lat="48.72187" lon="1.96178">
        <ele>168</ele>
        <time>2017-03-12T10:00:20+01:00</time>
      </trkpt>
      <trkpt lat="48.72194" lon="1.96176">
        <ele>169</ele>
        <time>2017-03-12T10:00:24+01:00</time>
      </trkpt>
      <trkpt lat="48.72198" lon="1.96174">
        <ele>171</ele>
        <time>2017-03-12T10:00:28+01:00</time>
      </trkpt>
      <trkpt lat="48.72201" lon="1.96174">
        <ele>172</ele>
        <time>2017-03-12T10:00:32+01:00</time>
      </trkpt>
      <trkpt lat="48.72203" lon="1.96174">
        <ele>171</ele>
        <time>2017-03-12T10:00:36+01:00</time>
      </trkpt>
      <trkpt lat="48.72209" lon="1.96172">
        <ele>173</ele>
        <time>2017-03-12T10:00:44+01:00</time>
      </trkpt>
      <trkpt lat="48.72215" lon="1.96172">
        <ele>175</ele>
        <time>2017-03-12T10:00:48+01:00</time>
      </trkpt>
      <trkpt lat="48.72222" lon="1.96172">
        <ele>177</ele>
        <time>2017-03-12T10:00:52+01:00</time>
      </trkpt>
      <trkpt lat="48.72229" lon="1.96177">
        <ele>171</ele>
        <time>2017-03-12T10:00:56+01:00</time>
      </trkpt>
      <trkpt lat="48.72233" lon="1.96186">
        <ele>168</ele>
        <time>2017-03-12T10:01:00+01:00</time>
      </trkpt>
      <trkpt lat="48.72235" lon="1.96194">
        <ele>170</ele>
        <time>2017-03-12T10:01:04+01:00</time>
      </trkpt>
      <trkpt lat="48.7224" lon="1.962">
        <ele>172</ele>
        <time>2017-03-12T10:01:08+01:00</time>
      </trkpt>
      <trkpt lat="48.72244" lon="1.96207">
        <ele>170</ele>
        <time>2017-03-12T10:01:16+01:00</time>
      </trkpt>
      <trkpt lat="48.72247" lon="1.96213">
        <ele>165</ele>
        <time>2017-03-12T10:01:20+01:00</time>
      </trkpt>
      <trkpt lat="48.72251" lon="1.9622">
        <ele>169</ele>
        <time>2017-03-12T10:01:24+01:00</time>
      </trkpt>
      <trkpt lat="48.72256" lon="1.96229">
        <ele>172</ele>
        <time>2017-03-12T10:01:28+01:00</time>
      </trkpt>
      <trkpt lat="48.72259" lon="1.96236">
        <ele>172</ele>
        <time>2017-03-12T10:01:32+01:00</time>
      </trkpt>
      <trkpt lat="48.72261" lon="1.96243">
        <ele>174</ele>
        <time>2017-03-12T10:01:36+01:00</time>
      </trkpt>
      <trkpt lat="48.72265" lon="1.9625">
        <ele>175</ele>
        <time>2017-03-12T10:01:40+01:00</time>
      </trkpt>
      <trkpt lat="48.7227" lon="1.96256">
        <ele>173</ele>
        <time>2017-03-12T10:01:44+01:00</time>
      </trkpt>
      <trkpt lat="48.72272" lon="1.96264">
        <ele>174</ele>
        <time>2017-03-12T10:01:48+01:00</time>
      </trkpt>
      <trkpt lat="48.72273" lon="1.96269">
        <ele>175</ele>
        <time>2017-03-12T10:01:52+01:00</time>
      </trkpt>
      <trkpt lat="48.72277" lon="1.96277">
        <ele>172</ele>
        <time>2017-03-12T10:01:56+01:00</time>
      </trkpt>
      <trkpt lat="48.72281" lon="1.96284">
        <ele>172</ele>
        <time>2017-03-12T10:02:00+01:00</time>
      </trkpt>
      <trkpt lat="48.72284" lon="1.96292">
        <ele>172</ele>
        <time>2017-03-12T10:02:04+01:00</time>
      </trkpt>
      <trkpt lat="48.72288" lon="1.96299">
        <ele>172</ele>
        <time>2017-03-12T10:02:08+01:00</time>
      </trkpt>
      <trkpt lat="48.72292" lon="1.96305">
        <ele>170</ele>
        <time>2017-03-12T10:02:13+01:00</time>
      </trkpt>
      <trkpt lat="48.72297" lon="1.96312">
        <ele>174</ele>
        <time>2017-03-12T10:02:17+01:00</time>
      </trkpt>
      <trkpt lat="48.72303" lon="1.96319">
        <ele>173</ele>
        <time>2017-03-12T10:02:20+01:00</time>
      </trkpt>
      <trkpt lat="48.72307" lon="1.96326">
        <ele>174</ele>
        <time>2017-03-12T10:02:24+01:00</time>
      </trkpt>
      <trkpt lat="48.7231" lon="1.96333">
        <ele>174</ele>
        <time>2017-03-12T10:02:28+01:00</time>
      </trkpt>
      <trkpt lat="48.72315" lon="1.9634">
        <ele>176</ele>
        <time>2017-03-12T10:02:32+01:00</time>
      </trkpt>
      <trkpt lat="48.7232" lon="1.96347">
        <ele>178</ele>
        <time>2017-03-12T10:02:36+01:00</time>
      </trkpt>
      <trkpt lat="48.72324" lon="1.96354">
        <ele>179</ele>
        <time>2017-03-12T10:02:40+01:00</time>
      </trkpt>
      <trkpt lat="48.72328" lon="1.9636">
        <ele>178</ele>
        <time>2017-03-12T10:02:44+01:00</time>
      </trkpt>
      <trkpt lat="48.7233" lon="1.96367">
        <ele>175</ele>
        <time>2017-03-12T10:02:48+01:00</time>
      </trkpt>
      <trkpt lat="48.72332" lon="1.96372">
        <ele>174</ele>
        <time>2017-03-12T10:02:52+01:00</time>
      </trkpt>
      <trkpt lat="48.72332" lon="1.96379">
        <ele>175</ele>
        <time>2017-03-12T10:02:56+01:00</time>
      </trkpt>
      <trkpt lat="48.72333" lon="1.96387">
        <ele>177</ele>
        <time>2017-03-12T10:03:00+01:00</time>
      </trkpt>
      <trkpt lat="48.72336" lon="1.96394">
        <ele>180</ele>
        <time>2017-03-12T10:03:04+01:00</time>
      </trkpt>
      <trkpt lat="48.72338" lon="1.96398">
        <ele>180</ele>
        <time>2017-03-12T10:03:08+01:00</time>
      </trkpt>
      <trkpt lat="48.72345" lon="1.96398">
        <ele>179</ele>
        <time>2017-03-12T10:03:13+01:00</time>
      </trkpt>
      <trkpt lat="48.72351" lon="1.96396">
        <ele>179</ele>
        <time>2017-03-12T10:03:16+01:00</time>
      </trkpt>
      <trkpt lat="48.72361" lon="1.96395">
        <ele>177</ele>
        <time>2017-03-12T10:03:20+01:00</time>
      </trkpt>
      <trkpt lat="48.72366" lon="1.96392">
        <ele>176</ele>
        <time>2017-03-12T10:03:24+01:00</time>
      </trkpt>
      <trkpt lat="48.7237" lon="1.96391">
        <ele>177</ele>
        <time>2017-03-12T10:03:28+01:00</time>
      </trkpt>
      <trkpt lat="48.72374" lon="1.9639">
        <ele>177</ele>
        <time>2017-03-12T10:03:32+01:00</time>
      </trkpt>
      <trkpt lat="48.72379" lon="1.96387">
        <ele>177</ele>
        <time>2017-03-12T10:03:36+01:00</time>
      </trkpt>
      <trkpt lat="48.72384" lon="1.96384">
        <ele>179</ele>
        <time>2017-03-12T10:03:40+01:00</time>
      </trkpt>
      <trkpt lat="48.72388" lon="1.96382">
        <ele>178</ele>
        <time>2017-03-12T10:03:44+01:00</time>
      </trkpt>
      <trkpt lat="48.72393" lon="1.96377">
        <ele>177</ele>
        <time>2017-03-12T10:03:48+01:00</time>
      </trkpt>
      <trkpt lat="48.72398" lon="1.96373">
        <ele>177</ele>
        <time>2017-03-12T10:03:52+01:00</time>
      </trkpt>
      <trkpt lat="48.72401" lon="1.96369">
        <ele>177</ele>
        <time>2017-03-12T10:03:56+01:00</time>
      </trkpt>
      <trkpt lat="48.72406" lon="1.96366">
        <ele>177</ele>
        <time>2017-03-12T10:04:00+01:00</time>
      </trkpt>
      <trkpt lat="48.7241" lon="1.96364">
        <ele>177</ele>
        <time>2017-03-12T10:04:04+01:00</time>
      </trkpt>
      <trkpt lat="48.72417" lon="1.96363">
        <ele>178</ele>
        <time>2017-03-12T10:04:08+01:00</time>
      </trkpt>
      <trkpt lat="48.72419" lon="1.96364">
        <ele>180</ele>
        <time>2017-03-12T10:04:13+01:00</time>
      </trkpt>
      <trkpt lat="48.72425" lon="1.96362">
        <ele>181</ele>
        <time>2017-03-12T10:04:16+01:00</time>
      </trkpt>
      <trkpt lat="48.72429" lon="1.9636">
        <ele>180</ele>
        <time>2017-03-12T10:04:20+01:00</time>
      </trkpt>
      <trkpt lat="48.72432" lon="1.96356">
        <ele>182</ele>
        <time>2017-03-12T10:04:24+01:00</time>
      </trkpt>
      <trkpt lat="48.72435" lon="1.96355">
        <ele>182</ele>
        <time>2017-03-12T10:04:28+01:00</time>
      </trkpt>
      <trkpt lat="48.72439" lon="1.96354">
        <ele>182</ele>
        <time>2017-03-12T10:04:33+01:00</time>
      </trkpt>
      <trkpt lat="48.72445" lon="1.96353">
        <ele>186</ele>
        <time>2017-03-12T10:04:36+01:00</time>
      </trkpt>
      <trkpt lat="48.72451" lon="1.96351">
        <ele>186</ele>
        <time>2017-03-12T10:04:40+01:00</time>
      </trkpt>
      <trkpt lat="48.72457" lon="1.96347">
        <ele>186</ele>
        <time>2017-03-12T10:04:44+01:00</time>
      </trkpt>
      <trkpt lat="48.72462" lon="1.96345">
        <ele>188</ele>
        <time>2017-03-12T10:04:48+01:00</time>
      </trkpt>
      <trkpt lat="48.72467" lon="1.96343">
        <ele>187</ele>
        <time>2017-03-12T10:04:52+01:00</time>
      </trkpt>
      <trkpt lat="48.72473" lon="1.96342">
        <ele>190</ele>
        <time>2017-03-12T10:04:56+01:00</time>
      </trkpt>
      <trkpt lat="48.72478" lon="1.96339">
        <ele>189</ele>
        <time>2017-03-12T10:05:00+01:00</time>
      </trkpt>
      <trkpt lat="48.72483" lon="1.96339">
        <ele>189</ele>
        <time>2017-03-12T10:05:08+01:00</time>
      </trkpt>
      <trkpt lat="48.72485" lon="1.9634">
        <ele>189</ele>
        <time>2017-03-12T10:05:12+01:00</time>
      </trkpt>
      <trkpt lat="48.7249" lon="1.96341">
        <ele>187</ele>
        <time>2017-03-12T10:05:16+01:00</time>
      </trkpt>
      <trkpt lat="48.72496" lon="1.96345">
        <ele>188</ele>
        <time>2017-03-12T10:05:20+01:00</time>
      </trkpt>
      <trkpt lat="48.72498" lon="1.96352">
        <ele>182</ele>
        <time>2017-03-12T10:05:24+01:00</time>
      </trkpt>
      <trkpt lat="48.72502" lon="1.96358">
        <ele>173</ele>
        <time>2017-03-12T10:05:28+01:00</time>
      </trkpt>
      <trkpt lat="48.72505" lon="1.96366">
        <ele>166</ele>
        <time>2017-03-12T10:05:32+01:00</time>
      </trkpt>
      <trkpt lat="48.72507" lon="1.96374">
        <ele>168</ele>
        <time>2017-03-12T10:05:36+01:00</time>
      </trkpt>
      <trkpt lat="48.72509" lon="1.96384">
        <ele>170</ele>
        <time>2017-03-12T10:05:41+01:00</time>
      </trkpt>
      <trkpt lat="48.72512" lon="1.96392">
        <ele>168</ele>
        <time>2017-03-12T10:05:44+01:00</time>
      </trkpt>
      <trkpt lat="48.72516" lon="1.96399">
        <ele>167</ele>
        <time>2017-03-12T10:05:49+01:00</time>
      </trkpt>
      <trkpt lat="48.72518" lon="1.96407">
        <ele>170</ele>
        <time>2017-03-12T10:05:52+01:00</time>
      </trkpt>
      <trkpt lat="48.72518" lon="1.96416">
        <ele>169</ele>
        <time>2017-03-12T10:05:56+01:00</time>
      </trkpt>
      <trkpt lat="48.72517" lon="1.96426">
        <ele>165</ele>
        <time>2017-03-12T10:06:00+01:00</time>
      </trkpt>
      <trkpt lat="48.7252" lon="1.96435">
        <ele>167</ele>
        <time>2017-03-12T10:06:04+01:00</time>
      </trkpt>
      <trkpt lat="48.72521" lon="1.96444">
        <ele>168</ele>
        <time>2017-03-12T10:06:08+01:00</time>
      </trkpt>
      <trkpt lat="48.7252" lon="1.96452">
        <ele>167</ele>
        <time>2017-03-12T10:06:12+01:00</time>
      </trkpt>
      <trkpt lat="48.72519" lon="1.96462">
        <ele>171</ele>
        <time>2017-03-12T10:06:16+01:00</time>
      </trkpt>
      <trkpt lat="48.72521" lon="1.9647">
        <ele>172</ele>
        <time>2017-03-12T10:06:20+01:00</time>
      </trkpt>
      <trkpt lat="48.72523" lon="1.96479">
        <ele>172</ele>
        <time>2017-03-12T10:06:24+01:00</time>
      </trkpt>
      <trkpt lat="48.72524" lon="1.96487">
        <ele>170</ele>
        <time>2017-03-12T10:06:28+01:00</time>
      </trkpt>
      <trkpt lat="48.72525" lon="1.96494">
        <ele>169</ele>
        <time>2017-03-12T10:06:32+01:00</time>
      </trkpt>
      <trkpt lat="48.72526" lon="1.96502">
        <ele>168</ele>
        <time>2017-03-12T10:06:36+01:00</time>
      </trkpt>
      <trkpt lat="48.72525" lon="1.96509">
        <ele>167</ele>
        <time>2017-03-12T10:06:40+01:00</time>
      </trkpt>
      <trkpt lat="48.72528" lon="1.96515">
        <ele>167</ele>
        <time>2017-03-12T10:06:44+01:00</time>
      </trkpt>
      <trkpt lat="48.72527" lon="1.96521">
        <ele>165</ele>
        <time>2017-03-12T10:06:48+01:00</time>
      </trkpt>
      <trkpt lat="48.72528" lon="1.96528">
        <ele>166</ele>
        <time>2017-03-12T10:06:52+01:00</time>
      </trkpt>
      <trkpt lat="48.72527" lon="1.96536">
        <ele>165</ele>
        <time>2017-03-12T10:06:56+01:00</time>
      </trkpt>
      <trkpt lat="48.72525" lon="1.96545">
        <ele>164</ele>
        <time>2017-03-12T10:07:00+01:00</time>
      </trkpt>
      <trkpt lat="48.72526" lon="1.96552">
        <ele>162</ele>
        <time>2017-03-12T10:07:04+01:00</time>
      </trkpt>
      <trkpt lat="48.72523" lon="1.96559">
        <ele>161</ele>
        <time>2017-03-12T10:07:08+01:00</time>
      </trkpt>
      <trkpt lat="48.72523" lon="1.96568">
        <ele>160</ele>
        <time>2017-03-12T10:07:12+01:00</time>
      </trkpt>
      <trkpt lat="48.72522" lon="1.96576">
        <ele>159</ele>
        <time>2017-03-12T10:07:16+01:00</time>
      </trkpt>
      <trkpt lat="48.7252" lon="1.96585">
        <ele>159</ele>
        <time>2017-03-12T10:07:20+01:00</time>
      </trkpt>
      <trkpt lat="48.72519" lon="1.96594">
        <ele>157</ele>
        <time>2017-03-12T10:07:24+01:00</time>
      </trkpt>
      <trkpt lat="48.72517" lon="1.96602">
        <ele>158</ele>
        <time>2017-03-12T10:07:28+01:00</time>
      </trkpt>
      <trkpt lat="48.72515" lon="1.96607">
        <ele>158</ele>
        <time>2017-03-12T10:07:32+01:00</time>
      </trkpt>
      <trkpt lat="48.72514" lon="1.96611">
        <ele>160</ele>
        <time>2017-03-12T10:07:36+01:00</time>
      </trkpt>
      <trkpt lat="48.72513" lon="1.96615">
        <ele>162</ele>
        <time>2017-03-12T10:07:41+01:00</time>
      </trkpt>
      <trkpt lat="48.72509" lon="1.9663">
        <ele>157</ele>
        <time>2017-03-12T10:08:00+01:00</time>
      </trkpt>
      <trkpt lat="48.72506" lon="1.96636">
        <ele>155</ele>
        <time>2017-03-12T10:08:04+01:00</time>
      </trkpt>
      <trkpt lat="48.72502" lon="1.96643">
        <ele>152</ele>
        <time>2017-03-12T10:08:08+01:00</time>
      </trkpt>
      <trkpt lat="48.72498" lon="1.96651">
        <ele>153</ele>
        <time>2017-03-12T10:08:12+01:00</time>
      </trkpt>
      <trkpt lat="48.72496" lon="1.96656">
        <ele>152</ele>
        <time>2017-03-12T10:08:16+01:00</time>
      </trkpt>
      <trkpt lat="48.72494" lon="1.96663">
        <ele>151</ele>
        <time>2017-03-12T10:08:20+01:00</time>
      </trkpt>
      <trkpt lat="48.72487" lon="1.96675">
        <ele>155</ele>
        <time>2017-03-12T10:08:28+01:00</time>
      </trkpt>
      <trkpt lat="48.72482" lon="1.96681">
        <ele>157</ele>
        <time>2017-03-12T10:08:32+01:00</time>
      </trkpt>
      <trkpt lat="48.72476" lon="1.96685">
        <ele>161</ele>
        <time>2017-03-12T10:08:37+01:00</time>
      </trkpt>
      <trkpt lat="48.72469" lon="1.9669">
        <ele>162</ele>
        <time>2017-03-12T10:08:40+01:00</time>
      </trkpt>
      <trkpt lat="48.7246" lon="1.96696">
        <ele>166</ele>
        <time>2017-03-12T10:08:44+01:00</time>
      </trkpt>
      <trkpt lat="48.72449" lon="1.96701">
        <ele>167</ele>
        <time>2017-03-12T10:08:48+01:00</time>
      </trkpt>
      <trkpt lat="48.7244" lon="1.96707">
        <ele>169</ele>
        <time>2017-03-12T10:08:52+01:00</time>
      </trkpt>
      <trkpt lat="48.72431" lon="1.96712">
        <ele>168</ele>
        <time>2017-03-12T10:08:56+01:00</time>
      </trkpt>
      <trkpt lat="48.72423" lon="1.96712">
        <ele>167</ele>
        <time>2017-03-12T10:09:00+01:00</time>
      </trkpt>
      <trkpt lat="48.72417" lon="1.96713">
        <ele>171</ele>
        <time>2017-03-12T10:09:04+01:00</time>
      </trkpt>
      <trkpt lat="48.72409" lon="1.96718">
        <ele>172</ele>
        <time>2017-03-12T10:09:08+01:00</time>
      </trkpt>
      <trkpt lat="48.72403" lon="1.96718">
        <ele>172</ele>
        <time>2017-03-12T10:09:12+01:00</time>
      </trkpt>
      <trkpt lat="48.724" lon="1.96716">
        <ele>175</ele>
        <time>2017-03-12T10:09:16+01:00</time>
      </trkpt>
      <trkpt lat="48.72392" lon="1.96716">
        <ele>175</ele>
        <time>2017-03-12T10:09:21+01:00</time>
      </trkpt>
      <trkpt lat="48.72382" lon="1.96712">
        <ele>175</ele>
        <time>2017-03-12T10:09:25+01:00</time>
      </trkpt>
      <trkpt lat="48.72374" lon="1.96715">
        <ele>175</ele>
        <time>2017-03-12T10:09:28+01:00</time>
      </trkpt>
      <trkpt lat="48.72367" lon="1.96719">
        <ele>174</ele>
        <time>2017-03-12T10:09:33+01:00</time>
      </trkpt>
      <trkpt lat="48.7236" lon="1.96724">
        <ele>174</ele>
        <time>2017-03-12T10:09:36+01:00</time>
      </trkpt>
      <trkpt lat="48.72356" lon="1.96722">
        <ele>174</ele>
        <time>2017-03-12T10:09:40+01:00</time>
      </trkpt>
      <trkpt lat="48.72351" lon="1.96723">
        <ele>174</ele>
        <time>2017-03-12T10:09:45+01:00</time>
      </trkpt>
      <trkpt lat="48.72345" lon="1.96725">
        <ele>175</ele>
        <time>2017-03-12T10:09:48+01:00</time>
      </trkpt>
      <trkpt lat="48.7234" lon="1.96724">
        <ele>174</ele>
        <time>2017-03-12T10:09:52+01:00</time>
      </trkpt>
      <trkpt lat="48.72335" lon="1.96724">
        <ele>177</ele>
        <time>2017-03-12T10:09:56+01:00</time>
      </trkpt>
      <trkpt lat="48.72329" lon="1.96726">
        <ele>178</ele>
        <time>2017-03-12T10:10:00+01:00</time>
      </trkpt>
      <trkpt lat="48.72324" lon="1.96727">
        <ele>177</ele>
        <time>2017-03-12T10:10:04+01:00</time>
      </trkpt>
      <trkpt lat="48.7232" lon="1.96727">
        <ele>175</ele>
        <time>2017-03-12T10:10:08+01:00</time>
      </trkpt>
      <trkpt lat="48.72315" lon="1.96726">
        <ele>174</ele>
        <time>2017-03-12T10:10:13+01:00</time>
      </trkpt>
      <trkpt lat="48.7231" lon="1.96726">
        <ele>175</ele>
        <time>2017-03-12T10:10:17+01:00</time>
      </trkpt>
      <trkpt lat="48.72304" lon="1.96727">
        <ele>173</ele>
        <time>2017-03-12T10:10:20+01:00</time>
      </trkpt>
      <trkpt lat="48.723" lon="1.96728">
        <ele>174</ele>
        <time>2017-03-12T10:10:24+01:00</time>
      </trkpt>
      <trkpt lat="48.72296" lon="1.96727">
        <ele>174</ele>
        <time>2017-03-12T10:10:28+01:00</time>
      </trkpt>
      <trkpt lat="48.7229" lon="1.96728">
        <ele>174</ele>
        <time>2017-03-12T10:10:52+01:00</time>
      </trkpt>
      <trkpt lat="48.72288" lon="1.96728">
        <ele>173</ele>
        <time>2017-03-12T10:10:56+01:00</time>
      </trkpt>
      <trkpt lat="48.72284" lon="1.9673">
        <ele>176</ele>
        <time>2017-03-12T10:11:00+01:00</time>
      </trkpt>
      <trkpt lat="48.7228" lon="1.9673">
        <ele>174</ele>
        <time>2017-03-12T10:11:04+01:00</time>
      </trkpt>
      <trkpt lat="48.72277" lon="1.96733">
        <ele>174</ele>
        <time>2017-03-12T10:11:09+01:00</time>
      </trkpt>
      <trkpt lat="48.72273" lon="1.96737">
        <ele>173</ele>
        <time>2017-03-12T10:11:12+01:00</time>
      </trkpt>
      <trkpt lat="48.72268" lon="1.9674">
        <ele>174</ele>
        <time>2017-03-12T10:11:16+01:00</time>
      </trkpt>
      <trkpt lat="48.72263" lon="1.96741">
        <ele>173</ele>
        <time>2017-03-12T10:11:20+01:00</time>
      </trkpt>
      <trkpt lat="48.72259" lon="1.96742">
        <ele>177</ele>
        <time>2017-03-12T10:11:24+01:00</time>
      </trkpt>
      <trkpt lat="48.72253" lon="1.96745">
        <ele>174</ele>
        <time>2017-03-12T10:11:32+01:00</time>
      </trkpt>
      <trkpt lat="48.7225" lon="1.96748">
        <ele>176</ele>
        <time>2017-03-12T10:11:36+01:00</time>
      </trkpt>
      <trkpt lat="48.72248" lon="1.96749">
        <ele>176</ele>
        <time>2017-03-12T10:11:40+01:00</time>
      </trkpt>
      <trkpt lat="48.7224" lon="1.9675">
        <ele>176</ele>
        <time>2017-03-12T10:11:48+01:00</time>
      </trkpt>
      <trkpt lat="48.72234" lon="1.96753">
        <ele>177</ele>
        <time>2017-03-12T10:11:52+01:00</time>
      </trkpt>
      <trkpt lat="48.72229" lon="1.96755">
        <ele>177</ele>
        <time>2017-03-12T10:11:56+01:00</time>
      </trkpt>
      <trkpt lat="48.72222" lon="1.96757">
        <ele>177</ele>
        <time>2017-03-12T10:12:00+01:00</time>
      </trkpt>
      <trkpt lat="48.72217" lon="1.96756">
        <ele>176</ele>
        <time>2017-03-12T10:12:04+01:00</time>
      </trkpt>
      <trkpt lat="48.72211" lon="1.96759">
        <ele>172</ele>
        <time>2017-03-12T10:12:09+01:00</time>
      </trkpt>
      <trkpt lat="48.72206" lon="1.96759">
        <ele>171</ele>
        <time>2017-03-12T10:12:12+01:00</time>
      </trkpt>
      <trkpt lat="48.72202" lon="1.9676">
        <ele>170</ele>
        <time>2017-03-12T10:12:16+01:00</time>
      </trkpt>
      <trkpt lat="48.72197" lon="1.96764">
        <ele>171</ele>
        <time>2017-03-12T10:12:20+01:00</time>
      </trkpt>
      <trkpt lat="48.72192" lon="1.96767">
        <ele>169</ele>
        <time>2017-03-12T10:12:24+01:00</time>
      </trkpt>
      <trkpt lat="48.72188" lon="1.96771">
        <ele>171</ele>
        <time>2017-03-12T10:12:29+01:00</time>
      </trkpt>
      <trkpt lat="48.72183" lon="1.96775">
        <ele>174</ele>
        <time>2017-03-12T10:12:40+01:00</time>
      </trkpt>
      <trkpt lat="48.72178" lon="1.96779">
        <ele>176</ele>
        <time>2017-03-12T10:12:44+01:00</time>
      </trkpt>
      <trkpt lat="48.72171" lon="1.96783">
        <ele>178</ele>
        <time>2017-03-12T10:12:48+01:00</time>
      </trkpt>
      <trkpt lat="48.72165" lon="1.96784">
        <ele>179</ele>
        <time>2017-03-12T10:12:52+01:00</time>
      </trkpt>
      <trkpt lat="48.72158" lon="1.96787">
        <ele>177</ele>
        <time>2017-03-12T10:12:57+01:00</time>
      </trkpt>
      <trkpt lat="48.72152" lon="1.96787">
        <ele>173</ele>
        <time>2017-03-12T10:13:00+01:00</time>
      </trkpt>
      <trkpt lat="48.72146" lon="1.96791">
        <ele>177</ele>
        <time>2017-03-12T10:13:04+01:00</time>
      </trkpt>
      <trkpt lat="48.72141" lon="1.96792">
        <ele>176</ele>
        <time>2017-03-12T10:13:08+01:00</time>
      </trkpt>
      <trkpt lat="48.72138" lon="1.96794">
        <ele>176</ele>
        <time>2017-03-12T10:13:12+01:00</time>
      </trkpt>
      <trkpt lat="48.72136" lon="1.96793">
        <ele>168</ele>
        <time>2017-03-12T10:13:16+01:00</time>
      </trkpt>
      <trkpt lat="48.72132" lon="1.96789">
        <ele>156</ele>
        <time>2017-03-12T10:13:24+01:00</time>
      </trkpt>
      <trkpt lat="48.72129" lon="1.96784">
        <ele>156</ele>
        <time>2017-03-12T10:13:28+01:00</time>
      </trkpt>
      <trkpt lat="48.72126" lon="1.9678">
        <ele>157</ele>
        <time>2017-03-12T10:13:33+01:00</time>
      </trkpt>
      <trkpt lat="48.72121" lon="1.96776">
        <ele>156</ele>
        <time>2017-03-12T10:13:36+01:00</time>
      </trkpt>
      <trkpt lat="48.72119" lon="1.96771">
        <ele>157</ele>
        <time>2017-03-12T10:13:40+01:00</time>
      </trkpt>
      <trkpt lat="48.72117" lon="1.96765">
        <ele>154</ele>
        <time>2017-03-12T10:13:44+01:00</time>
      </trkpt>
      <trkpt lat="48.72116" lon="1.9676">
        <ele>150</ele>
        <time>2017-03-12T10:13:48+01:00</time>
      </trkpt>
      <trkpt lat="48.72117" lon="1.96756">
        <ele>146</ele>
        <time>2017-03-12T10:13:52+01:00</time>
      </trkpt>
      <trkpt lat="48.72117" lon="1.9675">
        <ele>144</ele>
        <time>2017-03-12T10:13:57+01:00</time>
      </trkpt>
      <trkpt lat="48.72118" lon="1.96745">
        <ele>141</ele>
        <time>2017-03-12T10:14:00+01:00</time>
      </trkpt>
      <trkpt lat="48.72117" lon="1.96737">
        <ele>141</ele>
        <time>2017-03-12T10:14:04+01:00</time>
      </trkpt>
      <trkpt lat="48.72116" lon="1.9673">
        <ele>141</ele>
        <time>2017-03-12T10:14:08+01:00</time>
      </trkpt>
      <trkpt lat="48.72114" lon="1.96723">
        <ele>140</ele>
        <time>2017-03-12T10:14:12+01:00</time>
      </trkpt>
      <trkpt lat="48.72113" lon="1.96717">
        <ele>139</ele>
        <time>2017-03-12T10:14:16+01:00</time>
      </trkpt>
      <trkpt lat="48.72113" lon="1.96711">
        <ele>139</ele>
        <time>2017-03-12T10:14:20+01:00</time>
      </trkpt>
      <trkpt lat="48.72114" lon="1.96705">
        <ele>138</ele>
        <time>2017-03-12T10:14:24+01:00</time>
      </trkpt>
      <trkpt lat="48.72115" lon="1.96699">
        <ele>137</ele>
        <time>2017-03-12T10:14:28+01:00</time>
      </trkpt>
      <trkpt lat="48.72118" lon="1.96696">
        <ele>134</ele>
        <time>2017-03-12T10:14:32+01:00</time>
      </trkpt>
      <trkpt lat="48.7212" lon="1.96692">
        <ele>134</ele>
        <time>2017-03-12T10:14:36+01:00</time>
      </trkpt>
      <trkpt lat="48.72119" lon="1.96685">
        <ele>137</ele>
        <time>2017-03-12T10:14:40+01:00</time>
      </trkpt>
      <trkpt lat="48.72116" lon="1.96678">
        <ele>138</ele>
        <time>2017-03-12T10:14:44+01:00</time>
      </trkpt>
      <trkpt lat="48.72115" lon="1.96671">
        <ele>136</ele>
        <time>2017-03-12T10:14:48+01:00</time>
      </trkpt>
      <trkpt lat="48.72115" lon="1.96665">
        <ele>135</ele>
        <time>2017-03-12T10:14:52+01:00</time>
      </trkpt>
      <trkpt lat="48.72114" lon="1.96659">
        <ele>135</ele>
        <time>2017-03-12T10:14:56+01:00</time>
      </trkpt>
      <trkpt lat="48.72112" lon="1.96653">
        <ele>138</ele>
        <time>2017-03-12T10:15:01+01:00</time>
      </trkpt>
      <trkpt lat="48.72112" lon="1.96647">
        <ele>136</ele>
        <time>2017-03-12T10:15:04+01:00</time>
      </trkpt>
      <trkpt lat="48.72112" lon="1.96642">
        <ele>134</ele>
        <time>2017-03-12T10:15:08+01:00</time>
      </trkpt>
      <trkpt lat="48.72111" lon="1.96635">
        <ele>132</ele>
        <time>2017-03-12T10:15:12+01:00</time>
      </trkpt>
      <trkpt lat="48.72112" lon="1.9663">
        <ele>131</ele>
        <time>2017-03-12T10:15:16+01:00</time>
      </trkpt>
      <trkpt lat="48.72112" lon="1.96624">
        <ele>131</ele>
        <time>2017-03-12T10:15:20+01:00</time>
      </trkpt>
      <trkpt lat="48.72112" lon="1.96617">
        <ele>131</ele>
        <time>2017-03-12T10:15:24+01:00</time>
      </trkpt>
      <trkpt lat="48.72111" lon="1.96609">
        <ele>133</ele>
        <time>2017-03-12T10:15:28+01:00</time>
      </trkpt>
      <trkpt lat="48.72112" lon="1.96604">
        <ele>134</ele>
        <time>2017-03-12T10:15:32+01:00</time>
      </trkpt>
      <trkpt lat="48.72111" lon="1.96598">
        <ele>131</ele>
        <time>2017-03-12T10:15:36+01:00</time>
      </trkpt>
      <trkpt lat="48.7211" lon="1.96592">
        <ele>132</ele>
        <time>2017-03-12T10:15:41+01:00</time>
      </trkpt>
      <trkpt lat="48.72109" lon="1.96585">
        <ele>132</ele>
        <time>2017-03-12T10:15:44+01:00</time>
      </trkpt>
      <trkpt lat="48.7211" lon="1.96579">
        <ele>130</ele>
        <time>2017-03-12T10:15:48+01:00</time>
      </trkpt>
      <trkpt lat="48.72112" lon="1.96576">
        <ele>130</ele>
        <time>2017-03-12T10:15:52+01:00</time>
      </trkpt>
      <trkpt lat="48.72115" lon="1.96571">
        <ele>132</ele>
        <time>2017-03-12T10:15:56+01:00</time>
      </trkpt>
      <trkpt lat="48.72118" lon="1.96566">
        <ele>132</ele>
        <time>2017-03-12T10:16:00+01:00</time>
      </trkpt>
      <trkpt lat="48.72121" lon="1.96561">
        <ele>134</ele>
        <time>2017-03-12T10:16:05+01:00</time>
      </trkpt>
      <trkpt lat="48.72124" lon="1.96557">
        <ele>136</ele>
        <time>2017-03-12T10:16:08+01:00</time>
      </trkpt>
      <trkpt lat="48.72127" lon="1.96549">
        <ele>139</ele>
        <time>2017-03-12T10:16:13+01:00</time>
      </trkpt>
      <trkpt lat="48.7213" lon="1.96543">
        <ele>143</ele>
        <time>2017-03-12T10:16:16+01:00</time>
      </trkpt>
      <trkpt lat="48.72134" lon="1.96536">
        <ele>147</ele>
        <time>2017-03-12T10:16:20+01:00</time>
      </trkpt>
      <trkpt lat="48.72138" lon="1.96529">
        <ele>151</ele>
        <time>2017-03-12T10:16:24+01:00</time>
      </trkpt>
      <trkpt lat="48.72142" lon="1.96524">
        <ele>156</ele>
        <time>2017-03-12T10:16:28+01:00</time>
      </trkpt>
      <trkpt lat="48.72145" lon="1.96518">
        <ele>159</ele>
        <time>2017-03-12T10:16:33+01:00</time>
      </trkpt>
      <trkpt lat="48.72148" lon="1.9651">
        <ele>162</ele>
        <time>2017-03-12T10:16:36+01:00</time>
      </trkpt>
      <trkpt lat="48.72149" lon="1.96501">
        <ele>167</ele>
        <time>2017-03-12T10:16:40+01:00</time>
      </trkpt>
      <trkpt lat="48.72152" lon="1.96494">
        <ele>170</ele>
        <time>2017-03-12T10:16:44+01:00</time>
      </trkpt>
      <trkpt lat="48.72157" lon="1.96488">
        <ele>172</ele>
        <time>2017-03-12T10:16:49+01:00</time>
      </trkpt>
      <trkpt lat="48.72163" lon="1.96485">
        <ele>174</ele>
        <time>2017-03-12T10:16:52+01:00</time>
      </trkpt>
      <trkpt lat="48.72168" lon="1.9648">
        <ele>176</ele>
        <time>2017-03-12T10:16:57+01:00</time>
      </trkpt>
      <trkpt lat="48.72172" lon="1.96478">
        <ele>177</ele>
        <time>2017-03-12T10:17:00+01:00</time>
      </trkpt>
      <trkpt lat="48.72174" lon="1.96476">
        <ele>179</ele>
        <time>2017-03-12T10:17:04+01:00</time>
      </trkpt>
      <trkpt lat="48.72175" lon="1.96476">
        <ele>179</ele>
        <time>2017-03-12T10:17:09+01:00</time>
      </trkpt>
      <trkpt lat="48.72182" lon="1.96478">
        <ele>180</ele>
        <time>2017-03-12T10:17:24+01:00</time>
      </trkpt>
      <trkpt lat="48.72187" lon="1.96479">
        <ele>181</ele>
        <time>2017-03-12T10:17:28+01:00</time>
      </trkpt>
      <trkpt lat="48.72193" lon="1.96478">
        <ele>180</ele>
        <time>2017-03-12T10:17:32+01:00</time>
      </trkpt>
      <trkpt lat="48.722" lon="1.96475">
        <ele>176</ele>
        <time>2017-03-12T10:17:37+01:00</time>
      </trkpt>
      <trkpt lat="48.72207" lon="1.96472">
        <ele>175</ele>
        <time>2017-03-12T10:17:40+01:00</time>
      </trkpt>
      <trkpt lat="48.72213" lon="1.96466">
        <ele>175</ele>
        <time>2017-03-12T10:17:44+01:00</time>
      </trkpt>
      <trkpt lat="48.72221" lon="1.96463">
        <ele>175</ele>
        <time>2017-03-12T10:17:49+01:00</time>
      </trkpt>
      <trkpt lat="48.72228" lon="1.96457">
        <ele>175</ele>
        <time>2017-03-12T10:17:53+01:00</time>
      </trkpt>
      <trkpt lat="48.72235" lon="1.96452">
        <ele>178</ele>
        <time>2017-03-12T10:17:57+01:00</time>
      </trkpt>
      <trkpt lat="48.7224" lon="1.96448">
        <ele>177</ele>
        <time>2017-03-12T10:18:00+01:00</time>
      </trkpt>
      <trkpt lat="48.72249" lon="1.96442">
        <ele>176</ele>
        <time>2017-03-12T10:18:04+01:00</time>
      </trkpt>
      <trkpt lat="48.72253" lon="1.96436">
        <ele>177</ele>
        <time>2017-03-12T10:18:09+01:00</time>
      </trkpt>
      <trkpt lat="48.72257" lon="1.9643">
        <ele>175</ele>
        <time>2017-03-12T10:18:12+01:00</time>
      </trkpt>
      <trkpt lat="48.72261" lon="1.96425">
        <ele>174</ele>
        <time>2017-03-12T10:18:17+01:00</time>
      </trkpt>
      <trkpt lat="48.72267" lon="1.96423">
        <ele>176</ele>
        <time>2017-03-12T10:18:21+01:00</time>
      </trkpt>
      <trkpt lat="48.72269" lon="1.96421">
        <ele>175</ele>
        <time>2017-03-12T10:18:25+01:00</time>
      </trkpt>
      <trkpt lat="48.72274" lon="1.96419">
        <ele>175</ele>
        <time>2017-03-12T10:18:28+01:00</time>
      </trkpt>
      <trkpt lat="48.72277" lon="1.96414">
        <ele>177</ele>
        <time>2017-03-12T10:18:33+01:00</time>
      </trkpt>
      <trkpt lat="48.7228" lon="1.96413">
        <ele>177</ele>
        <time>2017-03-12T10:18:36+01:00</time>
      </trkpt>
      <trkpt lat="48.72288" lon="1.9641">
        <ele>177</ele>
        <time>2017-03-12T10:18:53+01:00</time>
      </trkpt>
      <trkpt lat="48.72293" lon="1.96409">
        <ele>177</ele>
        <time>2017-03-12T10:18:57+01:00</time>
      </trkpt>
      <trkpt lat="48.72296" lon="1.96408">
        <ele>178</ele>
        <time>2017-03-12T10:19:01+01:00</time>
      </trkpt>
      <trkpt lat="48.72304" lon="1.96406">
        <ele>175</ele>
        <time>2017-03-12T10:19:16+01:00</time>
      </trkpt>
      <trkpt lat="48.72312" lon="1.96404">
        <ele>174</ele>
        <time>2017-03-12T10:19:20+01:00</time>
      </trkpt>
      <trkpt lat="48.72321" lon="1.96403">
        <ele>172</ele>
        <time>2017-03-12T10:19:24+01:00</time>
      </trkpt>
      <trkpt lat="48.7233" lon="1.96401">
        <ele>174</ele>
        <time>2017-03-12T10:19:29+01:00</time>
      </trkpt>
      <trkpt lat="48.72338" lon="1.96398">
        <ele>173</ele>
        <time>2017-03-12T10:19:32+01:00</time>
      </trkpt>
      <trkpt lat="48.72348" lon="1.96395">
        <ele>174</ele>
        <time>2017-03-12T10:19:37+01:00</time>
      </trkpt>
      <trkpt lat="48.72354" lon="1.96393">
        <ele>176</ele>
        <time>2017-03-12T10:19:40+01:00</time>
      </trkpt>
      <trkpt lat="48.72361" lon="1.9639">
        <ele>175</ele>
        <time>2017-03-12T10:19:45+01:00</time>
      </trkpt>
      <trkpt lat="48.7237" lon="1.96387">
        <ele>175</ele>
        <time>2017-03-12T10:19:49+01:00</time>
      </trkpt>
      <trkpt lat="48.72377" lon="1.96383">
        <ele>175</ele>
        <time>2017-03-12T10:19:53+01:00</time>
      </trkpt>
      <trkpt lat="48.72384" lon="1.96379">
        <ele>170</ele>
        <time>2017-03-12T10:19:57+01:00</time>
      </trkpt>
      <trkpt lat="48.72391" lon="1.96377">
        <ele>170</ele>
        <time>2017-03-12T10:20:01+01:00</time>
      </trkpt>
      <trkpt lat="48.72396" lon="1.96372">
        <ele>170</ele>
        <time>2017-03-12T10:20:05+01:00</time>
      </trkpt>
      <trkpt lat="48.724" lon="1.96368">
        <ele>171</ele>
        <time>2017-03-12T10:20:12+01:00</time>
      </trkpt>
      <trkpt lat="48.72401" lon="1.96366">
        <ele>172</ele>
        <time>2017-03-12T10:20:17+01:00</time>
      </trkpt>
      <trkpt lat="48.72405" lon="1.96365">
        <ele>171</ele>
        <time>2017-03-12T10:20:21+01:00</time>
      </trkpt>
      <trkpt lat="48.7241" lon="1.96362">
        <ele>175</ele>
        <time>2017-03-12T10:20:41+01:00</time>
      </trkpt>
      <trkpt lat="48.72415" lon="1.96361">
        <ele>176</ele>
        <time>2017-03-12T10:20:44+01:00</time>
      </trkpt>
      <trkpt lat="48.72423" lon="1.96358">
        <ele>180</ele>
        <time>2017-03-12T10:20:48+01:00</time>
      </trkpt>
      <trkpt lat="48.72431" lon="1.96356">
        <ele>179</ele>
        <time>2017-03-12T10:20:53+01:00</time>
      </trkpt>
      <trkpt lat="48.72441" lon="1.96352">
        <ele>180</ele>
        <time>2017-03-12T10:20:56+01:00</time>
      </trkpt>
      <trkpt lat="48.72448" lon="1.9635">
        <ele>182</ele>
        <time>2017-03-12T10:21:01+01:00</time>
      </trkpt>
      <trkpt lat="48.72453" lon="1.9635">
        <ele>183</ele>
        <time>2017-03-12T10:21:05+01:00</time>
      </trkpt>
      <trkpt lat="48.72459" lon="1.96347">
        <ele>183</ele>
        <time>2017-03-12T10:21:09+01:00</time>
      </trkpt>
      <trkpt lat="48.72466" lon="1.96345">
        <ele>183</ele>
        <time>2017-03-12T10:21:12+01:00</time>
      </trkpt>
      <trkpt lat="48.72472" lon="1.96343">
        <ele>183</ele>
        <time>2017-03-12T10:21:16+01:00</time>
      </trkpt>
      <trkpt lat="48.7248" lon="1.96338">
        <ele>180</ele>
        <time>2017-03-12T10:21:20+01:00</time>
      </trkpt>
      <trkpt lat="48.7249" lon="1.96331">
        <ele>176</ele>
        <time>2017-03-12T10:21:24+01:00</time>
      </trkpt>
      <trkpt lat="48.72493" lon="1.96324">
        <ele>172</ele>
        <time>2017-03-12T10:21:28+01:00</time>
      </trkpt>
      <trkpt lat="48.72494" lon="1.96316">
        <ele>171</ele>
        <time>2017-03-12T10:21:32+01:00</time>
      </trkpt>
      <trkpt lat="48.72492" lon="1.96311">
        <ele>171</ele>
        <time>2017-03-12T10:21:36+01:00</time>
      </trkpt>
      <trkpt lat="48.72491" lon="1.96305">
        <ele>168</ele>
        <time>2017-03-12T10:21:40+01:00</time>
      </trkpt>
      <trkpt lat="48.7249" lon="1.96301">
        <ele>168</ele>
        <time>2017-03-12T10:21:44+01:00</time>
      </trkpt>
      <trkpt lat="48.72488" lon="1.96296">
        <ele>167</ele>
        <time>2017-03-12T10:21:48+01:00</time>
      </trkpt>
      <trkpt lat="48.72484" lon="1.96293">
        <ele>165</ele>
        <time>2017-03-12T10:21:52+01:00</time>
      </trkpt>
      <trkpt lat="48.72482" lon="1.96291">
        <ele>167</ele>
        <time>2017-03-12T10:21:56+01:00</time>
      </trkpt>
      <trkpt lat="48.72473" lon="1.96287">
        <ele>170</ele>
        <time>2017-03-12T10:22:13+01:00</time>
      </trkpt>
      <trkpt lat="48.72467" lon="1.96286">
        <ele>171</ele>
        <time>2017-03-12T10:22:16+01:00</time>
      </trkpt>
      <trkpt lat="48.72462" lon="1.96287">
        <ele>172</ele>
        <time>2017-03-12T10:22:20+01:00</time>
      </trkpt>
      <trkpt lat="48.72456" lon="1.96287">
        <ele>171</ele>
        <time>2017-03-12T10:22:36+01:00</time>
      </trkpt>
      <trkpt lat="48.72453" lon="1.96283">
        <ele>165</ele>
        <time>2017-03-12T10:22:40+01:00</time>
      </trkpt>
      <trkpt lat="48.72448" lon="1.9628">
        <ele>161</ele>
        <time>2017-03-12T10:22:45+01:00</time>
      </trkpt>
      <trkpt lat="48.72442" lon="1.96276">
        <ele>158</ele>
        <time>2017-03-12T10:22:48+01:00</time>
      </trkpt>
      <trkpt lat="48.72435" lon="1.96274">
        <ele>156</ele>
        <time>2017-03-12T10:22:52+01:00</time>
      </trkpt>
      <trkpt lat="48.72427" lon="1.96272">
        <ele>155</ele>
        <time>2017-03-12T10:22:56+01:00</time>
      </trkpt>
      <trkpt lat="48.72418" lon="1.96271">
        <ele>155</ele>
        <time>2017-03-12T10:23:00+01:00</time>
      </trkpt>
      <trkpt lat="48.72411" lon="1.96269">
        <ele>158</ele>
        <time>2017-03-12T10:23:04+01:00</time>
      </trkpt>
      <trkpt lat="48.72405" lon="1.96267">
        <ele>160</ele>
        <time>2017-03-12T10:23:09+01:00</time>
      </trkpt>
      <trkpt lat="48.72403" lon="1.96265">
        <ele>162</ele>
        <time>2017-03-12T10:23:13+01:00</time>
      </trkpt>
      <trkpt lat="48.72394" lon="1.96263">
        <ele>162</ele>
        <time>2017-03-12T10:23:24+01:00</time>
      </trkpt>
      <trkpt lat="48.72389" lon="1.9626">
        <ele>159</ele>
        <time>2017-03-12T10:23:28+01:00</time>
      </trkpt>
      <trkpt lat="48.72383" lon="1.96258">
        <ele>158</ele>
        <time>2017-03-12T10:23:32+01:00</time>
      </trkpt>
      <trkpt lat="48.7238" lon="1.96258">
        <ele>159</ele>
        <time>2017-03-12T10:23:36+01:00</time>
      </trkpt>
      <trkpt lat="48.72374" lon="1.96254">
        <ele>157</ele>
        <time>2017-03-12T10:23:40+01:00</time>
      </trkpt>
      <trkpt lat="48.7237" lon="1.96251">
        <ele>158</ele>
        <time>2017-03-12T10:23:44+01:00</time>
      </trkpt>
      <trkpt lat="48.72365" lon="1.96248">
        <ele>160</ele>
        <time>2017-03-12T10:23:49+01:00</time>
      </trkpt>
      <trkpt lat="48.72359" lon="1.96244">
        <ele>158</ele>
        <time>2017-03-12T10:23:52+01:00</time>
      </trkpt>
      <trkpt lat="48.72353" lon="1.9624">
        <ele>155</ele>
        <time>2017-03-12T10:23:56+01:00</time>
      </trkpt>
      <trkpt lat="48.72346" lon="1.96235">
        <ele>151</ele>
        <time>2017-03-12T10:24:00+01:00</time>
      </trkpt>
      <trkpt lat="48.7234" lon="1.96231">
        <ele>152</ele>
        <time>2017-03-12T10:24:05+01:00</time>
      </trkpt>
      <trkpt lat="48.72334" lon="1.96227">
        <ele>152</ele>
        <time>2017-03-12T10:24:09+01:00</time>
      </trkpt>
      <trkpt lat="48.72329" lon="1.96224">
        <ele>150</ele>
        <time>2017-03-12T10:24:13+01:00</time>
      </trkpt>
      <trkpt lat="48.72324" lon="1.96222">
        <ele>147</ele>
        <time>2017-03-12T10:24:17+01:00</time>
      </trkpt>
      <trkpt lat="48.72318" lon="1.96219">
        <ele>148</ele>
        <time>2017-03-12T10:24:21+01:00</time>
      </trkpt>
      <trkpt lat="48.72312" lon="1.96217">
        <ele>147</ele>
        <time>2017-03-12T10:24:25+01:00</time>
      </trkpt>
      <trkpt lat="48.72307" lon="1.96212">
        <ele>146</ele>
        <time>2017-03-12T10:24:28+01:00</time>
      </trkpt>
      <trkpt lat="48.72301" lon="1.96209">
        <ele>145</ele>
        <time>2017-03-12T10:24:33+01:00</time>
      </trkpt>
      <trkpt lat="48.72296" lon="1.96207">
        <ele>148</ele>
        <time>2017-03-12T10:24:36+01:00</time>
      </trkpt>
      <trkpt lat="48.72291" lon="1.96203">
        <ele>147</ele>
        <time>2017-03-12T10:24:41+01:00</time>
      </trkpt>
      <trkpt lat="48.72287" lon="1.96199">
        <ele>150</ele>
        <time>2017-03-12T10:24:45+01:00</time>
      </trkpt>
      <trkpt lat="48.72282" lon="1.96195">
        <ele>152</ele>
        <time>2017-03-12T10:24:49+01:00</time>
      </trkpt>
      <trkpt lat="48.72277" lon="1.96191">
        <ele>154</ele>
        <time>2017-03-12T10:24:53+01:00</time>
      </trkpt>
      <trkpt lat="48.72271" lon="1.9619">
        <ele>155</ele>
        <time>2017-03-12T10:24:57+01:00</time>
      </trkpt>
      <trkpt lat="48.72266" lon="1.96188">
        <ele>157</ele>
        <time>2017-03-12T10:25:00+01:00</time>
      </trkpt>
      <trkpt lat="48.7226" lon="1.96187">
        <ele>158</ele>
        <time>2017-03-12T10:25:05+01:00</time>
      </trkpt>
      <trkpt lat="48.72256" lon="1.96188">
        <ele>159</ele>
        <time>2017-03-12T10:25:08+01:00</time>
      </trkpt>
      <trkpt lat="48.72253" lon="1.96187">
        <ele>161</ele>
        <time>2017-03-12T10:25:12+01:00</time>
      </trkpt>
      <trkpt lat="48.72249" lon="1.96187">
        <ele>162</ele>
        <time>2017-03-12T10:25:16+01:00</time>
      </trkpt>
      <trkpt lat="48.72246" lon="1.96185">
        <ele>162</ele>
        <time>2017-03-12T10:25:21+01:00</time>
      </trkpt>
      <trkpt lat="48.72243" lon="1.96185">
        <ele>164</ele>
        <time>2017-03-12T10:25:24+01:00</time>
      </trkpt>
      <trkpt lat="48.72236" lon="1.96187">
        <ele>166</ele>
        <time>2017-03-12T10:25:28+01:00</time>
      </trkpt>
      <trkpt lat="48.72232" lon="1.96188">
        <ele>167</ele>
        <time>2017-03-12T10:25:32+01:00</time>
      </trkpt>
      <trkpt lat="48.72227" lon="1.96189">
        <ele>167</ele>
        <time>2017-03-12T10:25:45+01:00</time>
      </trkpt>
      <trkpt lat="48.72221" lon="1.96189">
        <ele>165</ele>
        <time>2017-03-12T10:25:48+01:00</time>
      </trkpt>
      <trkpt lat="48.72215" lon="1.96192">
        <ele>164</ele>
        <time>2017-03-12T10:25:53+01:00</time>
      </trkpt>
      <trkpt lat="48.72205" lon="1.96194">
        <ele>158</ele>
        <time>2017-03-12T10:25:57+01:00</time>
      </trkpt>
      <trkpt lat="48.72196" lon="1.96196">
        <ele>159</ele>
        <time>2017-03-12T10:26:00+01:00</time>
      </trkpt>
      <trkpt lat="48.72187" lon="1.96197">
        <ele>156</ele>
        <time>2017-03-12T10:26:05+01:00</time>
      </trkpt>
      <trkpt lat="48.72179" lon="1.962">
        <ele>156</ele>
        <time>2017-03-12T10:26:08+01:00</time>
      </trkpt>
      <trkpt lat="48.72174" lon="1.96203">
        <ele>155</ele>
        <time>2017-03-12T10:26:12+01:00</time>
      </trkpt>
      <trkpt lat="48.72168" lon="1.96204">
        <ele>156</ele>
        <time>2017-03-12T10:26:17+01:00</time>
      </trkpt>
      <trkpt lat="48.72164" lon="1.96205">
        <ele>157</ele>
        <time>2017-03-12T10:26:21+01:00</time>
      </trkpt>
      <trkpt lat="48.72161" lon="1.96209">
        <ele>157</ele>
        <time>2017-03-12T10:26:36+01:00</time>
      </trkpt>
      <trkpt lat="48.72158" lon="1.96215">
        <ele>156</ele>
        <time>2017-03-12T10:26:40+01:00</time>
      </trkpt>
      <trkpt lat="48.72153" lon="1.96221">
        <ele>154</ele>
        <time>2017-03-12T10:26:44+01:00</time>
      </trkpt>
      <trkpt lat="48.72147" lon="1.96225">
        <ele>155</ele>
        <time>2017-03-12T10:26:49+01:00</time>
      </trkpt>
      <trkpt lat="48.72142" lon="1.9623">
        <ele>157</ele>
        <time>2017-03-12T10:26:52+01:00</time>
      </trkpt>
      <trkpt lat="48.72137" lon="1.9623">
        <ele>157</ele>
        <time>2017-03-12T10:26:56+01:00</time>
      </trkpt>
      <trkpt lat="48.72135" lon="1.9623">
        <ele>159</ele>
        <time>2017-03-12T10:27:00+01:00</time>
      </trkpt>
      <trkpt lat="48.72134" lon="1.96231">
        <ele>160</ele>
        <time>2017-03-12T10:27:04+01:00</time>
      </trkpt>
      <trkpt lat="48.72127" lon="1.96232">
        <ele>155</ele>
        <time>2017-03-12T10:34:24+01:00</time>
      </trkpt>
      <trkpt lat="48.72125" lon="1.96234">
        <ele>155</ele>
        <time>2017-03-12T10:34:28+01:00</time>
      </trkpt>
      <trkpt lat="48.72122" lon="1.96239">
        <ele>160</ele>
        <time>2017-03-12T10:34:32+01:00</time>
      </trkpt>
      <trkpt lat="48.72119" lon="1.96246">
        <ele>161</ele>
        <time>2017-03-12T10:34:36+01:00</time>
      </trkpt>
      <trkpt lat="48.72115" lon="1.96251">
        <ele>163</ele>
        <time>2017-03-12T10:34:41+01:00</time>
      </trkpt>
      <trkpt lat="48.72113" lon="1.96257">
        <ele>163</ele>
        <time>2017-03-12T10:34:45+01:00</time>
      </trkpt>
      <trkpt lat="48.72111" lon="1.96262">
        <ele>161</ele>
        <time>2017-03-12T10:34:49+01:00</time>
      </trkpt>
      <trkpt lat="48.72108" lon="1.96268">
        <ele>163</ele>
        <time>2017-03-12T10:34:52+01:00</time>
      </trkpt>
      <trkpt lat="48.72106" lon="1.96273">
        <ele>165</ele>
        <time>2017-03-12T10:34:56+01:00</time>
      </trkpt>
      <trkpt lat="48.72101" lon="1.96275">
        <ele>166</ele>
        <time>2017-03-12T10:35:00+01:00</time>
      </trkpt>
      <trkpt lat="48.72098" lon="1.9628">
        <ele>167</ele>
        <time>2017-03-12T10:35:04+01:00</time>
      </trkpt>
      <trkpt lat="48.72095" lon="1.96284">
        <ele>168</ele>
        <time>2017-03-12T10:35:08+01:00</time>
      </trkpt>
      <trkpt lat="48.72092" lon="1.96292">
        <ele>167</ele>
        <time>2017-03-12T10:35:13+01:00</time>
      </trkpt>
      <trkpt lat="48.72091" lon="1.963">
        <ele>165</ele>
        <time>2017-03-12T10:35:17+01:00</time>
      </trkpt>
      <trkpt lat="48.7209" lon="1.96307">
        <ele>166</ele>
        <time>2017-03-12T10:35:20+01:00</time>
      </trkpt>
      <trkpt lat="48.72089" lon="1.96313">
        <ele>165</ele>
        <time>2017-03-12T10:35:24+01:00</time>
      </trkpt>
      <trkpt lat="48.72085" lon="1.96316">
        <ele>167</ele>
        <time>2017-03-12T10:35:28+01:00</time>
      </trkpt>
      <trkpt lat="48.7208" lon="1.9632">
        <ele>167</ele>
        <time>2017-03-12T10:35:32+01:00</time>
      </trkpt>
      <trkpt lat="48.72077" lon="1.96327">
        <ele>166</ele>
        <time>2017-03-12T10:35:41+01:00</time>
      </trkpt>
      <trkpt lat="48.72073" lon="1.96331">
        <ele>165</ele>
        <time>2017-03-12T10:35:44+01:00</time>
      </trkpt>
      <trkpt lat="48.72072" lon="1.96335">
        <ele>166</ele>
        <time>2017-03-12T10:35:48+01:00</time>
      </trkpt>
      <trkpt lat="48.72071" lon="1.96339">
        <ele>166</ele>
        <time>2017-03-12T10:35:52+01:00</time>
      </trkpt>
      <trkpt lat="48.7207" lon="1.96344">
        <ele>165</ele>
        <time>2017-03-12T10:35:56+01:00</time>
      </trkpt>
      <trkpt lat="48.7207" lon="1.96347">
        <ele>164</ele>
        <time>2017-03-12T10:36:01+01:00</time>
      </trkpt>
      <trkpt lat="48.72068" lon="1.9635">
        <ele>162</ele>
        <time>2017-03-12T10:36:04+01:00</time>
      </trkpt>
      <trkpt lat="48.72068" lon="1.96351">
        <ele>162</ele>
        <time>2017-03-12T10:36:08+01:00</time>
      </trkpt>
      <trkpt lat="48.72067" lon="1.96354">
        <ele>161</ele>
        <time>2017-03-12T10:36:29+01:00</time>
      </trkpt>
      <trkpt lat="48.72065" lon="1.96359">
        <ele>158</ele>
        <time>2017-03-12T10:36:32+01:00</time>
      </trkpt>
      <trkpt lat="48.72062" lon="1.96365">
        <ele>161</ele>
        <time>2017-03-12T10:36:36+01:00</time>
      </trkpt>
      <trkpt lat="48.7206" lon="1.96371">
        <ele>160</ele>
        <time>2017-03-12T10:36:40+01:00</time>
      </trkpt>
      <trkpt lat="48.72054" lon="1.96373">
        <ele>161</ele>
        <time>2017-03-12T10:36:44+01:00</time>
      </trkpt>
      <trkpt lat="48.72049" lon="1.96379">
        <ele>161</ele>
        <time>2017-03-12T10:36:48+01:00</time>
      </trkpt>
      <trkpt lat="48.72046" lon="1.96386">
        <ele>164</ele>
        <time>2017-03-12T10:36:52+01:00</time>
      </trkpt>
      <trkpt lat="48.72042" lon="1.96393">
        <ele>162</ele>
        <time>2017-03-12T10:36:56+01:00</time>
      </trkpt>
      <trkpt lat="48.72038" lon="1.96397">
        <ele>163</ele>
        <time>2017-03-12T10:37:00+01:00</time>
      </trkpt>
      <trkpt lat="48.72034" lon="1.96403">
        <ele>164</ele>
        <time>2017-03-12T10:37:04+01:00</time>
      </trkpt>
      <trkpt lat="48.7203" lon="1.96408">
        <ele>168</ele>
        <time>2017-03-12T10:37:08+01:00</time>
      </trkpt>
      <trkpt lat="48.72029" lon="1.96415">
        <ele>166</ele>
        <time>2017-03-12T10:37:13+01:00</time>
      </trkpt>
      <trkpt lat="48.72026" lon="1.96421">
        <ele>168</ele>
        <time>2017-03-12T10:37:16+01:00</time>
      </trkpt>
      <trkpt lat="48.72023" lon="1.96425">
        <ele>170</ele>
        <time>2017-03-12T10:37:20+01:00</time>
      </trkpt>
      <trkpt lat="48.7202" lon="1.96431">
        <ele>169</ele>
        <time>2017-03-12T10:37:24+01:00</time>
      </trkpt>
      <trkpt lat="48.72016" lon="1.96438">
        <ele>170</ele>
        <time>2017-03-12T10:37:28+01:00</time>
      </trkpt>
      <trkpt lat="48.72013" lon="1.96446">
        <ele>171</ele>
        <time>2017-03-12T10:37:32+01:00</time>
      </trkpt>
      <trkpt lat="48.72011" lon="1.96453">
        <ele>172</ele>
        <time>2017-03-12T10:37:36+01:00</time>
      </trkpt>
      <trkpt lat="48.7201" lon="1.96461">
        <ele>174</ele>
        <time>2017-03-12T10:37:40+01:00</time>
      </trkpt>
      <trkpt lat="48.72007" lon="1.96467">
        <ele>175</ele>
        <time>2017-03-12T10:37:44+01:00</time>
      </trkpt>
      <trkpt lat="48.72005" lon="1.96475">
        <ele>174</ele>
        <time>2017-03-12T10:37:48+01:00</time>
      </trkpt>
      <trkpt lat="48.72003" lon="1.96483">
        <ele>172</ele>
        <time>2017-03-12T10:37:52+01:00</time>
      </trkpt>
      <trkpt lat="48.72" lon="1.9649">
        <ele>171</ele>
        <time>2017-03-12T10:37:57+01:00</time>
      </trkpt>
      <trkpt lat="48.71998" lon="1.96497">
        <ele>172</ele>
        <time>2017-03-12T10:38:00+01:00</time>
      </trkpt>
      <trkpt lat="48.71998" lon="1.96503">
        <ele>171</ele>
        <time>2017-03-12T10:38:04+01:00</time>
      </trkpt>
      <trkpt lat="48.71996" lon="1.96506">
        <ele>169</ele>
        <time>2017-03-12T10:38:08+01:00</time>
      </trkpt>
      <trkpt lat="48.71994" lon="1.96508">
        <ele>168</ele>
        <time>2017-03-12T10:38:12+01:00</time>
      </trkpt>
      <trkpt lat="48.71992" lon="1.96511">
        <ele>168</ele>
        <time>2017-03-12T10:38:16+01:00</time>
      </trkpt>
      <trkpt lat="48.71987" lon="1.96515">
        <ele>166</ele>
        <time>2017-03-12T10:38:20+01:00</time>
      </trkpt>
      <trkpt lat="48.71985" lon="1.96517">
        <ele>165</ele>
        <time>2017-03-12T10:38:24+01:00</time>
      </trkpt>
      <trkpt lat="48.71984" lon="1.96518">
        <ele>165</ele>
        <time>2017-03-12T10:38:28+01:00</time>
      </trkpt>
      <trkpt lat="48.71981" lon="1.96523">
        <ele>168</ele>
        <time>2017-03-12T10:38:32+01:00</time>
      </trkpt>
      <trkpt lat="48.71979" lon="1.96527">
        <ele>168</ele>
        <time>2017-03-12T10:38:36+01:00</time>
      </trkpt>
      <trkpt lat="48.71977" lon="1.96532">
        <ele>169</ele>
        <time>2017-03-12T10:38:40+01:00</time>
      </trkpt>
      <trkpt lat="48.71976" lon="1.96537">
        <ele>169</ele>
        <time>2017-03-12T10:38:44+01:00</time>
      </trkpt>
      <trkpt lat="48.71975" lon="1.96543">
        <ele>168</ele>
        <time>2017-03-12T10:38:49+01:00</time>
      </trkpt>
      <trkpt lat="48.71974" lon="1.96551">
        <ele>168</ele>
        <time>2017-03-12T10:38:52+01:00</time>
      </trkpt>
      <trkpt lat="48.71972" lon="1.96559">
        <ele>167</ele>
        <time>2017-03-12T10:38:56+01:00</time>
      </trkpt>
      <trkpt lat="48.7197" lon="1.96566">
        <ele>167</ele>
        <time>2017-03-12T10:39:00+01:00</time>
      </trkpt>
      <trkpt lat="48.71968" lon="1.96573">
        <ele>168</ele>
        <time>2017-03-12T10:39:04+01:00</time>
      </trkpt>
      <trkpt lat="48.71966" lon="1.9658">
        <ele>170</ele>
        <time>2017-03-12T10:39:08+01:00</time>
      </trkpt>
      <trkpt lat="48.71963" lon="1.96586">
        <ele>170</ele>
        <time>2017-03-12T10:39:12+01:00</time>
      </trkpt>
      <trkpt lat="48.71963" lon="1.96594">
        <ele>168</ele>
        <time>2017-03-12T10:39:16+01:00</time>
      </trkpt>
      <trkpt lat="48.71961" lon="1.96602">
        <ele>167</ele>
        <time>2017-03-12T10:39:20+01:00</time>
      </trkpt>
      <trkpt lat="48.71957" lon="1.9661">
        <ele>165</ele>
        <time>2017-03-12T10:39:24+01:00</time>
      </trkpt>
      <trkpt lat="48.71955" lon="1.96613">
        <ele>164</ele>
        <time>2017-03-12T10:39:28+01:00</time>
      </trkpt>
      <trkpt lat="48.71955" lon="1.96615">
        <ele>164</ele>
        <time>2017-03-12T10:39:32+01:00</time>
      </trkpt>
      <trkpt lat="48.71952" lon="1.96619">
        <ele>164</ele>
        <time>2017-03-12T10:39:36+01:00</time>
      </trkpt>
      <trkpt lat="48.71951" lon="1.96621">
        <ele>163</ele>
        <time>2017-03-12T10:39:40+01:00</time>
      </trkpt>
      <trkpt lat="48.7195" lon="1.96624">
        <ele>162</ele>
        <time>2017-03-12T10:39:44+01:00</time>
      </trkpt>
      <trkpt lat="48.7195" lon="1.96626">
        <ele>160</ele>
        <time>2017-03-12T10:39:48+01:00</time>
      </trkpt>
      <trkpt lat="48.71953" lon="1.96628">
        <ele>161</ele>
        <time>2017-03-12T10:39:52+01:00</time>
      </trkpt>
      <trkpt lat="48.71954" lon="1.96635">
        <ele>163</ele>
        <time>2017-03-12T10:39:56+01:00</time>
      </trkpt>
      <trkpt lat="48.71954" lon="1.96641">
        <ele>163</ele>
        <time>2017-03-12T10:40:00+01:00</time>
      </trkpt>
      <trkpt lat="48.71955" lon="1.96647">
        <ele>162</ele>
        <time>2017-03-12T10:40:05+01:00</time>
      </trkpt>
      <trkpt lat="48.71955" lon="1.96653">
        <ele>162</ele>
        <time>2017-03-12T10:40:08+01:00</time>
      </trkpt>
      <trkpt lat="48.71954" lon="1.96659">
        <ele>161</ele>
        <time>2017-03-12T10:40:12+01:00</time>
      </trkpt>
      <trkpt lat="48.71952" lon="1.96663">
        <ele>165</ele>
        <time>2017-03-12T10:40:16+01:00</time>
      </trkpt>
      <trkpt lat="48.71951" lon="1.96668">
        <ele>167</ele>
        <time>2017-03-12T10:40:20+01:00</time>
      </trkpt>
      <trkpt lat="48.71953" lon="1.96675">
        <ele>166</ele>
        <time>2017-03-12T10:40:24+01:00</time>
      </trkpt>
      <trkpt lat="48.71954" lon="1.96684">
        <ele>168</ele>
        <time>2017-03-12T10:40:40+01:00</time>
      </trkpt>
      <trkpt lat="48.71957" lon="1.96691">
        <ele>166</ele>
        <time>2017-03-12T10:40:44+01:00</time>
      </trkpt>
      <trkpt lat="48.7196" lon="1.96695">
        <ele>167</ele>
        <time>2017-03-12T10:40:48+01:00</time>
      </trkpt>
      <trkpt lat="48.71959" lon="1.96703">
        <ele>166</ele>
        <time>2017-03-12T10:40:56+01:00</time>
      </trkpt>
      <trkpt lat="48.71958" lon="1.9671">
        <ele>171</ele>
        <time>2017-03-12T10:41:00+01:00</time>
      </trkpt>
      <trkpt lat="48.71956" lon="1.96719">
        <ele>170</ele>
        <time>2017-03-12T10:41:04+01:00</time>
      </trkpt>
      <trkpt lat="48.71956" lon="1.96724">
        <ele>171</ele>
        <time>2017-03-12T10:41:08+01:00</time>
      </trkpt>
      <trkpt lat="48.71957" lon="1.96727">
        <ele>171</ele>
        <time>2017-03-12T10:41:13+01:00</time>
      </trkpt>
      <trkpt lat="48.71957" lon="1.96728">
        <ele>170</ele>
        <time>2017-03-12T10:41:17+01:00</time>
      </trkpt>
      <trkpt lat="48.71955" lon="1.96736">
        <ele>168</ele>
        <time>2017-03-12T10:41:24+01:00</time>
      </trkpt>
      <trkpt lat="48.71953" lon="1.96741">
        <ele>173</ele>
        <time>2017-03-12T10:41:28+01:00</time>
      </trkpt>
      <trkpt lat="48.71952" lon="1.96748">
        <ele>173</ele>
        <time>2017-03-12T10:41:32+01:00</time>
      </trkpt>
      <trkpt lat="48.7195" lon="1.96754">
        <ele>172</ele>
        <time>2017-03-12T10:41:36+01:00</time>
      </trkpt>
      <trkpt lat="48.71948" lon="1.96757">
        <ele>172</ele>
        <time>2017-03-12T10:41:40+01:00</time>
      </trkpt>
      <trkpt lat="48.71947" lon="1.96763">
        <ele>173</ele>
        <time>2017-03-12T10:41:45+01:00</time>
      </trkpt>
      <trkpt lat="48.71945" lon="1.96768">
        <ele>174</ele>
        <time>2017-03-12T10:41:48+01:00</time>
      </trkpt>
      <trkpt lat="48.71942" lon="1.96771">
        <ele>174</ele>
        <time>2017-03-12T10:41:52+01:00</time>
      </trkpt>
      <trkpt lat="48.71939" lon="1.96775">
        <ele>174</ele>
        <time>2017-03-12T10:41:56+01:00</time>
      </trkpt>
      <trkpt lat="48.71937" lon="1.96779">
        <ele>170</ele>
        <time>2017-03-12T10:42:01+01:00</time>
      </trkpt>
      <trkpt lat="48.71934" lon="1.96782">
        <ele>169</ele>
        <time>2017-03-12T10:42:04+01:00</time>
      </trkpt>
      <trkpt lat="48.7193" lon="1.96786">
        <ele>167</ele>
        <time>2017-03-12T10:42:08+01:00</time>
      </trkpt>
      <trkpt lat="48.71926" lon="1.96791">
        <ele>167</ele>
        <time>2017-03-12T10:42:12+01:00</time>
      </trkpt>
      <trkpt lat="48.71924" lon="1.96796">
        <ele>169</ele>
        <time>2017-03-12T10:42:16+01:00</time>
      </trkpt>
      <trkpt lat="48.71922" lon="1.96797">
        <ele>171</ele>
        <time>2017-03-12T10:42:20+01:00</time>
      </trkpt>
      <trkpt lat="48.71922" lon="1.96801">
        <ele>172</ele>
        <time>2017-03-12T10:42:24+01:00</time>
      </trkpt>
      <trkpt lat="48.7192" lon="1.96803">
        <ele>173</ele>
        <time>2017-03-12T10:42:28+01:00</time>
      </trkpt>
      <trkpt lat="48.7192" lon="1.96807">
        <ele>174</ele>
        <time>2017-03-12T10:42:32+01:00</time>
      </trkpt>
      <trkpt lat="48.71919" lon="1.96811">
        <ele>175</ele>
        <time>2017-03-12T10:42:36+01:00</time>
      </trkpt>
      <trkpt lat="48.71919" lon="1.96813">
        <ele>175</ele>
        <time>2017-03-12T10:42:40+01:00</time>
      </trkpt>
      <trkpt lat="48.7192" lon="1.96814">
        <ele>173</ele>
        <time>2017-03-12T10:42:44+01:00</time>
      </trkpt>
      <trkpt lat="48.7192" lon="1.96817">
        <ele>173</ele>
        <time>2017-03-12T10:42:48+01:00</time>
      </trkpt>
      <trkpt lat="48.7192" lon="1.9682">
        <ele>172</ele>
        <time>2017-03-12T10:42:52+01:00</time>
      </trkpt>
      <trkpt lat="48.71921" lon="1.96823">
        <ele>170</ele>
        <time>2017-03-12T10:42:56+01:00</time>
      </trkpt>
      <trkpt lat="48.71923" lon="1.96826">
        <ele>170</ele>
        <time>2017-03-12T10:43:00+01:00</time>
      </trkpt>
      <trkpt lat="48.71923" lon="1.96832">
        <ele>173</ele>
        <time>2017-03-12T10:43:05+01:00</time>
      </trkpt>
      <trkpt lat="48.71926" lon="1.96836">
        <ele>171</ele>
        <time>2017-03-12T10:43:08+01:00</time>
      </trkpt>
      <trkpt lat="48.71929" lon="1.96839">
        <ele>169</ele>
        <time>2017-03-12T10:43:12+01:00</time>
      </trkpt>
      <trkpt lat="48.71932" lon="1.96841">
        <ele>169</ele>
        <time>2017-03-12T10:43:16+01:00</time>
      </trkpt>
      <trkpt lat="48.71936" lon="1.96841">
        <ele>168</ele>
        <time>2017-03-12T10:43:20+01:00</time>
      </trkpt>
      <trkpt lat="48.71942" lon="1.96842">
        <ele>168</ele>
        <time>2017-03-12T10:43:24+01:00</time>
      </trkpt>
      <trkpt lat="48.71949" lon="1.96841">
        <ele>170</ele>
        <time>2017-03-12T10:43:28+01:00</time>
      </trkpt>
      <trkpt lat="48.71953" lon="1.96841">
        <ele>171</ele>
        <time>2017-03-12T10:43:33+01:00</time>
      </trkpt>
      <trkpt lat="48.71956" lon="1.96842">
        <ele>170</ele>
        <time>2017-03-12T10:43:36+01:00</time>
      </trkpt>
      <trkpt lat="48.7196" lon="1.96843">
        <ele>173</ele>
        <time>2017-03-12T10:43:40+01:00</time>
      </trkpt>
      <trkpt lat="48.71964" lon="1.96842">
        <ele>175</ele>
        <time>2017-03-12T10:43:44+01:00</time>
      </trkpt>
      <trkpt lat="48.71969" lon="1.96844">
        <ele>175</ele>
        <time>2017-03-12T10:43:48+01:00</time>
      </trkpt>
      <trkpt lat="48.71975" lon="1.96845">
        <ele>173</ele>
        <time>2017-03-12T10:43:52+01:00</time>
      </trkpt>
      <trkpt lat="48.71981" lon="1.96846">
        <ele>175</ele>
        <time>2017-03-12T10:43:57+01:00</time>
      </trkpt>
      <trkpt lat="48.71986" lon="1.96845">
        <ele>176</ele>
        <time>2017-03-12T10:44:01+01:00</time>
      </trkpt>
      <trkpt lat="48.71992" lon="1.96844">
        <ele>176</ele>
        <time>2017-03-12T10:44:04+01:00</time>
      </trkpt>
      <trkpt lat="48.71998" lon="1.96843">
        <ele>175</ele>
        <time>2017-03-12T10:44:09+01:00</time>
      </trkpt>
      <trkpt lat="48.72003" lon="1.96843">
        <ele>174</ele>
        <time>2017-03-12T10:44:13+01:00</time>
      </trkpt>
      <trkpt lat="48.72005" lon="1.96844">
        <ele>174</ele>
        <time>2017-03-12T10:44:16+01:00</time>
      </trkpt>
      <trkpt lat="48.72008" lon="1.96843">
        <ele>175</ele>
        <time>2017-03-12T10:44:20+01:00</time>
      </trkpt>
      <trkpt lat="48.72011" lon="1.96843">
        <ele>176</ele>
        <time>2017-03-12T10:44:25+01:00</time>
      </trkpt>
      <trkpt lat="48.72016" lon="1.96841">
        <ele>176</ele>
        <time>2017-03-12T10:44:28+01:00</time>
      </trkpt>
      <trkpt lat="48.72022" lon="1.96838">
        <ele>174</ele>
        <time>2017-03-12T10:44:32+01:00</time>
      </trkpt>
      <trkpt lat="48.7203" lon="1.96837">
        <ele>174</ele>
        <time>2017-03-12T10:44:37+01:00</time>
      </trkpt>
      <trkpt lat="48.72036" lon="1.96837">
        <ele>174</ele>
        <time>2017-03-12T10:44:40+01:00</time>
      </trkpt>
      <trkpt lat="48.72041" lon="1.96835">
        <ele>175</ele>
        <time>2017-03-12T10:44:44+01:00</time>
      </trkpt>
      <trkpt lat="48.72047" lon="1.96831">
        <ele>174</ele>
        <time>2017-03-12T10:44:48+01:00</time>
      </trkpt>
      <trkpt lat="48.72054" lon="1.9683">
        <ele>174</ele>
        <time>2017-03-12T10:44:52+01:00</time>
      </trkpt>
      <trkpt lat="48.72059" lon="1.96827">
        <ele>175</ele>
        <time>2017-03-12T10:44:57+01:00</time>
      </trkpt>
      <trkpt lat="48.72064" lon="1.96823">
        <ele>176</ele>
        <time>2017-03-12T10:45:01+01:00</time>
      </trkpt>
      <trkpt lat="48.72071" lon="1.96822">
        <ele>176</ele>
        <time>2017-03-12T10:45:04+01:00</time>
      </trkpt>
      <trkpt lat="48.72077" lon="1.96821">
        <ele>178</ele>
        <time>2017-03-12T10:45:08+01:00</time>
      </trkpt>
      <trkpt lat="48.72082" lon="1.96817">
        <ele>179</ele>
        <time>2017-03-12T10:45:13+01:00</time>
      </trkpt>
      <trkpt lat="48.72085" lon="1.96813">
        <ele>180</ele>
        <time>2017-03-12T10:45:17+01:00</time>
      </trkpt>
      <trkpt lat="48.72086" lon="1.96808">
        <ele>180</ele>
        <time>2017-03-12T10:45:20+01:00</time>
      </trkpt>
      <trkpt lat="48.72089" lon="1.96804">
        <ele>184</ele>
        <time>2017-03-12T10:45:25+01:00</time>
      </trkpt>
      <trkpt lat="48.72089" lon="1.96798">
        <ele>183</ele>
        <time>2017-03-12T10:45:28+01:00</time>
      </trkpt>
      <trkpt lat="48.7209" lon="1.96793">
        <ele>185</ele>
        <time>2017-03-12T10:45:32+01:00</time>
      </trkpt>
      <trkpt lat="48.7209" lon="1.96789">
        <ele>186</ele>
        <time>2017-03-12T10:45:36+01:00</time>
      </trkpt>
      <trkpt lat="48.72092" lon="1.96783">
        <ele>185</ele>
        <time>2017-03-12T10:45:40+01:00</time>
      </trkpt>
      <trkpt lat="48.72091" lon="1.96778">
        <ele>187</ele>
        <time>2017-03-12T10:45:44+01:00</time>
      </trkpt>
      <trkpt lat="48.72091" lon="1.96772">
        <ele>184</ele>
        <time>2017-03-12T10:45:48+01:00</time>
      </trkpt>
      <trkpt lat="48.72091" lon="1.96765">
        <ele>184</ele>
        <time>2017-03-12T10:45:52+01:00</time>
      </trkpt>
      <trkpt lat="48.72089" lon="1.96759">
        <ele>183</ele>
        <time>2017-03-12T10:45:56+01:00</time>
      </trkpt>
      <trkpt lat="48.72086" lon="1.96754">
        <ele>185</ele>
        <time>2017-03-12T10:46:00+01:00</time>
      </trkpt>
      <trkpt lat="48.72084" lon="1.96748">
        <ele>183</ele>
        <time>2017-03-12T10:46:04+01:00</time>
      </trkpt>
      <trkpt lat="48.72084" lon="1.96743">
        <ele>183</ele>
        <time>2017-03-12T10:46:08+01:00</time>
      </trkpt>
      <trkpt lat="48.72084" lon="1.9674">
        <ele>183</ele>
        <time>2017-03-12T10:46:13+01:00</time>
      </trkpt>
      <trkpt lat="48.72084" lon="1.96734">
        <ele>181</ele>
        <time>2017-03-12T10:46:17+01:00</time>
      </trkpt>
      <trkpt lat="48.72084" lon="1.96732">
        <ele>180</ele>
        <time>2017-03-12T10:46:20+01:00</time>
      </trkpt>
      <trkpt lat="48.72084" lon="1.96732">
        <ele>180</ele>
        <time>2017-03-12T10:46:25+01:00</time>
      </trkpt>
      <trkpt lat="48.72083" lon="1.96728">
        <ele>176</ele>
        <time>2017-03-12T10:46:45+01:00</time>
      </trkpt>
      <trkpt lat="48.72082" lon="1.96726">
        <ele>176</ele>
        <time>2017-03-12T10:46:49+01:00</time>
      </trkpt>
      <trkpt lat="48.72082" lon="1.96723">
        <ele>177</ele>
        <time>2017-03-12T10:46:53+01:00</time>
      </trkpt>
      <trkpt lat="48.7208" lon="1.96719">
        <ele>178</ele>
        <time>2017-03-12T10:46:56+01:00</time>
      </trkpt>
      <trkpt lat="48.72078" lon="1.96715">
        <ele>178</ele>
        <time>2017-03-12T10:47:01+01:00</time>
      </trkpt>
      <trkpt lat="48.72075" lon="1.96711">
        <ele>179</ele>
        <time>2017-03-12T10:47:05+01:00</time>
      </trkpt>
      <trkpt lat="48.72072" lon="1.96706">
        <ele>181</ele>
        <time>2017-03-12T10:47:09+01:00</time>
      </trkpt>
      <trkpt lat="48.72069" lon="1.967">
        <ele>180</ele>
        <time>2017-03-12T10:47:13+01:00</time>
      </trkpt>
      <trkpt lat="48.72067" lon="1.96693">
        <ele>180</ele>
        <time>2017-03-12T10:47:17+01:00</time>
      </trkpt>
      <trkpt lat="48.72063" lon="1.96687">
        <ele>180</ele>
        <time>2017-03-12T10:47:21+01:00</time>
      </trkpt>
      <trkpt lat="48.72061" lon="1.96681">
        <ele>179</ele>
        <time>2017-03-12T10:47:24+01:00</time>
      </trkpt>
      <trkpt lat="48.72058" lon="1.96677">
        <ele>179</ele>
        <time>2017-03-12T10:47:29+01:00</time>
      </trkpt>
      <trkpt lat="48.72057" lon="1.96672">
        <ele>180</ele>
        <time>2017-03-12T10:47:32+01:00</time>
      </trkpt>
      <trkpt lat="48.72056" lon="1.96666">
        <ele>176</ele>
        <time>2017-03-12T10:47:36+01:00</time>
      </trkpt>
      <trkpt lat="48.72055" lon="1.96661">
        <ele>176</ele>
        <time>2017-03-12T10:47:40+01:00</time>
      </trkpt>
      <trkpt lat="48.72053" lon="1.96656">
        <ele>174</ele>
        <time>2017-03-12T10:47:45+01:00</time>
      </trkpt>
      <trkpt lat="48.7205" lon="1.96654">
        <ele>171</ele>
        <time>2017-03-12T10:47:48+01:00</time>
      </trkpt>
      <trkpt lat="48.7205" lon="1.96654">
        <ele>175</ele>
        <time>2017-03-12T10:47:53+01:00</time>
      </trkpt>
      <trkpt lat="48.72049" lon="1.96655">
        <ele>176</ele>
        <time>2017-03-12T10:47:57+01:00</time>
      </trkpt>
      <trkpt lat="48.72047" lon="1.96655">
        <ele>179</ele>
        <time>2017-03-12T10:48:01+01:00</time>
      </trkpt>
      <trkpt lat="48.72043" lon="1.96654">
        <ele>180</ele>
        <time>2017-03-12T10:48:05+01:00</time>
      </trkpt>
      <trkpt lat="48.72041" lon="1.96657">
        <ele>180</ele>
        <time>2017-03-12T10:48:10+01:00</time>
      </trkpt>
      <trkpt lat="48.72039" lon="1.96661">
        <ele>181</ele>
        <time>2017-03-12T10:48:14+01:00</time>
      </trkpt>
      <trkpt lat="48.72037" lon="1.96665">
        <ele>186</ele>
        <time>2017-03-12T10:48:18+01:00</time>
      </trkpt>
      <trkpt lat="48.72033" lon="1.96668">
        <ele>184</ele>
        <time>2017-03-12T10:48:22+01:00</time>
      </trkpt>
      <trkpt lat="48.72028" lon="1.96673">
        <ele>181</ele>
        <time>2017-03-12T10:48:26+01:00</time>
      </trkpt>
      <trkpt lat="48.72025" lon="1.96676">
        <ele>181</ele>
        <time>2017-03-12T10:48:30+01:00</time>
      </trkpt>
      <trkpt lat="48.72024" lon="1.96677">
        <ele>181</ele>
        <time>2017-03-12T10:48:34+01:00</time>
      </trkpt>
      <trkpt lat="48.72023" lon="1.96677">
        <ele>181</ele>
        <time>2017-03-12T10:48:37+01:00</time>
      </trkpt>
      <trkpt lat="48.72021" lon="1.96678">
        <ele>180</ele>
        <time>2017-03-12T10:48:42+01:00</time>
      </trkpt>
      <trkpt lat="48.72021" lon="1.96679">
        <ele>180</ele>
        <time>2017-03-12T10:48:46+01:00</time>
      </trkpt>
      <trkpt lat="48.72018" lon="1.96685">
        <ele>180</ele>
        <time>2017-03-12T10:48:54+01:00</time>
      </trkpt>
      <trkpt lat="48.72015" lon="1.9669">
        <ele>178</ele>
        <time>2017-03-12T10:48:58+01:00</time>
      </trkpt>
      <trkpt lat="48.72011" lon="1.96696">
        <ele>177</ele>
        <time>2017-03-12T10:49:02+01:00</time>
      </trkpt>
      <trkpt lat="48.72007" lon="1.96701">
        <ele>177</ele>
        <time>2017-03-12T10:49:06+01:00</time>
      </trkpt>
      <trkpt lat="48.72" lon="1.96707">
        <ele>173</ele>
        <time>2017-03-12T10:49:09+01:00</time>
      </trkpt>
      <trkpt lat="48.71998" lon="1.9671">
        <ele>172</ele>
        <time>2017-03-12T10:49:14+01:00</time>
      </trkpt>
      <trkpt lat="48.71996" lon="1.96713">
        <ele>174</ele>
        <time>2017-03-12T10:49:18+01:00</time>
      </trkpt>
      <trkpt lat="48.71992" lon="1.9672">
        <ele>176</ele>
        <time>2017-03-12T10:49:22+01:00</time>
      </trkpt>
      <trkpt lat="48.71988" lon="1.96727">
        <ele>177</ele>
        <time>2017-03-12T10:49:26+01:00</time>
      </trkpt>
      <trkpt lat="48.71984" lon="1.96734">
        <ele>175</ele>
        <time>2017-03-12T10:49:30+01:00</time>
      </trkpt>
      <trkpt lat="48.71982" lon="1.96743">
        <ele>175</ele>
        <time>2017-03-12T10:49:33+01:00</time>
      </trkpt>
      <trkpt lat="48.7198" lon="1.9675">
        <ele>173</ele>
        <time>2017-03-12T10:49:37+01:00</time>
      </trkpt>
      <trkpt lat="48.71977" lon="1.96757">
        <ele>175</ele>
        <time>2017-03-12T10:49:41+01:00</time>
      </trkpt>
      <trkpt lat="48.71975" lon="1.96764">
        <ele>174</ele>
        <time>2017-03-12T10:49:45+01:00</time>
      </trkpt>
      <trkpt lat="48.71972" lon="1.96769">
        <ele>175</ele>
        <time>2017-03-12T10:49:50+01:00</time>
      </trkpt>
      <trkpt lat="48.71968" lon="1.96771">
        <ele>174</ele>
        <time>2017-03-12T10:49:54+01:00</time>
      </trkpt>
      <trkpt lat="48.71964" lon="1.96772">
        <ele>175</ele>
        <time>2017-03-12T10:49:58+01:00</time>
      </trkpt>
      <trkpt lat="48.71962" lon="1.96775">
        <ele>174</ele>
        <time>2017-03-12T10:50:02+01:00</time>
      </trkpt>
      <trkpt lat="48.7196" lon="1.96777">
        <ele>174</ele>
        <time>2017-03-12T10:50:06+01:00</time>
      </trkpt>
      <trkpt lat="48.71957" lon="1.96779">
        <ele>172</ele>
        <time>2017-03-12T10:50:10+01:00</time>
      </trkpt>
      <trkpt lat="48.71952" lon="1.96781">
        <ele>171</ele>
        <time>2017-03-12T10:50:13+01:00</time>
      </trkpt>
      <trkpt lat="48.71947" lon="1.96781">
        <ele>173</ele>
        <time>2017-03-12T10:50:18+01:00</time>
      </trkpt>
      <trkpt lat="48.71943" lon="1.96783">
        <ele>172</ele>
        <time>2017-03-12T10:50:22+01:00</time>
      </trkpt>
      <trkpt lat="48.71938" lon="1.96784">
        <ele>169</ele>
        <time>2017-03-12T10:50:26+01:00</time>
      </trkpt>
      <trkpt lat="48.71934" lon="1.96784">
        <ele>168</ele>
        <time>2017-03-12T10:50:30+01:00</time>
      </trkpt>
      <trkpt lat="48.71934" lon="1.96784">
        <ele>168</ele>
        <time>2017-03-12T10:50:34+01:00</time>
      </trkpt>
      <trkpt lat="48.7193" lon="1.96784">
        <ele>166</ele>
        <time>2017-03-12T10:50:45+01:00</time>
      </trkpt>
      <trkpt lat="48.71928" lon="1.96787">
        <ele>163</ele>
        <time>2017-03-12T10:50:50+01:00</time>
      </trkpt>
      <trkpt lat="48.71923" lon="1.96787">
        <ele>162</ele>
        <time>2017-03-12T10:50:54+01:00</time>
      </trkpt>
      <trkpt lat="48.71921" lon="1.96789">
        <ele>166</ele>
        <time>2017-03-12T10:50:58+01:00</time>
      </trkpt>
      <trkpt lat="48.7192" lon="1.96792">
        <ele>165</ele>
        <time>2017-03-12T10:51:02+01:00</time>
      </trkpt>
      <trkpt lat="48.71919" lon="1.96794">
        <ele>164</ele>
        <time>2017-03-12T10:51:06+01:00</time>
      </trkpt>
      <trkpt lat="48.7192" lon="1.96797">
        <ele>162</ele>
        <time>2017-03-12T10:51:14+01:00</time>
      </trkpt>
      <trkpt lat="48.71918" lon="1.96802">
        <ele>162</ele>
        <time>2017-03-12T10:51:17+01:00</time>
      </trkpt>
      <trkpt lat="48.71917" lon="1.96807">
        <ele>161</ele>
        <time>2017-03-12T10:51:22+01:00</time>
      </trkpt>
      <trkpt lat="48.71916" lon="1.96814">
        <ele>162</ele>
        <time>2017-03-12T10:51:26+01:00</time>
      </trkpt>
      <trkpt lat="48.71914" lon="1.96821">
        <ele>164</ele>
        <time>2017-03-12T10:51:29+01:00</time>
      </trkpt>
      <trkpt lat="48.71911" lon="1.96827">
        <ele>165</ele>
        <time>2017-03-12T10:51:34+01:00</time>
      </trkpt>
      <trkpt lat="48.71911" lon="1.96829">
        <ele>164</ele>
        <time>2017-03-12T10:51:37+01:00</time>
      </trkpt>
      <trkpt lat="48.71907" lon="1.96833">
        <ele>163</ele>
        <time>2017-03-12T10:51:42+01:00</time>
      </trkpt>
      <trkpt lat="48.71903" lon="1.96839">
        <ele>162</ele>
        <time>2017-03-12T10:51:45+01:00</time>
      </trkpt>
      <trkpt lat="48.71899" lon="1.96844">
        <ele>163</ele>
        <time>2017-03-12T10:51:49+01:00</time>
      </trkpt>
      <trkpt lat="48.71897" lon="1.96847">
        <ele>163</ele>
        <time>2017-03-12T10:51:54+01:00</time>
      </trkpt>
      <trkpt lat="48.71896" lon="1.96848">
        <ele>163</ele>
        <time>2017-03-12T10:51:57+01:00</time>
      </trkpt>
      <trkpt lat="48.71895" lon="1.9685">
        <ele>164</ele>
        <time>2017-03-12T10:52:02+01:00</time>
      </trkpt>
      <trkpt lat="48.71894" lon="1.96855">
        <ele>163</ele>
        <time>2017-03-12T10:52:06+01:00</time>
      </trkpt>
      <trkpt lat="48.71895" lon="1.9686">
        <ele>162</ele>
        <time>2017-03-12T10:52:10+01:00</time>
      </trkpt>
      <trkpt lat="48.71895" lon="1.96864">
        <ele>160</ele>
        <time>2017-03-12T10:52:14+01:00</time>
      </trkpt>
      <trkpt lat="48.71893" lon="1.96871">
        <ele>154</ele>
        <time>2017-03-12T10:52:18+01:00</time>
      </trkpt>
      <trkpt lat="48.71893" lon="1.9688">
        <ele>153</ele>
        <time>2017-03-12T10:52:22+01:00</time>
      </trkpt>
      <trkpt lat="48.71893" lon="1.96883">
        <ele>153</ele>
        <time>2017-03-12T10:52:26+01:00</time>
      </trkpt>
      <trkpt lat="48.71892" lon="1.96885">
        <ele>152</ele>
        <time>2017-03-12T10:52:30+01:00</time>
      </trkpt>
      <trkpt lat="48.7189" lon="1.96887">
        <ele>150</ele>
        <time>2017-03-12T10:52:34+01:00</time>
      </trkpt>
      <trkpt lat="48.71888" lon="1.96888">
        <ele>150</ele>
        <time>2017-03-12T10:52:37+01:00</time>
      </trkpt>
      <trkpt lat="48.71885" lon="1.96891">
        <ele>149</ele>
        <time>2017-03-12T10:52:42+01:00</time>
      </trkpt>
      <trkpt lat="48.71884" lon="1.96892">
        <ele>149</ele>
        <time>2017-03-12T10:52:46+01:00</time>
      </trkpt>
      <trkpt lat="48.71884" lon="1.96893">
        <ele>150</ele>
        <time>2017-03-12T10:52:49+01:00</time>
      </trkpt>
      <trkpt lat="48.71883" lon="1.96894">
        <ele>149</ele>
        <time>2017-03-12T10:52:54+01:00</time>
      </trkpt>
      <trkpt lat="48.71882" lon="1.96896">
        <ele>149</ele>
        <time>2017-03-12T10:52:57+01:00</time>
      </trkpt>
      <trkpt lat="48.7188" lon="1.96897">
        <ele>148</ele>
        <time>2017-03-12T10:53:01+01:00</time>
      </trkpt>
      <trkpt lat="48.71879" lon="1.96898">
        <ele>148</ele>
        <time>2017-03-12T10:53:05+01:00</time>
      </trkpt>
      <trkpt lat="48.71876" lon="1.96898">
        <ele>147</ele>
        <time>2017-03-12T10:53:09+01:00</time>
      </trkpt>
      <trkpt lat="48.7187" lon="1.96899">
        <ele>147</ele>
        <time>2017-03-12T10:53:13+01:00</time>
      </trkpt>
      <trkpt lat="48.71865" lon="1.96898">
        <ele>146</ele>
        <time>2017-03-12T10:53:18+01:00</time>
      </trkpt>
      <trkpt lat="48.71861" lon="1.96898">
        <ele>145</ele>
        <time>2017-03-12T10:53:22+01:00</time>
      </trkpt>
      <trkpt lat="48.71858" lon="1.96899">
        <ele>143</ele>
        <time>2017-03-12T10:53:25+01:00</time>
      </trkpt>
      <trkpt lat="48.71856" lon="1.969">
        <ele>143</ele>
        <time>2017-03-12T10:53:30+01:00</time>
      </trkpt>
      <trkpt lat="48.71856" lon="1.969">
        <ele>142</ele>
        <time>2017-03-12T10:53:33+01:00</time>
      </trkpt>
      <trkpt lat="48.71853" lon="1.96899">
        <ele>139</ele>
        <time>2017-03-12T10:53:37+01:00</time>
      </trkpt>
      <trkpt lat="48.71849" lon="1.96895">
        <ele>139</ele>
        <time>2017-03-12T10:53:41+01:00</time>
      </trkpt>
      <trkpt lat="48.71847" lon="1.9689">
        <ele>139</ele>
        <time>2017-03-12T10:53:45+01:00</time>
      </trkpt>
      <trkpt lat="48.71844" lon="1.96887">
        <ele>138</ele>
        <time>2017-03-12T10:53:49+01:00</time>
      </trkpt>
      <trkpt lat="48.71841" lon="1.96886">
        <ele>137</ele>
        <time>2017-03-12T10:53:54+01:00</time>
      </trkpt>
      <trkpt lat="48.71839" lon="1.96883">
        <ele>136</ele>
        <time>2017-03-12T10:53:57+01:00</time>
      </trkpt>
      <trkpt lat="48.71836" lon="1.96879">
        <ele>135</ele>
        <time>2017-03-12T10:54:02+01:00</time>
      </trkpt>
      <trkpt lat="48.71835" lon="1.96873">
        <ele>133</ele>
        <time>2017-03-12T10:54:06+01:00</time>
      </trkpt>
      <trkpt lat="48.71834" lon="1.96871">
        <ele>134</ele>
        <time>2017-03-12T10:54:10+01:00</time>
      </trkpt>
      <trkpt lat="48.7183" lon="1.96872">
        <ele>135</ele>
        <time>2017-03-12T10:54:14+01:00</time>
      </trkpt>
      <trkpt lat="48.71829" lon="1.96872">
        <ele>136</ele>
        <time>2017-03-12T10:54:18+01:00</time>
      </trkpt>
      <trkpt lat="48.7183" lon="1.96866">
        <ele>136</ele>
        <time>2017-03-12T10:54:29+01:00</time>
      </trkpt>
      <trkpt lat="48.7183" lon="1.96865">
        <ele>136</ele>
        <time>2017-03-12T10:54:34+01:00</time>
      </trkpt>
      <trkpt lat="48.71827" lon="1.96865">
        <ele>133</ele>
        <time>2017-03-12T10:54:37+01:00</time>
      </trkpt>
      <trkpt lat="48.71823" lon="1.96864">
        <ele>132</ele>
        <time>2017-03-12T10:54:41+01:00</time>
      </trkpt>
      <trkpt lat="48.71821" lon="1.96859">
        <ele>130</ele>
        <time>2017-03-12T10:54:45+01:00</time>
      </trkpt>
      <trkpt lat="48.71821" lon="1.96855">
        <ele>129</ele>
        <time>2017-03-12T10:54:49+01:00</time>
      </trkpt>
      <trkpt lat="48.71821" lon="1.96852">
        <ele>129</ele>
        <time>2017-03-12T10:54:54+01:00</time>
      </trkpt>
      <trkpt lat="48.71814" lon="1.96849">
        <ele>123</ele>
        <time>2017-03-12T10:55:09+01:00</time>
      </trkpt>
      <trkpt lat="48.71812" lon="1.96846">
        <ele>120</ele>
        <time>2017-03-12T10:55:14+01:00</time>
      </trkpt>
      <trkpt lat="48.71811" lon="1.96842">
        <ele>119</ele>
        <time>2017-03-12T10:55:17+01:00</time>
      </trkpt>
      <trkpt lat="48.71802" lon="1.96843">
        <ele>112</ele>
        <time>2017-03-12T10:55:41+01:00</time>
      </trkpt>
      <trkpt lat="48.71797" lon="1.96846">
        <ele>113</ele>
        <time>2017-03-12T10:55:46+01:00</time>
      </trkpt>
      <trkpt lat="48.71793" lon="1.96851">
        <ele>117</ele>
        <time>2017-03-12T10:55:49+01:00</time>
      </trkpt>
      <trkpt lat="48.71788" lon="1.96856">
        <ele>121</ele>
        <time>2017-03-12T10:55:54+01:00</time>
      </trkpt>
      <trkpt lat="48.71784" lon="1.96862">
        <ele>122</ele>
        <time>2017-03-12T10:55:57+01:00</time>
      </trkpt>
      <trkpt lat="48.71782" lon="1.96867">
        <ele>122</ele>
        <time>2017-03-12T10:56:02+01:00</time>
      </trkpt>
      <trkpt lat="48.7178" lon="1.96874">
        <ele>122</ele>
        <time>2017-03-12T10:56:05+01:00</time>
      </trkpt>
      <trkpt lat="48.71778" lon="1.9688">
        <ele>123</ele>
        <time>2017-03-12T10:56:10+01:00</time>
      </trkpt>
      <trkpt lat="48.71776" lon="1.96887">
        <ele>121</ele>
        <time>2017-03-12T10:56:14+01:00</time>
      </trkpt>
      <trkpt lat="48.71776" lon="1.96894">
        <ele>120</ele>
        <time>2017-03-12T10:56:18+01:00</time>
      </trkpt>
      <trkpt lat="48.71774" lon="1.96898">
        <ele>118</ele>
        <time>2017-03-12T10:56:22+01:00</time>
      </trkpt>
      <trkpt lat="48.71772" lon="1.96907">
        <ele>117</ele>
        <time>2017-03-12T10:56:38+01:00</time>
      </trkpt>
      <trkpt lat="48.71768" lon="1.96911">
        <ele>114</ele>
        <time>2017-03-12T10:56:42+01:00</time>
      </trkpt>
      <trkpt lat="48.71766" lon="1.96913">
        <ele>114</ele>
        <time>2017-03-12T10:56:45+01:00</time>
      </trkpt>
      <trkpt lat="48.71764" lon="1.96924">
        <ele>120</ele>
        <time>2017-03-12T10:56:58+01:00</time>
      </trkpt>
      <trkpt lat="48.71761" lon="1.96928">
        <ele>122</ele>
        <time>2017-03-12T10:57:01+01:00</time>
      </trkpt>
      <trkpt lat="48.7176" lon="1.96935">
        <ele>123</ele>
        <time>2017-03-12T10:57:05+01:00</time>
      </trkpt>
      <trkpt lat="48.71759" lon="1.96941">
        <ele>123</ele>
        <time>2017-03-12T10:57:09+01:00</time>
      </trkpt>
      <trkpt lat="48.71756" lon="1.96947">
        <ele>125</ele>
        <time>2017-03-12T10:57:13+01:00</time>
      </trkpt>
      <trkpt lat="48.71756" lon="1.96955">
        <ele>126</ele>
        <time>2017-03-12T10:57:18+01:00</time>
      </trkpt>
      <trkpt lat="48.71754" lon="1.96961">
        <ele>126</ele>
        <time>2017-03-12T10:57:21+01:00</time>
      </trkpt>
      <trkpt lat="48.71754" lon="1.96967">
        <ele>125</ele>
        <time>2017-03-12T10:57:26+01:00</time>
      </trkpt>
      <trkpt lat="48.71755" lon="1.96969">
        <ele>124</ele>
        <time>2017-03-12T10:57:30+01:00</time>
      </trkpt>
      <trkpt lat="48.71754" lon="1.96982">
        <ele>120</ele>
        <time>2017-03-12T10:57:45+01:00</time>
      </trkpt>
      <trkpt lat="48.71755" lon="1.96989">
        <ele>119</ele>
        <time>2017-03-12T10:57:50+01:00</time>
      </trkpt>
      <trkpt lat="48.71753" lon="1.96992">
        <ele>117</ele>
        <time>2017-03-12T10:57:54+01:00</time>
      </trkpt>
      <trkpt lat="48.7175" lon="1.96996">
        <ele>115</ele>
        <time>2017-03-12T10:58:01+01:00</time>
      </trkpt>
      <trkpt lat="48.71747" lon="1.97001">
        <ele>114</ele>
        <time>2017-03-12T10:58:06+01:00</time>
      </trkpt>
      <trkpt lat="48.71742" lon="1.97006">
        <ele>110</ele>
        <time>2017-03-12T10:58:09+01:00</time>
      </trkpt>
      <trkpt lat="48.71741" lon="1.97009">
        <ele>109</ele>
        <time>2017-03-12T10:58:29+01:00</time>
      </trkpt>
      <trkpt lat="48.7174" lon="1.97014">
        <ele>114</ele>
        <time>2017-03-12T10:58:34+01:00</time>
      </trkpt>
      <trkpt lat="48.7174" lon="1.97018">
        <ele>115</ele>
        <time>2017-03-12T10:58:37+01:00</time>
      </trkpt>
      <trkpt lat="48.71741" lon="1.97019">
        <ele>118</ele>
        <time>2017-03-12T10:59:10+01:00</time>
      </trkpt>
      <trkpt lat="48.7174" lon="1.97021">
        <ele>118</ele>
        <time>2017-03-12T10:59:13+01:00</time>
      </trkpt>
      <trkpt lat="48.71739" lon="1.97025">
        <ele>117</ele>
        <time>2017-03-12T10:59:17+01:00</time>
      </trkpt>
      <trkpt lat="48.71741" lon="1.97029">
        <ele>117</ele>
        <time>2017-03-12T10:59:21+01:00</time>
      </trkpt>
      <trkpt lat="48.7174" lon="1.97031">
        <ele>117</ele>
        <time>2017-03-12T10:59:26+01:00</time>
      </trkpt>
      <trkpt lat="48.7174" lon="1.97033">
        <ele>118</ele>
        <time>2017-03-12T10:59:29+01:00</time>
      </trkpt>
      <trkpt lat="48.71738" lon="1.97039">
        <ele>119</ele>
        <time>2017-03-12T10:59:33+01:00</time>
      </trkpt>
      <trkpt lat="48.71738" lon="1.97047">
        <ele>117</ele>
        <time>2017-03-12T10:59:37+01:00</time>
      </trkpt>
      <trkpt lat="48.71738" lon="1.97054">
        <ele>118</ele>
        <time>2017-03-12T10:59:41+01:00</time>
      </trkpt>
      <trkpt lat="48.71735" lon="1.9706">
        <ele>119</ele>
        <time>2017-03-12T10:59:45+01:00</time>
      </trkpt>
      <trkpt lat="48.71734" lon="1.97068">
        <ele>122</ele>
        <time>2017-03-12T10:59:49+01:00</time>
      </trkpt>
      <trkpt lat="48.71733" lon="1.97075">
        <ele>124</ele>
        <time>2017-03-12T10:59:54+01:00</time>
      </trkpt>
      <trkpt lat="48.71732" lon="1.97081">
        <ele>127</ele>
        <time>2017-03-12T10:59:57+01:00</time>
      </trkpt>
      <trkpt lat="48.71731" lon="1.97087">
        <ele>129</ele>
        <time>2017-03-12T11:00:02+01:00</time>
      </trkpt>
      <trkpt lat="48.71731" lon="1.97094">
        <ele>130</ele>
        <time>2017-03-12T11:00:05+01:00</time>
      </trkpt>
      <trkpt lat="48.7173" lon="1.971">
        <ele>133</ele>
        <time>2017-03-12T11:00:10+01:00</time>
      </trkpt>
      <trkpt lat="48.7173" lon="1.97107">
        <ele>134</ele>
        <time>2017-03-12T11:00:14+01:00</time>
      </trkpt>
      <trkpt lat="48.71727" lon="1.97114">
        <ele>135</ele>
        <time>2017-03-12T11:00:18+01:00</time>
      </trkpt>
      <trkpt lat="48.71725" lon="1.97121">
        <ele>136</ele>
        <time>2017-03-12T11:00:21+01:00</time>
      </trkpt>
      <trkpt lat="48.71724" lon="1.97127">
        <ele>137</ele>
        <time>2017-03-12T11:00:25+01:00</time>
      </trkpt>
      <trkpt lat="48.71722" lon="1.97134">
        <ele>137</ele>
        <time>2017-03-12T11:00:30+01:00</time>
      </trkpt>
      <trkpt lat="48.71721" lon="1.9714">
        <ele>134</ele>
        <time>2017-03-12T11:00:33+01:00</time>
      </trkpt>
      <trkpt lat="48.71719" lon="1.97147">
        <ele>133</ele>
        <time>2017-03-12T11:00:38+01:00</time>
      </trkpt>
      <trkpt lat="48.71716" lon="1.97153">
        <ele>135</ele>
        <time>2017-03-12T11:00:42+01:00</time>
      </trkpt>
      <trkpt lat="48.71715" lon="1.9716">
        <ele>137</ele>
        <time>2017-03-12T11:00:46+01:00</time>
      </trkpt>
      <trkpt lat="48.71712" lon="1.97165">
        <ele>137</ele>
        <time>2017-03-12T11:00:50+01:00</time>
      </trkpt>
      <trkpt lat="48.71711" lon="1.97172">
        <ele>136</ele>
        <time>2017-03-12T11:00:54+01:00</time>
      </trkpt>
      <trkpt lat="48.71709" lon="1.97179">
        <ele>135</ele>
        <time>2017-03-12T11:00:58+01:00</time>
      </trkpt>
      <trkpt lat="48.71707" lon="1.97187">
        <ele>136</ele>
        <time>2017-03-12T11:01:01+01:00</time>
      </trkpt>
      <trkpt lat="48.71706" lon="1.97194">
        <ele>137</ele>
        <time>2017-03-12T11:01:06+01:00</time>
      </trkpt>
      <trkpt lat="48.71705" lon="1.97199">
        <ele>137</ele>
        <time>2017-03-12T11:01:09+01:00</time>
      </trkpt>
      <trkpt lat="48.71703" lon="1.97205">
        <ele>136</ele>
        <time>2017-03-12T11:01:13+01:00</time>
      </trkpt>
      <trkpt lat="48.717" lon="1.97211">
        <ele>136</ele>
        <time>2017-03-12T11:01:18+01:00</time>
      </trkpt>
      <trkpt lat="48.71699" lon="1.97219">
        <ele>138</ele>
        <time>2017-03-12T11:01:21+01:00</time>
      </trkpt>
      <trkpt lat="48.71698" lon="1.97228">
        <ele>137</ele>
        <time>2017-03-12T11:01:26+01:00</time>
      </trkpt>
      <trkpt lat="48.71694" lon="1.97236">
        <ele>135</ele>
        <time>2017-03-12T11:01:29+01:00</time>
      </trkpt>
      <trkpt lat="48.71693" lon="1.97245">
        <ele>133</ele>
        <time>2017-03-12T11:01:33+01:00</time>
      </trkpt>
      <trkpt lat="48.71692" lon="1.97253">
        <ele>134</ele>
        <time>2017-03-12T11:01:38+01:00</time>
      </trkpt>
      <trkpt lat="48.71692" lon="1.97262">
        <ele>132</ele>
        <time>2017-03-12T11:01:41+01:00</time>
      </trkpt>
      <trkpt lat="48.71692" lon="1.97269">
        <ele>132</ele>
        <time>2017-03-12T11:01:46+01:00</time>
      </trkpt>
      <trkpt lat="48.71692" lon="1.97277">
        <ele>131</ele>
        <time>2017-03-12T11:01:49+01:00</time>
      </trkpt>
      <trkpt lat="48.71692" lon="1.97285">
        <ele>129</ele>
        <time>2017-03-12T11:01:54+01:00</time>
      </trkpt>
      <trkpt lat="48.7169" lon="1.97293">
        <ele>128</ele>
        <time>2017-03-12T11:01:57+01:00</time>
      </trkpt>
      <trkpt lat="48.71688" lon="1.973">
        <ele>130</ele>
        <time>2017-03-12T11:02:01+01:00</time>
      </trkpt>
      <trkpt lat="48.71685" lon="1.97306">
        <ele>132</ele>
        <time>2017-03-12T11:02:06+01:00</time>
      </trkpt>
      <trkpt lat="48.71683" lon="1.97313">
        <ele>133</ele>
        <time>2017-03-12T11:02:09+01:00</time>
      </trkpt>
      <trkpt lat="48.71685" lon="1.97321">
        <ele>131</ele>
        <time>2017-03-12T11:02:14+01:00</time>
      </trkpt>
      <trkpt lat="48.71685" lon="1.97329">
        <ele>133</ele>
        <time>2017-03-12T11:02:18+01:00</time>
      </trkpt>
      <trkpt lat="48.71684" lon="1.97338">
        <ele>135</ele>
        <time>2017-03-12T11:02:22+01:00</time>
      </trkpt>
      <trkpt lat="48.71681" lon="1.97345">
        <ele>133</ele>
        <time>2017-03-12T11:02:25+01:00</time>
      </trkpt>
      <trkpt lat="48.7168" lon="1.97355">
        <ele>129</ele>
        <time>2017-03-12T11:02:30+01:00</time>
      </trkpt>
      <trkpt lat="48.71676" lon="1.97361">
        <ele>128</ele>
        <time>2017-03-12T11:02:33+01:00</time>
      </trkpt>
      <trkpt lat="48.71671" lon="1.97366">
        <ele>127</ele>
        <time>2017-03-12T11:02:37+01:00</time>
      </trkpt>
      <trkpt lat="48.71669" lon="1.97368">
        <ele>127</ele>
        <time>2017-03-12T11:02:42+01:00</time>
      </trkpt>
      <trkpt lat="48.71668" lon="1.97373">
        <ele>127</ele>
        <time>2017-03-12T11:02:45+01:00</time>
      </trkpt>
      <trkpt lat="48.71667" lon="1.97379">
        <ele>129</ele>
        <time>2017-03-12T11:02:50+01:00</time>
      </trkpt>
      <trkpt lat="48.71666" lon="1.97387">
        <ele>129</ele>
        <time>2017-03-12T11:02:54+01:00</time>
      </trkpt>
      <trkpt lat="48.71663" lon="1.97392">
        <ele>130</ele>
        <time>2017-03-12T11:02:58+01:00</time>
      </trkpt>
      <trkpt lat="48.71663" lon="1.97397">
        <ele>131</ele>
        <time>2017-03-12T11:03:02+01:00</time>
      </trkpt>
      <trkpt lat="48.71662" lon="1.97406">
        <ele>134</ele>
        <time>2017-03-12T11:03:33+01:00</time>
      </trkpt>
      <trkpt lat="48.71659" lon="1.97411">
        <ele>131</ele>
        <time>2017-03-12T11:03:38+01:00</time>
      </trkpt>
      <trkpt lat="48.71656" lon="1.97418">
        <ele>131</ele>
        <time>2017-03-12T11:03:41+01:00</time>
      </trkpt>
      <trkpt lat="48.71655" lon="1.97421">
        <ele>133</ele>
        <time>2017-03-12T11:03:45+01:00</time>
      </trkpt>
      <trkpt lat="48.71653" lon="1.97425">
        <ele>133</ele>
        <time>2017-03-12T11:03:49+01:00</time>
      </trkpt>
      <trkpt lat="48.7165" lon="1.97431">
        <ele>129</ele>
        <time>2017-03-12T11:03:53+01:00</time>
      </trkpt>
      <trkpt lat="48.71645" lon="1.97438">
        <ele>129</ele>
        <time>2017-03-12T11:03:58+01:00</time>
      </trkpt>
      <trkpt lat="48.71641" lon="1.97444">
        <ele>128</ele>
        <time>2017-03-12T11:04:01+01:00</time>
      </trkpt>
      <trkpt lat="48.71638" lon="1.9745">
        <ele>129</ele>
        <time>2017-03-12T11:04:06+01:00</time>
      </trkpt>
      <trkpt lat="48.71632" lon="1.97455">
        <ele>128</ele>
        <time>2017-03-12T11:04:09+01:00</time>
      </trkpt>
      <trkpt lat="48.71629" lon="1.97462">
        <ele>128</ele>
        <time>2017-03-12T11:04:13+01:00</time>
      </trkpt>
      <trkpt lat="48.71627" lon="1.97464">
        <ele>130</ele>
        <time>2017-03-12T11:04:18+01:00</time>
      </trkpt>
      <trkpt lat="48.71623" lon="1.97468">
        <ele>130</ele>
        <time>2017-03-12T11:04:22+01:00</time>
      </trkpt>
      <trkpt lat="48.71619" lon="1.97473">
        <ele>133</ele>
        <time>2017-03-12T11:04:26+01:00</time>
      </trkpt>
      <trkpt lat="48.71617" lon="1.97478">
        <ele>135</ele>
        <time>2017-03-12T11:04:30+01:00</time>
      </trkpt>
      <trkpt lat="48.71614" lon="1.97485">
        <ele>134</ele>
        <time>2017-03-12T11:04:33+01:00</time>
      </trkpt>
      <trkpt lat="48.71609" lon="1.97493">
        <ele>126</ele>
        <time>2017-03-12T11:04:38+01:00</time>
      </trkpt>
      <trkpt lat="48.71605" lon="1.97501">
        <ele>124</ele>
        <time>2017-03-12T11:04:42+01:00</time>
      </trkpt>
      <trkpt lat="48.71599" lon="1.97503">
        <ele>124</ele>
        <time>2017-03-12T11:04:46+01:00</time>
      </trkpt>
      <trkpt lat="48.71597" lon="1.97507">
        <ele>123</ele>
        <time>2017-03-12T11:04:49+01:00</time>
      </trkpt>
      <trkpt lat="48.71595" lon="1.9751">
        <ele>123</ele>
        <time>2017-03-12T11:04:54+01:00</time>
      </trkpt>
      <trkpt lat="48.71594" lon="1.97514">
        <ele>123</ele>
        <time>2017-03-12T11:04:58+01:00</time>
      </trkpt>
      <trkpt lat="48.71593" lon="1.97516">
        <ele>122</ele>
        <time>2017-03-12T11:05:02+01:00</time>
      </trkpt>
      <trkpt lat="48.71591" lon="1.97521">
        <ele>124</ele>
        <time>2017-03-12T11:05:06+01:00</time>
      </trkpt>
      <trkpt lat="48.71588" lon="1.97528">
        <ele>121</ele>
        <time>2017-03-12T11:05:09+01:00</time>
      </trkpt>
      <trkpt lat="48.71587" lon="1.97532">
        <ele>122</ele>
        <time>2017-03-12T11:05:13+01:00</time>
      </trkpt>
      <trkpt lat="48.71586" lon="1.97538">
        <ele>120</ele>
        <time>2017-03-12T11:05:18+01:00</time>
      </trkpt>
      <trkpt lat="48.71584" lon="1.97543">
        <ele>120</ele>
        <time>2017-03-12T11:05:22+01:00</time>
      </trkpt>
      <trkpt lat="48.71582" lon="1.97548">
        <ele>119</ele>
        <time>2017-03-12T11:05:25+01:00</time>
      </trkpt>
      <trkpt lat="48.71578" lon="1.9755">
        <ele>121</ele>
        <time>2017-03-12T11:05:29+01:00</time>
      </trkpt>
      <trkpt lat="48.71573" lon="1.97555">
        <ele>118</ele>
        <time>2017-03-12T11:05:34+01:00</time>
      </trkpt>
      <trkpt lat="48.7157" lon="1.97561">
        <ele>118</ele>
        <time>2017-03-12T11:05:37+01:00</time>
      </trkpt>
      <trkpt lat="48.71569" lon="1.97565">
        <ele>117</ele>
        <time>2017-03-12T11:05:41+01:00</time>
      </trkpt>
      <trkpt lat="48.71565" lon="1.97569">
        <ele>118</ele>
        <time>2017-03-12T11:05:46+01:00</time>
      </trkpt>
      <trkpt lat="48.7156" lon="1.9757">
        <ele>117</ele>
        <time>2017-03-12T11:05:49+01:00</time>
      </trkpt>
      <trkpt lat="48.71557" lon="1.97573">
        <ele>118</ele>
        <time>2017-03-12T11:05:53+01:00</time>
      </trkpt>
      <trkpt lat="48.71554" lon="1.97577">
        <ele>120</ele>
        <time>2017-03-12T11:05:58+01:00</time>
      </trkpt>
      <trkpt lat="48.71553" lon="1.97584">
        <ele>118</ele>
        <time>2017-03-12T11:06:01+01:00</time>
      </trkpt>
      <trkpt lat="48.71557" lon="1.9759">
        <ele>120</ele>
        <time>2017-03-12T11:06:05+01:00</time>
      </trkpt>
      <trkpt lat="48.71557" lon="1.97593">
        <ele>120</ele>
        <time>2017-03-12T11:06:09+01:00</time>
      </trkpt>
      <trkpt lat="48.71556" lon="1.97598">
        <ele>120</ele>
        <time>2017-03-12T11:06:14+01:00</time>
      </trkpt>
      <trkpt lat="48.71555" lon="1.97599">
        <ele>118</ele>
        <time>2017-03-12T11:06:18+01:00</time>
      </trkpt>
      <trkpt lat="48.71554" lon="1.97602">
        <ele>117</ele>
        <time>2017-03-12T11:06:21+01:00</time>
      </trkpt>
      <trkpt lat="48.71555" lon="1.97606">
        <ele>117</ele>
        <time>2017-03-12T11:06:26+01:00</time>
      </trkpt>
      <trkpt lat="48.71553" lon="1.97609">
        <ele>119</ele>
        <time>2017-03-12T11:06:30+01:00</time>
      </trkpt>
      <trkpt lat="48.7155" lon="1.97611">
        <ele>117</ele>
        <time>2017-03-12T11:06:34+01:00</time>
      </trkpt>
      <trkpt lat="48.71547" lon="1.97616">
        <ele>116</ele>
        <time>2017-03-12T11:06:37+01:00</time>
      </trkpt>
      <trkpt lat="48.71543" lon="1.9762">
        <ele>113</ele>
        <time>2017-03-12T11:06:42+01:00</time>
      </trkpt>
      <trkpt lat="48.71541" lon="1.97621">
        <ele>113</ele>
        <time>2017-03-12T11:06:45+01:00</time>
      </trkpt>
      <trkpt lat="48.71538" lon="1.97625">
        <ele>112</ele>
        <time>2017-03-12T11:06:50+01:00</time>
      </trkpt>
      <trkpt lat="48.71534" lon="1.9763">
        <ele>111</ele>
        <time>2017-03-12T11:06:53+01:00</time>
      </trkpt>
      <trkpt lat="48.71533" lon="1.97636">
        <ele>115</ele>
        <time>2017-03-12T11:06:58+01:00</time>
      </trkpt>
      <trkpt lat="48.71528" lon="1.9764">
        <ele>116</ele>
        <time>2017-03-12T11:07:02+01:00</time>
      </trkpt>
      <trkpt lat="48.71526" lon="1.97646">
        <ele>116</ele>
        <time>2017-03-12T11:07:05+01:00</time>
      </trkpt>
      <trkpt lat="48.71525" lon="1.97651">
        <ele>117</ele>
        <time>2017-03-12T11:07:10+01:00</time>
      </trkpt>
      <trkpt lat="48.71525" lon="1.9766">
        <ele>119</ele>
        <time>2017-03-12T11:07:18+01:00</time>
      </trkpt>
      <trkpt lat="48.71521" lon="1.97665">
        <ele>119</ele>
        <time>2017-03-12T11:07:21+01:00</time>
      </trkpt>
      <trkpt lat="48.71517" lon="1.97668">
        <ele>121</ele>
        <time>2017-03-12T11:07:26+01:00</time>
      </trkpt>
      <trkpt lat="48.71516" lon="1.97676">
        <ele>121</ele>
        <time>2017-03-12T11:07:30+01:00</time>
      </trkpt>
      <trkpt lat="48.71515" lon="1.97684">
        <ele>123</ele>
        <time>2017-03-12T11:07:34+01:00</time>
      </trkpt>
      <trkpt lat="48.71513" lon="1.9769">
        <ele>124</ele>
        <time>2017-03-12T11:07:38+01:00</time>
      </trkpt>
      <trkpt lat="48.71511" lon="1.97695">
        <ele>123</ele>
        <time>2017-03-12T11:07:41+01:00</time>
      </trkpt>
      <trkpt lat="48.71508" lon="1.97699">
        <ele>125</ele>
        <time>2017-03-12T11:07:45+01:00</time>
      </trkpt>
      <trkpt lat="48.71505" lon="1.977">
        <ele>126</ele>
        <time>2017-03-12T11:07:50+01:00</time>
      </trkpt>
      <trkpt lat="48.715" lon="1.97703">
        <ele>126</ele>
        <time>2017-03-12T11:07:54+01:00</time>
      </trkpt>
      <trkpt lat="48.71497" lon="1.97711">
        <ele>123</ele>
        <time>2017-03-12T11:07:58+01:00</time>
      </trkpt>
      <trkpt lat="48.71494" lon="1.97719">
        <ele>122</ele>
        <time>2017-03-12T11:08:02+01:00</time>
      </trkpt>
      <trkpt lat="48.71493" lon="1.97723">
        <ele>122</ele>
        <time>2017-03-12T11:08:06+01:00</time>
      </trkpt>
      <trkpt lat="48.71492" lon="1.97726">
        <ele>121</ele>
        <time>2017-03-12T11:08:10+01:00</time>
      </trkpt>
      <trkpt lat="48.71491" lon="1.97735">
        <ele>120</ele>
        <time>2017-03-12T11:08:14+01:00</time>
      </trkpt>
      <trkpt lat="48.71488" lon="1.97746">
        <ele>115</ele>
        <time>2017-03-12T11:08:18+01:00</time>
      </trkpt>
      <trkpt lat="48.71483" lon="1.97754">
        <ele>114</ele>
        <time>2017-03-12T11:08:21+01:00</time>
      </trkpt>
      <trkpt lat="48.71482" lon="1.97762">
        <ele>113</ele>
        <time>2017-03-12T11:08:26+01:00</time>
      </trkpt>
      <trkpt lat="48.71479" lon="1.97769">
        <ele>112</ele>
        <time>2017-03-12T11:08:29+01:00</time>
      </trkpt>
      <trkpt lat="48.71478" lon="1.97775">
        <ele>114</ele>
        <time>2017-03-12T11:08:34+01:00</time>
      </trkpt>
      <trkpt lat="48.71474" lon="1.9778">
        <ele>115</ele>
        <time>2017-03-12T11:08:37+01:00</time>
      </trkpt>
      <trkpt lat="48.71471" lon="1.97785">
        <ele>116</ele>
        <time>2017-03-12T11:08:42+01:00</time>
      </trkpt>
      <trkpt lat="48.71469" lon="1.97792">
        <ele>118</ele>
        <time>2017-03-12T11:08:46+01:00</time>
      </trkpt>
      <trkpt lat="48.71465" lon="1.97796">
        <ele>118</ele>
        <time>2017-03-12T11:08:49+01:00</time>
      </trkpt>
      <trkpt lat="48.71465" lon="1.97803">
        <ele>117</ele>
        <time>2017-03-12T11:08:54+01:00</time>
      </trkpt>
      <trkpt lat="48.71466" lon="1.97808">
        <ele>116</ele>
        <time>2017-03-12T11:08:58+01:00</time>
      </trkpt>
      <trkpt lat="48.71463" lon="1.97813">
        <ele>119</ele>
        <time>2017-03-12T11:09:01+01:00</time>
      </trkpt>
      <trkpt lat="48.71463" lon="1.97821">
        <ele>121</ele>
        <time>2017-03-12T11:09:06+01:00</time>
      </trkpt>
      <trkpt lat="48.71463" lon="1.97828">
        <ele>120</ele>
        <time>2017-03-12T11:09:10+01:00</time>
      </trkpt>
      <trkpt lat="48.71461" lon="1.97834">
        <ele>120</ele>
        <time>2017-03-12T11:09:13+01:00</time>
      </trkpt>
      <trkpt lat="48.71459" lon="1.97838">
        <ele>119</ele>
        <time>2017-03-12T11:09:18+01:00</time>
      </trkpt>
      <trkpt lat="48.7146" lon="1.97849">
        <ele>118</ele>
        <time>2017-03-12T11:09:34+01:00</time>
      </trkpt>
      <trkpt lat="48.71459" lon="1.97859">
        <ele>119</ele>
        <time>2017-03-12T11:09:37+01:00</time>
      </trkpt>
      <trkpt lat="48.71459" lon="1.97871">
        <ele>119</ele>
        <time>2017-03-12T11:09:42+01:00</time>
      </trkpt>
      <trkpt lat="48.71457" lon="1.97881">
        <ele>119</ele>
        <time>2017-03-12T11:09:46+01:00</time>
      </trkpt>
      <trkpt lat="48.71454" lon="1.9789">
        <ele>121</ele>
        <time>2017-03-12T11:09:49+01:00</time>
      </trkpt>
      <trkpt lat="48.71453" lon="1.97898">
        <ele>122</ele>
        <time>2017-03-12T11:09:54+01:00</time>
      </trkpt>
      <trkpt lat="48.7145" lon="1.97906">
        <ele>125</ele>
        <time>2017-03-12T11:09:57+01:00</time>
      </trkpt>
      <trkpt lat="48.71449" lon="1.97912">
        <ele>126</ele>
        <time>2017-03-12T11:10:02+01:00</time>
      </trkpt>
      <trkpt lat="48.7145" lon="1.9792">
        <ele>126</ele>
        <time>2017-03-12T11:10:05+01:00</time>
      </trkpt>
      <trkpt lat="48.71451" lon="1.97928">
        <ele>126</ele>
        <time>2017-03-12T11:10:10+01:00</time>
      </trkpt>
      <trkpt lat="48.7145" lon="1.97934">
        <ele>125</ele>
        <time>2017-03-12T11:10:14+01:00</time>
      </trkpt>
      <trkpt lat="48.7145" lon="1.97941">
        <ele>127</ele>
        <time>2017-03-12T11:10:17+01:00</time>
      </trkpt>
      <trkpt lat="48.71448" lon="1.97947">
        <ele>127</ele>
        <time>2017-03-12T11:10:22+01:00</time>
      </trkpt>
      <trkpt lat="48.71446" lon="1.97954">
        <ele>127</ele>
        <time>2017-03-12T11:10:25+01:00</time>
      </trkpt>
      <trkpt lat="48.71444" lon="1.9796">
        <ele>127</ele>
        <time>2017-03-12T11:10:30+01:00</time>
      </trkpt>
      <trkpt lat="48.71443" lon="1.97963">
        <ele>126</ele>
        <time>2017-03-12T11:10:34+01:00</time>
      </trkpt>
      <trkpt lat="48.71441" lon="1.97975">
        <ele>123</ele>
        <time>2017-03-12T11:10:42+01:00</time>
      </trkpt>
      <trkpt lat="48.7144" lon="1.97985">
        <ele>122</ele>
        <time>2017-03-12T11:10:46+01:00</time>
      </trkpt>
      <trkpt lat="48.7144" lon="1.97995">
        <ele>121</ele>
        <time>2017-03-12T11:10:49+01:00</time>
      </trkpt>
      <trkpt lat="48.71439" lon="1.98003">
        <ele>120</ele>
        <time>2017-03-12T11:10:54+01:00</time>
      </trkpt>
      <trkpt lat="48.71439" lon="1.9801">
        <ele>121</ele>
        <time>2017-03-12T11:10:58+01:00</time>
      </trkpt>
      <trkpt lat="48.71439" lon="1.98017">
        <ele>121</ele>
        <time>2017-03-12T11:11:02+01:00</time>
      </trkpt>
      <trkpt lat="48.71438" lon="1.98024">
        <ele>120</ele>
        <time>2017-03-12T11:11:06+01:00</time>
      </trkpt>
      <trkpt lat="48.71438" lon="1.98032">
        <ele>120</ele>
        <time>2017-03-12T11:11:10+01:00</time>
      </trkpt>
      <trkpt lat="48.71438" lon="1.9804">
        <ele>119</ele>
        <time>2017-03-12T11:11:14+01:00</time>
      </trkpt>
      <trkpt lat="48.71438" lon="1.98047">
        <ele>119</ele>
        <time>2017-03-12T11:11:18+01:00</time>
      </trkpt>
      <trkpt lat="48.71437" lon="1.98055">
        <ele>120</ele>
        <time>2017-03-12T11:11:22+01:00</time>
      </trkpt>
      <trkpt lat="48.71436" lon="1.98062">
        <ele>121</ele>
        <time>2017-03-12T11:11:26+01:00</time>
      </trkpt>
      <trkpt lat="48.71437" lon="1.9807">
        <ele>122</ele>
        <time>2017-03-12T11:11:30+01:00</time>
      </trkpt>
      <trkpt lat="48.71439" lon="1.98078">
        <ele>126</ele>
        <time>2017-03-12T11:11:33+01:00</time>
      </trkpt>
      <trkpt lat="48.71437" lon="1.98084">
        <ele>127</ele>
        <time>2017-03-12T11:11:38+01:00</time>
      </trkpt>
      <trkpt lat="48.71437" lon="1.98091">
        <ele>130</ele>
        <time>2017-03-12T11:11:42+01:00</time>
      </trkpt>
      <trkpt lat="48.71435" lon="1.98098">
        <ele>130</ele>
        <time>2017-03-12T11:11:45+01:00</time>
      </trkpt>
      <trkpt lat="48.71435" lon="1.98107">
        <ele>128</ele>
        <time>2017-03-12T11:11:50+01:00</time>
      </trkpt>
      <trkpt lat="48.71438" lon="1.98116">
        <ele>127</ele>
        <time>2017-03-12T11:11:54+01:00</time>
      </trkpt>
      <trkpt lat="48.71438" lon="1.98124">
        <ele>127</ele>
        <time>2017-03-12T11:11:58+01:00</time>
      </trkpt>
      <trkpt lat="48.71436" lon="1.98133">
        <ele>132</ele>
        <time>2017-03-12T11:12:02+01:00</time>
      </trkpt>
      <trkpt lat="48.71435" lon="1.98142">
        <ele>132</ele>
        <time>2017-03-12T11:12:06+01:00</time>
      </trkpt>
      <trkpt lat="48.71433" lon="1.9815">
        <ele>135</ele>
        <time>2017-03-12T11:12:10+01:00</time>
      </trkpt>
      <trkpt lat="48.71432" lon="1.9816">
        <ele>136</ele>
        <time>2017-03-12T11:12:14+01:00</time>
      </trkpt>
      <trkpt lat="48.71433" lon="1.98169">
        <ele>136</ele>
        <time>2017-03-12T11:12:18+01:00</time>
      </trkpt>
      <trkpt lat="48.71431" lon="1.98177">
        <ele>136</ele>
        <time>2017-03-12T11:12:22+01:00</time>
      </trkpt>
      <trkpt lat="48.71429" lon="1.98184">
        <ele>136</ele>
        <time>2017-03-12T11:12:25+01:00</time>
      </trkpt>
      <trkpt lat="48.71425" lon="1.9819">
        <ele>136</ele>
        <time>2017-03-12T11:12:30+01:00</time>
      </trkpt>
      <trkpt lat="48.71421" lon="1.98197">
        <ele>137</ele>
        <time>2017-03-12T11:12:34+01:00</time>
      </trkpt>
      <trkpt lat="48.71418" lon="1.98203">
        <ele>139</ele>
        <time>2017-03-12T11:12:38+01:00</time>
      </trkpt>
      <trkpt lat="48.71415" lon="1.9821">
        <ele>138</ele>
        <time>2017-03-12T11:12:41+01:00</time>
      </trkpt>
      <trkpt lat="48.71414" lon="1.98218">
        <ele>140</ele>
        <time>2017-03-12T11:12:45+01:00</time>
      </trkpt>
      <trkpt lat="48.7141" lon="1.98225">
        <ele>144</ele>
        <time>2017-03-12T11:12:50+01:00</time>
      </trkpt>
      <trkpt lat="48.71406" lon="1.98231">
        <ele>148</ele>
        <time>2017-03-12T11:12:54+01:00</time>
      </trkpt>
      <trkpt lat="48.71403" lon="1.98237">
        <ele>150</ele>
        <time>2017-03-12T11:12:58+01:00</time>
      </trkpt>
      <trkpt lat="48.71399" lon="1.98241">
        <ele>150</ele>
        <time>2017-03-12T11:13:02+01:00</time>
      </trkpt>
      <trkpt lat="48.71393" lon="1.98243">
        <ele>149</ele>
        <time>2017-03-12T11:13:06+01:00</time>
      </trkpt>
      <trkpt lat="48.71387" lon="1.98247">
        <ele>143</ele>
        <time>2017-03-12T11:13:10+01:00</time>
      </trkpt>
      <trkpt lat="48.71381" lon="1.9825">
        <ele>137</ele>
        <time>2017-03-12T11:13:14+01:00</time>
      </trkpt>
      <trkpt lat="48.71376" lon="1.98253">
        <ele>135</ele>
        <time>2017-03-12T11:13:17+01:00</time>
      </trkpt>
      <trkpt lat="48.71371" lon="1.98256">
        <ele>134</ele>
        <time>2017-03-12T11:13:22+01:00</time>
      </trkpt>
      <trkpt lat="48.71366" lon="1.98261">
        <ele>133</ele>
        <time>2017-03-12T11:13:26+01:00</time>
      </trkpt>
      <trkpt lat="48.71363" lon="1.98267">
        <ele>132</ele>
        <time>2017-03-12T11:13:30+01:00</time>
      </trkpt>
      <trkpt lat="48.71362" lon="1.98277">
        <ele>130</ele>
        <time>2017-03-12T11:13:33+01:00</time>
      </trkpt>
      <trkpt lat="48.7136" lon="1.98285">
        <ele>127</ele>
        <time>2017-03-12T11:13:38+01:00</time>
      </trkpt>
      <trkpt lat="48.7136" lon="1.98293">
        <ele>126</ele>
        <time>2017-03-12T11:13:42+01:00</time>
      </trkpt>
      <trkpt lat="48.71354" lon="1.98298">
        <ele>124</ele>
        <time>2017-03-12T11:13:50+01:00</time>
      </trkpt>
      <trkpt lat="48.71352" lon="1.983">
        <ele>125</ele>
        <time>2017-03-12T11:13:53+01:00</time>
      </trkpt>
      <trkpt lat="48.7135" lon="1.98305">
        <ele>123</ele>
        <time>2017-03-12T11:13:58+01:00</time>
      </trkpt>
      <trkpt lat="48.71345" lon="1.98313">
        <ele>123</ele>
        <time>2017-03-12T11:14:06+01:00</time>
      </trkpt>
      <trkpt lat="48.71341" lon="1.98318">
        <ele>123</ele>
        <time>2017-03-12T11:14:10+01:00</time>
      </trkpt>
      <trkpt lat="48.71339" lon="1.98326">
        <ele>122</ele>
        <time>2017-03-12T11:14:13+01:00</time>
      </trkpt>
      <trkpt lat="48.71335" lon="1.98335">
        <ele>120</ele>
        <time>2017-03-12T11:14:17+01:00</time>
      </trkpt>
      <trkpt lat="48.71332" lon="1.98345">
        <ele>119</ele>
        <time>2017-03-12T11:14:22+01:00</time>
      </trkpt>
      <trkpt lat="48.71327" lon="1.98353">
        <ele>118</ele>
        <time>2017-03-12T11:14:26+01:00</time>
      </trkpt>
      <trkpt lat="48.71322" lon="1.98363">
        <ele>118</ele>
        <time>2017-03-12T11:14:30+01:00</time>
      </trkpt>
      <trkpt lat="48.71319" lon="1.98369">
        <ele>118</ele>
        <time>2017-03-12T11:14:34+01:00</time>
      </trkpt>
      <trkpt lat="48.71318" lon="1.98377">
        <ele>120</ele>
        <time>2017-03-12T11:14:38+01:00</time>
      </trkpt>
      <trkpt lat="48.71317" lon="1.98384">
        <ele>121</ele>
        <time>2017-03-12T11:14:42+01:00</time>
      </trkpt>
      <trkpt lat="48.71314" lon="1.98392">
        <ele>121</ele>
        <time>2017-03-12T11:14:46+01:00</time>
      </trkpt>
      <trkpt lat="48.71312" lon="1.98404">
        <ele>120</ele>
        <time>2017-03-12T11:14:50+01:00</time>
      </trkpt>
      <trkpt lat="48.7131" lon="1.98414">
        <ele>118</ele>
        <time>2017-03-12T11:14:54+01:00</time>
      </trkpt>
      <trkpt lat="48.71307" lon="1.98421">
        <ele>118</ele>
        <time>2017-03-12T11:14:58+01:00</time>
      </trkpt>
      <trkpt lat="48.71306" lon="1.98428">
        <ele>118</ele>
        <time>2017-03-12T11:15:02+01:00</time>
      </trkpt>
      <trkpt lat="48.71304" lon="1.98431">
        <ele>117</ele>
        <time>2017-03-12T11:15:06+01:00</time>
      </trkpt>
      <trkpt lat="48.71303" lon="1.98435">
        <ele>116</ele>
        <time>2017-03-12T11:15:10+01:00</time>
      </trkpt>
      <trkpt lat="48.71302" lon="1.98442">
        <ele>116</ele>
        <time>2017-03-12T11:15:14+01:00</time>
      </trkpt>
      <trkpt lat="48.71302" lon="1.98452">
        <ele>114</ele>
        <time>2017-03-12T11:15:17+01:00</time>
      </trkpt>
      <trkpt lat="48.71302" lon="1.98461">
        <ele>109</ele>
        <time>2017-03-12T11:15:22+01:00</time>
      </trkpt>
      <trkpt lat="48.71305" lon="1.98468">
        <ele>109</ele>
        <time>2017-03-12T11:15:25+01:00</time>
      </trkpt>
      <trkpt lat="48.71303" lon="1.98474">
        <ele>110</ele>
        <time>2017-03-12T11:15:29+01:00</time>
      </trkpt>
      <trkpt lat="48.71299" lon="1.98478">
        <ele>113</ele>
        <time>2017-03-12T11:15:33+01:00</time>
      </trkpt>
      <trkpt lat="48.71294" lon="1.98482">
        <ele>114</ele>
        <time>2017-03-12T11:15:37+01:00</time>
      </trkpt>
      <trkpt lat="48.71285" lon="1.98483">
        <ele>114</ele>
        <time>2017-03-12T11:15:41+01:00</time>
      </trkpt>
      <trkpt lat="48.71277" lon="1.98486">
        <ele>114</ele>
        <time>2017-03-12T11:15:45+01:00</time>
      </trkpt>
      <trkpt lat="48.7127" lon="1.98491">
        <ele>113</ele>
        <time>2017-03-12T11:15:50+01:00</time>
      </trkpt>
      <trkpt lat="48.71267" lon="1.98496">
        <ele>112</ele>
        <time>2017-03-12T11:15:53+01:00</time>
      </trkpt>
      <trkpt lat="48.71263" lon="1.98499">
        <ele>111</ele>
        <time>2017-03-12T11:15:58+01:00</time>
      </trkpt>
      <trkpt lat="48.71258" lon="1.98503">
        <ele>112</ele>
        <time>2017-03-12T11:16:02+01:00</time>
      </trkpt>
      <trkpt lat="48.71254" lon="1.98508">
        <ele>111</ele>
        <time>2017-03-12T11:16:06+01:00</time>
      </trkpt>
      <trkpt lat="48.71246" lon="1.98511">
        <ele>112</ele>
        <time>2017-03-12T11:16:09+01:00</time>
      </trkpt>
      <trkpt lat="48.71241" lon="1.98516">
        <ele>114</ele>
        <time>2017-03-12T11:16:14+01:00</time>
      </trkpt>
      <trkpt lat="48.71236" lon="1.98521">
        <ele>113</ele>
        <time>2017-03-12T11:16:18+01:00</time>
      </trkpt>
      <trkpt lat="48.71232" lon="1.98527">
        <ele>113</ele>
        <time>2017-03-12T11:16:21+01:00</time>
      </trkpt>
      <trkpt lat="48.71228" lon="1.98533">
        <ele>110</ele>
        <time>2017-03-12T11:16:25+01:00</time>
      </trkpt>
      <trkpt lat="48.71223" lon="1.98537">
        <ele>112</ele>
        <time>2017-03-12T11:16:30+01:00</time>
      </trkpt>
      <trkpt lat="48.71223" lon="1.98543">
        <ele>108</ele>
        <time>2017-03-12T11:16:33+01:00</time>
      </trkpt>
      <trkpt lat="48.71221" lon="1.98546">
        <ele>107</ele>
        <time>2017-03-12T11:16:38+01:00</time>
      </trkpt>
      <trkpt lat="48.71217" lon="1.98551">
        <ele>105</ele>
        <time>2017-03-12T11:16:41+01:00</time>
      </trkpt>
      <trkpt lat="48.71212" lon="1.98557">
        <ele>102</ele>
        <time>2017-03-12T11:16:46+01:00</time>
      </trkpt>
      <trkpt lat="48.71206" lon="1.98564">
        <ele>102</ele>
        <time>2017-03-12T11:16:49+01:00</time>
      </trkpt>
      <trkpt lat="48.71201" lon="1.98571">
        <ele>102</ele>
        <time>2017-03-12T11:16:54+01:00</time>
      </trkpt>
      <trkpt lat="48.71195" lon="1.98576">
        <ele>99</ele>
        <time>2017-03-12T11:16:58+01:00</time>
      </trkpt>
      <trkpt lat="48.71189" lon="1.98581">
        <ele>101</ele>
        <time>2017-03-12T11:17:02+01:00</time>
      </trkpt>
      <trkpt lat="48.71183" lon="1.98584">
        <ele>99</ele>
        <time>2017-03-12T11:17:06+01:00</time>
      </trkpt>
      <trkpt lat="48.71176" lon="1.98585">
        <ele>97</ele>
        <time>2017-03-12T11:17:10+01:00</time>
      </trkpt>
      <trkpt lat="48.7117" lon="1.98587">
        <ele>95</ele>
        <time>2017-03-12T11:17:14+01:00</time>
      </trkpt>
      <trkpt lat="48.71164" lon="1.98586">
        <ele>97</ele>
        <time>2017-03-12T11:17:18+01:00</time>
      </trkpt>
      <trkpt lat="48.71159" lon="1.98586">
        <ele>96</ele>
        <time>2017-03-12T11:17:22+01:00</time>
      </trkpt>
      <trkpt lat="48.71154" lon="1.98586">
        <ele>98</ele>
        <time>2017-03-12T11:17:26+01:00</time>
      </trkpt>
      <trkpt lat="48.71148" lon="1.98585">
        <ele>96</ele>
        <time>2017-03-12T11:17:30+01:00</time>
      </trkpt>
      <trkpt lat="48.7114" lon="1.98584">
        <ele>94</ele>
        <time>2017-03-12T11:17:34+01:00</time>
      </trkpt>
      <trkpt lat="48.71134" lon="1.98582">
        <ele>95</ele>
        <time>2017-03-12T11:17:37+01:00</time>
      </trkpt>
      <trkpt lat="48.71127" lon="1.98582">
        <ele>94</ele>
        <time>2017-03-12T11:17:42+01:00</time>
      </trkpt>
      <trkpt lat="48.7112" lon="1.9858">
        <ele>94</ele>
        <time>2017-03-12T11:17:45+01:00</time>
      </trkpt>
      <trkpt lat="48.71113" lon="1.98581">
        <ele>93</ele>
        <time>2017-03-12T11:17:50+01:00</time>
      </trkpt>
      <trkpt lat="48.71106" lon="1.98581">
        <ele>93</ele>
        <time>2017-03-12T11:17:54+01:00</time>
      </trkpt>
      <trkpt lat="48.711" lon="1.98581">
        <ele>93</ele>
        <time>2017-03-12T11:17:58+01:00</time>
      </trkpt>
      <trkpt lat="48.71095" lon="1.9858">
        <ele>93</ele>
        <time>2017-03-12T11:18:02+01:00</time>
      </trkpt>
      <trkpt lat="48.71087" lon="1.9858">
        <ele>94</ele>
        <time>2017-03-12T11:18:07+01:00</time>
      </trkpt>
      <trkpt lat="48.71081" lon="1.9858">
        <ele>94</ele>
        <time>2017-03-12T11:18:11+01:00</time>
      </trkpt>
      <trkpt lat="48.71075" lon="1.9858">
        <ele>94</ele>
        <time>2017-03-12T11:18:15+01:00</time>
      </trkpt>
      <trkpt lat="48.71069" lon="1.9858">
        <ele>94</ele>
        <time>2017-03-12T11:18:19+01:00</time>
      </trkpt>
      <trkpt lat="48.71063" lon="1.9858">
        <ele>94</ele>
        <time>2017-03-12T11:18:23+01:00</time>
      </trkpt>
      <trkpt lat="48.71057" lon="1.9858">
        <ele>94</ele>
        <time>2017-03-12T11:18:27+01:00</time>
      </trkpt>
      <trkpt lat="48.71051" lon="1.9858">
        <ele>95</ele>
        <time>2017-03-12T11:18:31+01:00</time>
      </trkpt>
      <trkpt lat="48.71045" lon="1.98581">
        <ele>94</ele>
        <time>2017-03-12T11:18:35+01:00</time>
      </trkpt>
      <trkpt lat="48.7104" lon="1.98581">
        <ele>94</ele>
        <time>2017-03-12T11:18:39+01:00</time>
      </trkpt>
      <trkpt lat="48.71034" lon="1.98581">
        <ele>95</ele>
        <time>2017-03-12T11:18:43+01:00</time>
      </trkpt>
      <trkpt lat="48.71028" lon="1.98583">
        <ele>95</ele>
        <time>2017-03-12T11:18:47+01:00</time>
      </trkpt>
      <trkpt lat="48.71023" lon="1.98585">
        <ele>96</ele>
        <time>2017-03-12T11:18:51+01:00</time>
      </trkpt>
      <trkpt lat="48.71017" lon="1.98587">
        <ele>96</ele>
        <time>2017-03-12T11:18:55+01:00</time>
      </trkpt>
      <trkpt lat="48.71011" lon="1.98589">
        <ele>96</ele>
        <time>2017-03-12T11:18:59+01:00</time>
      </trkpt>
      <trkpt lat="48.71005" lon="1.98591">
        <ele>95</ele>
        <time>2017-03-12T11:19:03+01:00</time>
      </trkpt>
      <trkpt lat="48.71" lon="1.98593">
        <ele>96</ele>
        <time>2017-03-12T11:19:06+01:00</time>
      </trkpt>
      <trkpt lat="48.70994" lon="1.98594">
        <ele>96</ele>
        <time>2017-03-12T11:19:11+01:00</time>
      </trkpt>
      <trkpt lat="48.70988" lon="1.98594">
        <ele>98</ele>
        <time>2017-03-12T11:19:15+01:00</time>
      </trkpt>
      <trkpt lat="48.70983" lon="1.98594">
        <ele>98</ele>
        <time>2017-03-12T11:19:19+01:00</time>
      </trkpt>
      <trkpt lat="48.70977" lon="1.98592">
        <ele>98</ele>
        <time>2017-03-12T11:19:23+01:00</time>
      </trkpt>
      <trkpt lat="48.70971" lon="1.9859">
        <ele>98</ele>
        <time>2017-03-12T11:19:27+01:00</time>
      </trkpt>
      <trkpt lat="48.70966" lon="1.98588">
        <ele>98</ele>
        <time>2017-03-12T11:19:31+01:00</time>
      </trkpt>
      <trkpt lat="48.70961" lon="1.98586">
        <ele>98</ele>
        <time>2017-03-12T11:19:35+01:00</time>
      </trkpt>
      <trkpt lat="48.70956" lon="1.98583">
        <ele>99</ele>
        <time>2017-03-12T11:19:39+01:00</time>
      </trkpt>
      <trkpt lat="48.70951" lon="1.9858">
        <ele>99</ele>
        <time>2017-03-12T11:19:43+01:00</time>
      </trkpt>
      <trkpt lat="48.70946" lon="1.98577">
        <ele>98</ele>
        <time>2017-03-12T11:19:47+01:00</time>
      </trkpt>
      <trkpt lat="48.70942" lon="1.98574">
        <ele>97</ele>
        <time>2017-03-12T11:19:51+01:00</time>
      </trkpt>
      <trkpt lat="48.70938" lon="1.9857">
        <ele>96</ele>
        <time>2017-03-12T11:19:55+01:00</time>
      </trkpt>
      <trkpt lat="48.70937" lon="1.98564">
        <ele>100</ele>
        <time>2017-03-12T11:19:59+01:00</time>
      </trkpt>
      <trkpt lat="48.70935" lon="1.98564">
        <ele>98</ele>
        <time>2017-03-12T11:20:03+01:00</time>
      </trkpt>
      <trkpt lat="48.70935" lon="1.98563">
        <ele>99</ele>
        <time>2017-03-12T11:20:10+01:00</time>
      </trkpt>
      <trkpt lat="48.70935" lon="1.9856">
        <ele>97</ele>
        <time>2017-03-12T11:20:14+01:00</time>
      </trkpt>
      <trkpt lat="48.70935" lon="1.9856">
        <ele>96</ele>
        <time>2017-03-12T11:20:19+01:00</time>
      </trkpt>
      <trkpt lat="48.70925" lon="1.98562">
        <ele>102</ele>
        <time>2017-03-12T11:28:23+01:00</time>
      </trkpt>
      <trkpt lat="48.70921" lon="1.9856">
        <ele>102</ele>
        <time>2017-03-12T11:28:27+01:00</time>
      </trkpt>
      <trkpt lat="48.70916" lon="1.98557">
        <ele>102</ele>
        <time>2017-03-12T11:28:31+01:00</time>
      </trkpt>
      <trkpt lat="48.70911" lon="1.98554">
        <ele>102</ele>
        <time>2017-03-12T11:28:35+01:00</time>
      </trkpt>
      <trkpt lat="48.70903" lon="1.98556">
        <ele>100</ele>
        <time>2017-03-12T11:28:39+01:00</time>
      </trkpt>
      <trkpt lat="48.70896" lon="1.98556">
        <ele>100</ele>
        <time>2017-03-12T11:28:43+01:00</time>
      </trkpt>
      <trkpt lat="48.70891" lon="1.9855">
        <ele>103</ele>
        <time>2017-03-12T11:28:46+01:00</time>
      </trkpt>
      <trkpt lat="48.70887" lon="1.98543">
        <ele>102</ele>
        <time>2017-03-12T11:28:50+01:00</time>
      </trkpt>
      <trkpt lat="48.70883" lon="1.98541">
        <ele>103</ele>
        <time>2017-03-12T11:28:55+01:00</time>
      </trkpt>
      <trkpt lat="48.70879" lon="1.98539">
        <ele>102</ele>
        <time>2017-03-12T11:28:59+01:00</time>
      </trkpt>
      <trkpt lat="48.70874" lon="1.98541">
        <ele>102</ele>
        <time>2017-03-12T11:29:03+01:00</time>
      </trkpt>
      <trkpt lat="48.70868" lon="1.98543">
        <ele>101</ele>
        <time>2017-03-12T11:29:07+01:00</time>
      </trkpt>
      <trkpt lat="48.70864" lon="1.9854">
        <ele>104</ele>
        <time>2017-03-12T11:29:11+01:00</time>
      </trkpt>
      <trkpt lat="48.70858" lon="1.98541">
        <ele>103</ele>
        <time>2017-03-12T11:29:15+01:00</time>
      </trkpt>
      <trkpt lat="48.70853" lon="1.98542">
        <ele>105</ele>
        <time>2017-03-12T11:29:19+01:00</time>
      </trkpt>
      <trkpt lat="48.70848" lon="1.98543">
        <ele>104</ele>
        <time>2017-03-12T11:29:23+01:00</time>
      </trkpt>
      <trkpt lat="48.70841" lon="1.98543">
        <ele>105</ele>
        <time>2017-03-12T11:29:31+01:00</time>
      </trkpt>
      <trkpt lat="48.70839" lon="1.98547">
        <ele>105</ele>
        <time>2017-03-12T11:29:35+01:00</time>
      </trkpt>
      <trkpt lat="48.70836" lon="1.98549">
        <ele>106</ele>
        <time>2017-03-12T11:29:38+01:00</time>
      </trkpt>
      <trkpt lat="48.7083" lon="1.98551">
        <ele>104</ele>
        <time>2017-03-12T11:29:43+01:00</time>
      </trkpt>
      <trkpt lat="48.70826" lon="1.98557">
        <ele>106</ele>
        <time>2017-03-12T11:29:47+01:00</time>
      </trkpt>
      <trkpt lat="48.70824" lon="1.98564">
        <ele>107</ele>
        <time>2017-03-12T11:29:51+01:00</time>
      </trkpt>
      <trkpt lat="48.70822" lon="1.98572">
        <ele>106</ele>
        <time>2017-03-12T11:29:55+01:00</time>
      </trkpt>
      <trkpt lat="48.7082" lon="1.9858">
        <ele>109</ele>
        <time>2017-03-12T11:29:59+01:00</time>
      </trkpt>
      <trkpt lat="48.70819" lon="1.98587">
        <ele>109</ele>
        <time>2017-03-12T11:30:03+01:00</time>
      </trkpt>
      <trkpt lat="48.70817" lon="1.98592">
        <ele>109</ele>
        <time>2017-03-12T11:30:07+01:00</time>
      </trkpt>
      <trkpt lat="48.70813" lon="1.98596">
        <ele>109</ele>
        <time>2017-03-12T11:30:11+01:00</time>
      </trkpt>
      <trkpt lat="48.7081" lon="1.986">
        <ele>108</ele>
        <time>2017-03-12T11:30:15+01:00</time>
      </trkpt>
      <trkpt lat="48.70807" lon="1.98605">
        <ele>108</ele>
        <time>2017-03-12T11:30:18+01:00</time>
      </trkpt>
      <trkpt lat="48.70802" lon="1.98611">
        <ele>108</ele>
        <time>2017-03-12T11:30:23+01:00</time>
      </trkpt>
      <trkpt lat="48.70799" lon="1.98617">
        <ele>108</ele>
        <time>2017-03-12T11:30:27+01:00</time>
      </trkpt>
      <trkpt lat="48.70796" lon="1.98624">
        <ele>108</ele>
        <time>2017-03-12T11:30:31+01:00</time>
      </trkpt>
      <trkpt lat="48.70795" lon="1.98632">
        <ele>109</ele>
        <time>2017-03-12T11:30:35+01:00</time>
      </trkpt>
      <trkpt lat="48.7079" lon="1.98636">
        <ele>109</ele>
        <time>2017-03-12T11:30:39+01:00</time>
      </trkpt>
      <trkpt lat="48.70785" lon="1.9864">
        <ele>108</ele>
        <time>2017-03-12T11:30:43+01:00</time>
      </trkpt>
      <trkpt lat="48.7078" lon="1.98642">
        <ele>108</ele>
        <time>2017-03-12T11:30:47+01:00</time>
      </trkpt>
      <trkpt lat="48.70775" lon="1.98633">
        <ele>108</ele>
        <time>2017-03-12T11:30:55+01:00</time>
      </trkpt>
      <trkpt lat="48.70772" lon="1.98628">
        <ele>108</ele>
        <time>2017-03-12T11:30:59+01:00</time>
      </trkpt>
      <trkpt lat="48.70769" lon="1.98623">
        <ele>109</ele>
        <time>2017-03-12T11:31:03+01:00</time>
      </trkpt>
      <trkpt lat="48.70767" lon="1.98618">
        <ele>109</ele>
        <time>2017-03-12T11:31:07+01:00</time>
      </trkpt>
      <trkpt lat="48.70765" lon="1.98612">
        <ele>111</ele>
        <time>2017-03-12T11:31:11+01:00</time>
      </trkpt>
      <trkpt lat="48.70764" lon="1.98608">
        <ele>111</ele>
        <time>2017-03-12T11:31:15+01:00</time>
      </trkpt>
      <trkpt lat="48.70758" lon="1.98608">
        <ele>111</ele>
        <time>2017-03-12T11:31:19+01:00</time>
      </trkpt>
      <trkpt lat="48.70755" lon="1.98603">
        <ele>112</ele>
        <time>2017-03-12T11:31:23+01:00</time>
      </trkpt>
      <trkpt lat="48.70752" lon="1.98599">
        <ele>112</ele>
        <time>2017-03-12T11:31:27+01:00</time>
      </trkpt>
      <trkpt lat="48.70761" lon="1.98614">
        <ele>113</ele>
        <time>2017-03-12T11:31:54+01:00</time>
      </trkpt>
      <trkpt lat="48.70766" lon="1.98622">
        <ele>111</ele>
        <time>2017-03-12T11:31:59+01:00</time>
      </trkpt>
      <trkpt lat="48.70771" lon="1.98629">
        <ele>112</ele>
        <time>2017-03-12T11:32:03+01:00</time>
      </trkpt>
      <trkpt lat="48.70777" lon="1.98635">
        <ele>110</ele>
        <time>2017-03-12T11:32:07+01:00</time>
      </trkpt>
      <trkpt lat="48.70782" lon="1.98641">
        <ele>110</ele>
        <time>2017-03-12T11:32:11+01:00</time>
      </trkpt>
      <trkpt lat="48.70785" lon="1.98646">
        <ele>109</ele>
        <time>2017-03-12T11:32:15+01:00</time>
      </trkpt>
      <trkpt lat="48.7078" lon="1.98654">
        <ele>104</ele>
        <time>2017-03-12T11:32:19+01:00</time>
      </trkpt>
      <trkpt lat="48.70772" lon="1.98661">
        <ele>104</ele>
        <time>2017-03-12T11:32:23+01:00</time>
      </trkpt>
      <trkpt lat="48.70769" lon="1.98668">
        <ele>104</ele>
        <time>2017-03-12T11:32:26+01:00</time>
      </trkpt>
      <trkpt lat="48.70765" lon="1.98673">
        <ele>105</ele>
        <time>2017-03-12T11:32:31+01:00</time>
      </trkpt>
      <trkpt lat="48.70761" lon="1.98675">
        <ele>103</ele>
        <time>2017-03-12T11:32:35+01:00</time>
      </trkpt>
      <trkpt lat="48.70759" lon="1.98682">
        <ele>105</ele>
        <time>2017-03-12T11:32:39+01:00</time>
      </trkpt>
      <trkpt lat="48.70758" lon="1.98691">
        <ele>105</ele>
        <time>2017-03-12T11:32:43+01:00</time>
      </trkpt>
      <trkpt lat="48.70756" lon="1.98701">
        <ele>106</ele>
        <time>2017-03-12T11:32:47+01:00</time>
      </trkpt>
      <trkpt lat="48.70752" lon="1.98705">
        <ele>105</ele>
        <time>2017-03-12T11:32:51+01:00</time>
      </trkpt>
      <trkpt lat="48.70747" lon="1.98711">
        <ele>105</ele>
        <time>2017-03-12T11:32:58+01:00</time>
      </trkpt>
      <trkpt lat="48.70744" lon="1.98714">
        <ele>105</ele>
        <time>2017-03-12T11:33:02+01:00</time>
      </trkpt>
      <trkpt lat="48.70741" lon="1.98724">
        <ele>105</ele>
        <time>2017-03-12T11:33:07+01:00</time>
      </trkpt>
      <trkpt lat="48.70736" lon="1.98729">
        <ele>106</ele>
        <time>2017-03-12T11:33:11+01:00</time>
      </trkpt>
      <trkpt lat="48.70732" lon="1.98732">
        <ele>106</ele>
        <time>2017-03-12T11:33:15+01:00</time>
      </trkpt>
      <trkpt lat="48.70727" lon="1.98732">
        <ele>104</ele>
        <time>2017-03-12T11:33:19+01:00</time>
      </trkpt>
      <trkpt lat="48.70722" lon="1.98732">
        <ele>105</ele>
        <time>2017-03-12T11:33:23+01:00</time>
      </trkpt>
      <trkpt lat="48.70717" lon="1.98737">
        <ele>105</ele>
        <time>2017-03-12T11:33:27+01:00</time>
      </trkpt>
      <trkpt lat="48.70712" lon="1.98742">
        <ele>105</ele>
        <time>2017-03-12T11:33:31+01:00</time>
      </trkpt>
      <trkpt lat="48.70707" lon="1.98744">
        <ele>104</ele>
        <time>2017-03-12T11:33:34+01:00</time>
      </trkpt>
      <trkpt lat="48.707" lon="1.98747">
        <ele>106</ele>
        <time>2017-03-12T11:33:39+01:00</time>
      </trkpt>
      <trkpt lat="48.70697" lon="1.98748">
        <ele>104</ele>
        <time>2017-03-12T11:33:43+01:00</time>
      </trkpt>
      <trkpt lat="48.70692" lon="1.9875">
        <ele>103</ele>
        <time>2017-03-12T11:33:47+01:00</time>
      </trkpt>
      <trkpt lat="48.70687" lon="1.9875">
        <ele>103</ele>
        <time>2017-03-12T11:33:51+01:00</time>
      </trkpt>
      <trkpt lat="48.70682" lon="1.98752">
        <ele>102</ele>
        <time>2017-03-12T11:33:55+01:00</time>
      </trkpt>
      <trkpt lat="48.70676" lon="1.9875">
        <ele>102</ele>
        <time>2017-03-12T11:33:59+01:00</time>
      </trkpt>
      <trkpt lat="48.70669" lon="1.9875">
        <ele>102</ele>
        <time>2017-03-12T11:34:03+01:00</time>
      </trkpt>
      <trkpt lat="48.70665" lon="1.98756">
        <ele>102</ele>
        <time>2017-03-12T11:34:07+01:00</time>
      </trkpt>
      <trkpt lat="48.70661" lon="1.98757">
        <ele>102</ele>
        <time>2017-03-12T11:34:11+01:00</time>
      </trkpt>
      <trkpt lat="48.70656" lon="1.98755">
        <ele>102</ele>
        <time>2017-03-12T11:34:15+01:00</time>
      </trkpt>
      <trkpt lat="48.7065" lon="1.98756">
        <ele>103</ele>
        <time>2017-03-12T11:34:19+01:00</time>
      </trkpt>
      <trkpt lat="48.70646" lon="1.98756">
        <ele>103</ele>
        <time>2017-03-12T11:34:23+01:00</time>
      </trkpt>
      <trkpt lat="48.70641" lon="1.98756">
        <ele>103</ele>
        <time>2017-03-12T11:34:27+01:00</time>
      </trkpt>
      <trkpt lat="48.70636" lon="1.98756">
        <ele>103</ele>
        <time>2017-03-12T11:34:31+01:00</time>
      </trkpt>
      <trkpt lat="48.70631" lon="1.98754">
        <ele>101</ele>
        <time>2017-03-12T11:34:35+01:00</time>
      </trkpt>
      <trkpt lat="48.70628" lon="1.98748">
        <ele>100</ele>
        <time>2017-03-12T11:34:38+01:00</time>
      </trkpt>
      <trkpt lat="48.70625" lon="1.98743">
        <ele>101</ele>
        <time>2017-03-12T11:34:43+01:00</time>
      </trkpt>
      <trkpt lat="48.7062" lon="1.9874">
        <ele>101</ele>
        <time>2017-03-12T11:34:47+01:00</time>
      </trkpt>
      <trkpt lat="48.70616" lon="1.98734">
        <ele>100</ele>
        <time>2017-03-12T11:34:51+01:00</time>
      </trkpt>
      <trkpt lat="48.70613" lon="1.98728">
        <ele>100</ele>
        <time>2017-03-12T11:34:55+01:00</time>
      </trkpt>
      <trkpt lat="48.70611" lon="1.9872">
        <ele>101</ele>
        <time>2017-03-12T11:34:59+01:00</time>
      </trkpt>
      <trkpt lat="48.70613" lon="1.98708">
        <ele>101</ele>
        <time>2017-03-12T11:35:03+01:00</time>
      </trkpt>
      <trkpt lat="48.70613" lon="1.98703">
        <ele>100</ele>
        <time>2017-03-12T11:35:07+01:00</time>
      </trkpt>
      <trkpt lat="48.7061" lon="1.98695">
        <ele>98</ele>
        <time>2017-03-12T11:35:11+01:00</time>
      </trkpt>
      <trkpt lat="48.70605" lon="1.9869">
        <ele>96</ele>
        <time>2017-03-12T11:35:15+01:00</time>
      </trkpt>
      <trkpt lat="48.70598" lon="1.98689">
        <ele>95</ele>
        <time>2017-03-12T11:35:19+01:00</time>
      </trkpt>
      <trkpt lat="48.70593" lon="1.98687">
        <ele>95</ele>
        <time>2017-03-12T11:35:23+01:00</time>
      </trkpt>
      <trkpt lat="48.70589" lon="1.98681">
        <ele>94</ele>
        <time>2017-03-12T11:35:27+01:00</time>
      </trkpt>
      <trkpt lat="48.70586" lon="1.98675">
        <ele>95</ele>
        <time>2017-03-12T11:35:31+01:00</time>
      </trkpt>
      <trkpt lat="48.7058" lon="1.9867">
        <ele>94</ele>
        <time>2017-03-12T11:35:35+01:00</time>
      </trkpt>
      <trkpt lat="48.70576" lon="1.98667">
        <ele>95</ele>
        <time>2017-03-12T11:35:39+01:00</time>
      </trkpt>
      <trkpt lat="48.70583" lon="1.98657">
        <ele>92</ele>
        <time>2017-03-12T11:36:43+01:00</time>
      </trkpt>
      <trkpt lat="48.70588" lon="1.98655">
        <ele>92</ele>
        <time>2017-03-12T11:36:47+01:00</time>
      </trkpt>
      <trkpt lat="48.70591" lon="1.98649">
        <ele>90</ele>
        <time>2017-03-12T11:36:51+01:00</time>
      </trkpt>
      <trkpt lat="48.70594" lon="1.98643">
        <ele>91</ele>
        <time>2017-03-12T11:36:55+01:00</time>
      </trkpt>
      <trkpt lat="48.70599" lon="1.98638">
        <ele>91</ele>
        <time>2017-03-12T11:36:59+01:00</time>
      </trkpt>
      <trkpt lat="48.70604" lon="1.98634">
        <ele>90</ele>
        <time>2017-03-12T11:37:03+01:00</time>
      </trkpt>
      <trkpt lat="48.70608" lon="1.98629">
        <ele>91</ele>
        <time>2017-03-12T11:37:07+01:00</time>
      </trkpt>
      <trkpt lat="48.70611" lon="1.98626">
        <ele>92</ele>
        <time>2017-03-12T11:37:11+01:00</time>
      </trkpt>
      <trkpt lat="48.70614" lon="1.98621">
        <ele>92</ele>
        <time>2017-03-12T11:37:15+01:00</time>
      </trkpt>
      <trkpt lat="48.70616" lon="1.98611">
        <ele>92</ele>
        <time>2017-03-12T11:37:23+01:00</time>
      </trkpt>
      <trkpt lat="48.70615" lon="1.98604">
        <ele>92</ele>
        <time>2017-03-12T11:37:27+01:00</time>
      </trkpt>
      <trkpt lat="48.70617" lon="1.98598">
        <ele>90</ele>
        <time>2017-03-12T11:37:31+01:00</time>
      </trkpt>
      <trkpt lat="48.70619" lon="1.98591">
        <ele>91</ele>
        <time>2017-03-12T11:37:35+01:00</time>
      </trkpt>
      <trkpt lat="48.70622" lon="1.98587">
        <ele>92</ele>
        <time>2017-03-12T11:37:39+01:00</time>
      </trkpt>
      <trkpt lat="48.70627" lon="1.98587">
        <ele>91</ele>
        <time>2017-03-12T11:37:43+01:00</time>
      </trkpt>
      <trkpt lat="48.70633" lon="1.98591">
        <ele>92</ele>
        <time>2017-03-12T11:37:46+01:00</time>
      </trkpt>
      <trkpt lat="48.70639" lon="1.98595">
        <ele>92</ele>
        <time>2017-03-12T11:37:51+01:00</time>
      </trkpt>
      <trkpt lat="48.7064" lon="1.98594">
        <ele>92</ele>
        <time>2017-03-12T11:37:55+01:00</time>
      </trkpt>
      <trkpt lat="48.70646" lon="1.98583">
        <ele>98</ele>
        <time>2017-03-12T11:38:15+01:00</time>
      </trkpt>
      <trkpt lat="48.70647" lon="1.98578">
        <ele>100</ele>
        <time>2017-03-12T11:38:19+01:00</time>
      </trkpt>
      <trkpt lat="48.70651" lon="1.98578">
        <ele>102</ele>
        <time>2017-03-12T11:38:23+01:00</time>
      </trkpt>
      <trkpt lat="48.70658" lon="1.98584">
        <ele>104</ele>
        <time>2017-03-12T11:38:31+01:00</time>
      </trkpt>
      <trkpt lat="48.70658" lon="1.98587">
        <ele>106</ele>
        <time>2017-03-12T11:38:35+01:00</time>
      </trkpt>
      <trkpt lat="48.70657" lon="1.98591">
        <ele>108</ele>
        <time>2017-03-12T11:38:38+01:00</time>
      </trkpt>
      <trkpt lat="48.70655" lon="1.98592">
        <ele>111</ele>
        <time>2017-03-12T11:38:43+01:00</time>
      </trkpt>
      <trkpt lat="48.70654" lon="1.9859">
        <ele>115</ele>
        <time>2017-03-12T11:38:46+01:00</time>
      </trkpt>
      <trkpt lat="48.70653" lon="1.9859">
        <ele>117</ele>
        <time>2017-03-12T11:39:03+01:00</time>
      </trkpt>
      <trkpt lat="48.70652" lon="1.9859">
        <ele>118</ele>
        <time>2017-03-12T11:39:07+01:00</time>
      </trkpt>
      <trkpt lat="48.70652" lon="1.9859">
        <ele>119</ele>
        <time>2017-03-12T11:39:11+01:00</time>
      </trkpt>
      <trkpt lat="48.70653" lon="1.98587">
        <ele>119</ele>
        <time>2017-03-12T11:39:43+01:00</time>
      </trkpt>
      <trkpt lat="48.70654" lon="1.98579">
        <ele>119</ele>
        <time>2017-03-12T11:39:47+01:00</time>
      </trkpt>
      <trkpt lat="48.70655" lon="1.98568">
        <ele>119</ele>
        <time>2017-03-12T11:39:51+01:00</time>
      </trkpt>
      <trkpt lat="48.70657" lon="1.98557">
        <ele>118</ele>
        <time>2017-03-12T11:39:55+01:00</time>
      </trkpt>
      <trkpt lat="48.7066" lon="1.98548">
        <ele>119</ele>
        <time>2017-03-12T11:39:59+01:00</time>
      </trkpt>
      <trkpt lat="48.70663" lon="1.98541">
        <ele>118</ele>
        <time>2017-03-12T11:40:03+01:00</time>
      </trkpt>
      <trkpt lat="48.70666" lon="1.98536">
        <ele>120</ele>
        <time>2017-03-12T11:40:07+01:00</time>
      </trkpt>
      <trkpt lat="48.70668" lon="1.98531">
        <ele>122</ele>
        <time>2017-03-12T11:40:11+01:00</time>
      </trkpt>
      <trkpt lat="48.7067" lon="1.98524">
        <ele>123</ele>
        <time>2017-03-12T11:40:15+01:00</time>
      </trkpt>
      <trkpt lat="48.70675" lon="1.9852">
        <ele>123</ele>
        <time>2017-03-12T11:40:19+01:00</time>
      </trkpt>
      <trkpt lat="48.70677" lon="1.98514">
        <ele>122</ele>
        <time>2017-03-12T11:40:23+01:00</time>
      </trkpt>
      <trkpt lat="48.70677" lon="1.98506">
        <ele>120</ele>
        <time>2017-03-12T11:40:27+01:00</time>
      </trkpt>
      <trkpt lat="48.70679" lon="1.98499">
        <ele>120</ele>
        <time>2017-03-12T11:40:31+01:00</time>
      </trkpt>
      <trkpt lat="48.70682" lon="1.98493">
        <ele>121</ele>
        <time>2017-03-12T11:40:35+01:00</time>
      </trkpt>
      <trkpt lat="48.70684" lon="1.9849">
        <ele>120</ele>
        <time>2017-03-12T11:40:39+01:00</time>
      </trkpt>
      <trkpt lat="48.70684" lon="1.98487">
        <ele>123</ele>
        <time>2017-03-12T11:40:43+01:00</time>
      </trkpt>
      <trkpt lat="48.70676" lon="1.98479">
        <ele>122</ele>
        <time>2017-03-12T11:40:59+01:00</time>
      </trkpt>
      <trkpt lat="48.70675" lon="1.98475">
        <ele>123</ele>
        <time>2017-03-12T11:41:02+01:00</time>
      </trkpt>
      <trkpt lat="48.70672" lon="1.98472">
        <ele>124</ele>
        <time>2017-03-12T11:41:07+01:00</time>
      </trkpt>
      <trkpt lat="48.70667" lon="1.98468">
        <ele>126</ele>
        <time>2017-03-12T11:41:15+01:00</time>
      </trkpt>
      <trkpt lat="48.70664" lon="1.98464">
        <ele>129</ele>
        <time>2017-03-12T11:41:19+01:00</time>
      </trkpt>
      <trkpt lat="48.70664" lon="1.98455">
        <ele>129</ele>
        <time>2017-03-12T11:41:23+01:00</time>
      </trkpt>
      <trkpt lat="48.70663" lon="1.98447">
        <ele>128</ele>
        <time>2017-03-12T11:41:27+01:00</time>
      </trkpt>
      <trkpt lat="48.70663" lon="1.98441">
        <ele>128</ele>
        <time>2017-03-12T11:41:31+01:00</time>
      </trkpt>
      <trkpt lat="48.70663" lon="1.98437">
        <ele>127</ele>
        <time>2017-03-12T11:41:35+01:00</time>
      </trkpt>
      <trkpt lat="48.70664" lon="1.98427">
        <ele>127</ele>
        <time>2017-03-12T11:41:43+01:00</time>
      </trkpt>
      <trkpt lat="48.70661" lon="1.98424">
        <ele>125</ele>
        <time>2017-03-12T11:41:47+01:00</time>
      </trkpt>
      <trkpt lat="48.70659" lon="1.98417">
        <ele>125</ele>
        <time>2017-03-12T11:41:51+01:00</time>
      </trkpt>
      <trkpt lat="48.70661" lon="1.98407">
        <ele>124</ele>
        <time>2017-03-12T11:41:55+01:00</time>
      </trkpt>
      <trkpt lat="48.70663" lon="1.98399">
        <ele>125</ele>
        <time>2017-03-12T11:41:59+01:00</time>
      </trkpt>
      <trkpt lat="48.70664" lon="1.98394">
        <ele>125</ele>
        <time>2017-03-12T11:42:03+01:00</time>
      </trkpt>
      <trkpt lat="48.70667" lon="1.98392">
        <ele>127</ele>
        <time>2017-03-12T11:42:07+01:00</time>
      </trkpt>
      <trkpt lat="48.70668" lon="1.98388">
        <ele>128</ele>
        <time>2017-03-12T11:42:11+01:00</time>
      </trkpt>
      <trkpt lat="48.70664" lon="1.98379">
        <ele>130</ele>
        <time>2017-03-12T11:42:19+01:00</time>
      </trkpt>
      <trkpt lat="48.70663" lon="1.98376">
        <ele>132</ele>
        <time>2017-03-12T11:42:23+01:00</time>
      </trkpt>
      <trkpt lat="48.70664" lon="1.9837">
        <ele>134</ele>
        <time>2017-03-12T11:42:27+01:00</time>
      </trkpt>
      <trkpt lat="48.7066" lon="1.98363">
        <ele>134</ele>
        <time>2017-03-12T11:42:31+01:00</time>
      </trkpt>
      <trkpt lat="48.70657" lon="1.98358">
        <ele>135</ele>
        <time>2017-03-12T11:42:35+01:00</time>
      </trkpt>
      <trkpt lat="48.70659" lon="1.98353">
        <ele>137</ele>
        <time>2017-03-12T11:42:39+01:00</time>
      </trkpt>
      <trkpt lat="48.70649" lon="1.98352">
        <ele>144</ele>
        <time>2017-03-12T11:43:15+01:00</time>
      </trkpt>
      <trkpt lat="48.70647" lon="1.98348">
        <ele>147</ele>
        <time>2017-03-12T11:43:19+01:00</time>
      </trkpt>
      <trkpt lat="48.70645" lon="1.98351">
        <ele>148</ele>
        <time>2017-03-12T11:43:23+01:00</time>
      </trkpt>
      <trkpt lat="48.70638" lon="1.98353">
        <ele>147</ele>
        <time>2017-03-12T11:43:39+01:00</time>
      </trkpt>
      <trkpt lat="48.70635" lon="1.98356">
        <ele>147</ele>
        <time>2017-03-12T11:43:43+01:00</time>
      </trkpt>
      <trkpt lat="48.70631" lon="1.98356">
        <ele>148</ele>
        <time>2017-03-12T11:43:47+01:00</time>
      </trkpt>
      <trkpt lat="48.70627" lon="1.98353">
        <ele>147</ele>
        <time>2017-03-12T11:43:51+01:00</time>
      </trkpt>
      <trkpt lat="48.70624" lon="1.98349">
        <ele>147</ele>
        <time>2017-03-12T11:43:55+01:00</time>
      </trkpt>
      <trkpt lat="48.70622" lon="1.98345">
        <ele>148</ele>
        <time>2017-03-12T11:43:59+01:00</time>
      </trkpt>
      <trkpt lat="48.70621" lon="1.98339">
        <ele>150</ele>
        <time>2017-03-12T11:44:03+01:00</time>
      </trkpt>
      <trkpt lat="48.7062" lon="1.98333">
        <ele>150</ele>
        <time>2017-03-12T11:44:07+01:00</time>
      </trkpt>
      <trkpt lat="48.70617" lon="1.98328">
        <ele>149</ele>
        <time>2017-03-12T11:44:10+01:00</time>
      </trkpt>
      <trkpt lat="48.70616" lon="1.98323">
        <ele>149</ele>
        <time>2017-03-12T11:44:15+01:00</time>
      </trkpt>
      <trkpt lat="48.70613" lon="1.98318">
        <ele>150</ele>
        <time>2017-03-12T11:44:19+01:00</time>
      </trkpt>
      <trkpt lat="48.70612" lon="1.98314">
        <ele>151</ele>
        <time>2017-03-12T11:44:23+01:00</time>
      </trkpt>
      <trkpt lat="48.70613" lon="1.98303">
        <ele>152</ele>
        <time>2017-03-12T11:44:31+01:00</time>
      </trkpt>
      <trkpt lat="48.70614" lon="1.98299">
        <ele>153</ele>
        <time>2017-03-12T11:44:35+01:00</time>
      </trkpt>
      <trkpt lat="48.70612" lon="1.98294">
        <ele>151</ele>
        <time>2017-03-12T11:44:39+01:00</time>
      </trkpt>
      <trkpt lat="48.70607" lon="1.98288">
        <ele>152</ele>
        <time>2017-03-12T11:44:42+01:00</time>
      </trkpt>
      <trkpt lat="48.70601" lon="1.98281">
        <ele>152</ele>
        <time>2017-03-12T11:44:47+01:00</time>
      </trkpt>
      <trkpt lat="48.70601" lon="1.98275">
        <ele>152</ele>
        <time>2017-03-12T11:44:51+01:00</time>
      </trkpt>
      <trkpt lat="48.706" lon="1.98265">
        <ele>151</ele>
        <time>2017-03-12T11:44:59+01:00</time>
      </trkpt>
      <trkpt lat="48.70602" lon="1.98262">
        <ele>153</ele>
        <time>2017-03-12T11:45:03+01:00</time>
      </trkpt>
      <trkpt lat="48.70604" lon="1.98253">
        <ele>152</ele>
        <time>2017-03-12T11:45:07+01:00</time>
      </trkpt>
      <trkpt lat="48.70604" lon="1.98244">
        <ele>154</ele>
        <time>2017-03-12T11:45:11+01:00</time>
      </trkpt>
      <trkpt lat="48.70602" lon="1.98239">
        <ele>154</ele>
        <time>2017-03-12T11:45:15+01:00</time>
      </trkpt>
      <trkpt lat="48.70597" lon="1.98235">
        <ele>153</ele>
        <time>2017-03-12T11:45:19+01:00</time>
      </trkpt>
      <trkpt lat="48.70597" lon="1.98228">
        <ele>153</ele>
        <time>2017-03-12T11:45:23+01:00</time>
      </trkpt>
      <trkpt lat="48.70598" lon="1.98221">
        <ele>154</ele>
        <time>2017-03-12T11:45:27+01:00</time>
      </trkpt>
      <trkpt lat="48.70599" lon="1.98213">
        <ele>154</ele>
        <time>2017-03-12T11:45:31+01:00</time>
      </trkpt>
      <trkpt lat="48.706" lon="1.98206">
        <ele>155</ele>
        <time>2017-03-12T11:45:34+01:00</time>
      </trkpt>
      <trkpt lat="48.70599" lon="1.98201">
        <ele>156</ele>
        <time>2017-03-12T11:45:38+01:00</time>
      </trkpt>
      <trkpt lat="48.70597" lon="1.98192">
        <ele>156</ele>
        <time>2017-03-12T11:45:46+01:00</time>
      </trkpt>
      <trkpt lat="48.70596" lon="1.98186">
        <ele>156</ele>
        <time>2017-03-12T11:45:51+01:00</time>
      </trkpt>
      <trkpt lat="48.70596" lon="1.98179">
        <ele>155</ele>
        <time>2017-03-12T11:45:55+01:00</time>
      </trkpt>
      <trkpt lat="48.70598" lon="1.98172">
        <ele>154</ele>
        <time>2017-03-12T11:45:59+01:00</time>
      </trkpt>
      <trkpt lat="48.70601" lon="1.98161">
        <ele>150</ele>
        <time>2017-03-12T11:46:03+01:00</time>
      </trkpt>
      <trkpt lat="48.70603" lon="1.98156">
        <ele>149</ele>
        <time>2017-03-12T11:46:07+01:00</time>
      </trkpt>
      <trkpt lat="48.70605" lon="1.98149">
        <ele>150</ele>
        <time>2017-03-12T11:46:11+01:00</time>
      </trkpt>
      <trkpt lat="48.70604" lon="1.98141">
        <ele>151</ele>
        <time>2017-03-12T11:46:15+01:00</time>
      </trkpt>
      <trkpt lat="48.70604" lon="1.98133">
        <ele>147</ele>
        <time>2017-03-12T11:46:19+01:00</time>
      </trkpt>
      <trkpt lat="48.70604" lon="1.98124">
        <ele>147</ele>
        <time>2017-03-12T11:46:23+01:00</time>
      </trkpt>
      <trkpt lat="48.70605" lon="1.98114">
        <ele>147</ele>
        <time>2017-03-12T11:46:27+01:00</time>
      </trkpt>
      <trkpt lat="48.70607" lon="1.98106">
        <ele>150</ele>
        <time>2017-03-12T11:46:31+01:00</time>
      </trkpt>
      <trkpt lat="48.70609" lon="1.98098">
        <ele>150</ele>
        <time>2017-03-12T11:46:35+01:00</time>
      </trkpt>
      <trkpt lat="48.70609" lon="1.9809">
        <ele>153</ele>
        <time>2017-03-12T11:46:39+01:00</time>
      </trkpt>
      <trkpt lat="48.70609" lon="1.98082">
        <ele>153</ele>
        <time>2017-03-12T11:46:43+01:00</time>
      </trkpt>
      <trkpt lat="48.7061" lon="1.98074">
        <ele>153</ele>
        <time>2017-03-12T11:46:47+01:00</time>
      </trkpt>
      <trkpt lat="48.70611" lon="1.98066">
        <ele>153</ele>
        <time>2017-03-12T11:46:51+01:00</time>
      </trkpt>
      <trkpt lat="48.7061" lon="1.98056">
        <ele>153</ele>
        <time>2017-03-12T11:46:54+01:00</time>
      </trkpt>
      <trkpt lat="48.70608" lon="1.98047">
        <ele>150</ele>
        <time>2017-03-12T11:46:59+01:00</time>
      </trkpt>
      <trkpt lat="48.70608" lon="1.98038">
        <ele>151</ele>
        <time>2017-03-12T11:47:03+01:00</time>
      </trkpt>
      <trkpt lat="48.70609" lon="1.9803">
        <ele>150</ele>
        <time>2017-03-12T11:47:07+01:00</time>
      </trkpt>
      <trkpt lat="48.70608" lon="1.98022">
        <ele>149</ele>
        <time>2017-03-12T11:47:11+01:00</time>
      </trkpt>
      <trkpt lat="48.70609" lon="1.98016">
        <ele>148</ele>
        <time>2017-03-12T11:47:15+01:00</time>
      </trkpt>
      <trkpt lat="48.70609" lon="1.98012">
        <ele>149</ele>
        <time>2017-03-12T11:47:19+01:00</time>
      </trkpt>
      <trkpt lat="48.70609" lon="1.98003">
        <ele>148</ele>
        <time>2017-03-12T11:47:23+01:00</time>
      </trkpt>
      <trkpt lat="48.70608" lon="1.97994">
        <ele>148</ele>
        <time>2017-03-12T11:47:26+01:00</time>
      </trkpt>
      <trkpt lat="48.70606" lon="1.97986">
        <ele>146</ele>
        <time>2017-03-12T11:47:31+01:00</time>
      </trkpt>
      <trkpt lat="48.70601" lon="1.97981">
        <ele>148</ele>
        <time>2017-03-12T11:47:39+01:00</time>
      </trkpt>
      <trkpt lat="48.70599" lon="1.97976">
        <ele>148</ele>
        <time>2017-03-12T11:47:43+01:00</time>
      </trkpt>
      <trkpt lat="48.70596" lon="1.97971">
        <ele>148</ele>
        <time>2017-03-12T11:47:47+01:00</time>
      </trkpt>
      <trkpt lat="48.70593" lon="1.97966">
        <ele>148</ele>
        <time>2017-03-12T11:47:51+01:00</time>
      </trkpt>
      <trkpt lat="48.70588" lon="1.97962">
        <ele>148</ele>
        <time>2017-03-12T11:47:55+01:00</time>
      </trkpt>
      <trkpt lat="48.70585" lon="1.9796">
        <ele>148</ele>
        <time>2017-03-12T11:47:59+01:00</time>
      </trkpt>
      <trkpt lat="48.70582" lon="1.97956">
        <ele>148</ele>
        <time>2017-03-12T11:48:03+01:00</time>
      </trkpt>
      <trkpt lat="48.70581" lon="1.97949">
        <ele>148</ele>
        <time>2017-03-12T11:48:08+01:00</time>
      </trkpt>
      <trkpt lat="48.70576" lon="1.97943">
        <ele>149</ele>
        <time>2017-03-12T11:48:12+01:00</time>
      </trkpt>
      <trkpt lat="48.70572" lon="1.97935">
        <ele>150</ele>
        <time>2017-03-12T11:48:16+01:00</time>
      </trkpt>
      <trkpt lat="48.70566" lon="1.97927">
        <ele>150</ele>
        <time>2017-03-12T11:48:20+01:00</time>
      </trkpt>
      <trkpt lat="48.70562" lon="1.97922">
        <ele>151</ele>
        <time>2017-03-12T11:48:24+01:00</time>
      </trkpt>
      <trkpt lat="48.70556" lon="1.97922">
        <ele>150</ele>
        <time>2017-03-12T11:48:28+01:00</time>
      </trkpt>
      <trkpt lat="48.70553" lon="1.9792">
        <ele>149</ele>
        <time>2017-03-12T11:48:32+01:00</time>
      </trkpt>
      <trkpt lat="48.70548" lon="1.97917">
        <ele>149</ele>
        <time>2017-03-12T11:48:36+01:00</time>
      </trkpt>
      <trkpt lat="48.70545" lon="1.97914">
        <ele>152</ele>
        <time>2017-03-12T11:48:40+01:00</time>
      </trkpt>
      <trkpt lat="48.70539" lon="1.97912">
        <ele>153</ele>
        <time>2017-03-12T11:48:44+01:00</time>
      </trkpt>
      <trkpt lat="48.70533" lon="1.97908">
        <ele>154</ele>
        <time>2017-03-12T11:48:48+01:00</time>
      </trkpt>
      <trkpt lat="48.70527" lon="1.97904">
        <ele>154</ele>
        <time>2017-03-12T11:48:52+01:00</time>
      </trkpt>
      <trkpt lat="48.70521" lon="1.97901">
        <ele>152</ele>
        <time>2017-03-12T11:48:56+01:00</time>
      </trkpt>
      <trkpt lat="48.70516" lon="1.97901">
        <ele>154</ele>
        <time>2017-03-12T11:49:00+01:00</time>
      </trkpt>
      <trkpt lat="48.70512" lon="1.979">
        <ele>153</ele>
        <time>2017-03-12T11:49:04+01:00</time>
      </trkpt>
      <trkpt lat="48.70508" lon="1.97897">
        <ele>151</ele>
        <time>2017-03-12T11:49:08+01:00</time>
      </trkpt>
      <trkpt lat="48.70504" lon="1.97895">
        <ele>152</ele>
        <time>2017-03-12T11:49:12+01:00</time>
      </trkpt>
      <trkpt lat="48.70498" lon="1.97889">
        <ele>152</ele>
        <time>2017-03-12T11:49:16+01:00</time>
      </trkpt>
      <trkpt lat="48.70495" lon="1.97883">
        <ele>153</ele>
        <time>2017-03-12T11:49:20+01:00</time>
      </trkpt>
      <trkpt lat="48.7049" lon="1.97879">
        <ele>154</ele>
        <time>2017-03-12T11:49:24+01:00</time>
      </trkpt>
      <trkpt lat="48.70485" lon="1.97877">
        <ele>154</ele>
        <time>2017-03-12T11:49:28+01:00</time>
      </trkpt>
      <trkpt lat="48.70481" lon="1.97875">
        <ele>155</ele>
        <time>2017-03-12T11:49:32+01:00</time>
      </trkpt>
      <trkpt lat="48.70476" lon="1.97871">
        <ele>156</ele>
        <time>2017-03-12T11:49:36+01:00</time>
      </trkpt>
      <trkpt lat="48.70471" lon="1.97864">
        <ele>156</ele>
        <time>2017-03-12T11:49:40+01:00</time>
      </trkpt>
      <trkpt lat="48.70467" lon="1.97861">
        <ele>157</ele>
        <time>2017-03-12T11:49:44+01:00</time>
      </trkpt>
      <trkpt lat="48.70463" lon="1.97858">
        <ele>157</ele>
        <time>2017-03-12T11:49:48+01:00</time>
      </trkpt>
      <trkpt lat="48.70461" lon="1.97854">
        <ele>156</ele>
        <time>2017-03-12T11:49:52+01:00</time>
      </trkpt>
      <trkpt lat="48.70458" lon="1.97849">
        <ele>156</ele>
        <time>2017-03-12T11:49:56+01:00</time>
      </trkpt>
      <trkpt lat="48.70456" lon="1.97844">
        <ele>155</ele>
        <time>2017-03-12T11:50:00+01:00</time>
      </trkpt>
      <trkpt lat="48.70452" lon="1.97838">
        <ele>156</ele>
        <time>2017-03-12T11:50:04+01:00</time>
      </trkpt>
      <trkpt lat="48.70449" lon="1.97833">
        <ele>158</ele>
        <time>2017-03-12T11:50:08+01:00</time>
      </trkpt>
      <trkpt lat="48.70444" lon="1.97829">
        <ele>161</ele>
        <time>2017-03-12T11:50:16+01:00</time>
      </trkpt>
      <trkpt lat="48.70441" lon="1.97825">
        <ele>162</ele>
        <time>2017-03-12T11:50:20+01:00</time>
      </trkpt>
      <trkpt lat="48.70436" lon="1.97819">
        <ele>164</ele>
        <time>2017-03-12T11:50:24+01:00</time>
      </trkpt>
      <trkpt lat="48.70432" lon="1.97812">
        <ele>164</ele>
        <time>2017-03-12T11:50:28+01:00</time>
      </trkpt>
      <trkpt lat="48.70427" lon="1.97808">
        <ele>166</ele>
        <time>2017-03-12T11:50:32+01:00</time>
      </trkpt>
      <trkpt lat="48.70424" lon="1.97806">
        <ele>167</ele>
        <time>2017-03-12T11:50:36+01:00</time>
      </trkpt>
      <trkpt lat="48.70422" lon="1.97803">
        <ele>167</ele>
        <time>2017-03-12T11:50:40+01:00</time>
      </trkpt>
      <trkpt lat="48.70418" lon="1.97801">
        <ele>168</ele>
        <time>2017-03-12T11:50:44+01:00</time>
      </trkpt>
      <trkpt lat="48.70411" lon="1.97795">
        <ele>167</ele>
        <time>2017-03-12T11:50:48+01:00</time>
      </trkpt>
      <trkpt lat="48.70407" lon="1.97793">
        <ele>167</ele>
        <time>2017-03-12T11:50:52+01:00</time>
      </trkpt>
      <trkpt lat="48.70401" lon="1.97792">
        <ele>167</ele>
        <time>2017-03-12T11:50:56+01:00</time>
      </trkpt>
      <trkpt lat="48.70395" lon="1.97788">
        <ele>170</ele>
        <time>2017-03-12T11:51:00+01:00</time>
      </trkpt>
      <trkpt lat="48.70392" lon="1.97785">
        <ele>170</ele>
        <time>2017-03-12T11:51:04+01:00</time>
      </trkpt>
      <trkpt lat="48.70389" lon="1.97781">
        <ele>170</ele>
        <time>2017-03-12T11:51:08+01:00</time>
      </trkpt>
      <trkpt lat="48.70385" lon="1.97777">
        <ele>171</ele>
        <time>2017-03-12T11:51:12+01:00</time>
      </trkpt>
      <trkpt lat="48.70379" lon="1.97772">
        <ele>169</ele>
        <time>2017-03-12T11:51:16+01:00</time>
      </trkpt>
      <trkpt lat="48.70375" lon="1.97769">
        <ele>169</ele>
        <time>2017-03-12T11:51:20+01:00</time>
      </trkpt>
      <trkpt lat="48.70371" lon="1.97765">
        <ele>170</ele>
        <time>2017-03-12T11:51:24+01:00</time>
      </trkpt>
      <trkpt lat="48.70364" lon="1.97757">
        <ele>170</ele>
        <time>2017-03-12T11:51:28+01:00</time>
      </trkpt>
      <trkpt lat="48.70361" lon="1.97748">
        <ele>170</ele>
        <time>2017-03-12T11:51:32+01:00</time>
      </trkpt>
      <trkpt lat="48.70357" lon="1.97744">
        <ele>169</ele>
        <time>2017-03-12T11:51:36+01:00</time>
      </trkpt>
      <trkpt lat="48.70352" lon="1.9774">
        <ele>169</ele>
        <time>2017-03-12T11:51:40+01:00</time>
      </trkpt>
      <trkpt lat="48.70346" lon="1.97739">
        <ele>169</ele>
        <time>2017-03-12T11:51:44+01:00</time>
      </trkpt>
      <trkpt lat="48.70341" lon="1.97738">
        <ele>169</ele>
        <time>2017-03-12T11:51:48+01:00</time>
      </trkpt>
      <trkpt lat="48.70338" lon="1.97733">
        <ele>167</ele>
        <time>2017-03-12T11:51:52+01:00</time>
      </trkpt>
      <trkpt lat="48.70337" lon="1.97726">
        <ele>167</ele>
        <time>2017-03-12T11:51:56+01:00</time>
      </trkpt>
      <trkpt lat="48.70334" lon="1.97716">
        <ele>166</ele>
        <time>2017-03-12T11:52:00+01:00</time>
      </trkpt>
      <trkpt lat="48.70333" lon="1.97707">
        <ele>165</ele>
        <time>2017-03-12T11:52:04+01:00</time>
      </trkpt>
      <trkpt lat="48.70331" lon="1.977">
        <ele>166</ele>
        <time>2017-03-12T11:52:08+01:00</time>
      </trkpt>
      <trkpt lat="48.70331" lon="1.97693">
        <ele>166</ele>
        <time>2017-03-12T11:52:12+01:00</time>
      </trkpt>
      <trkpt lat="48.70332" lon="1.97685">
        <ele>168</ele>
        <time>2017-03-12T11:52:16+01:00</time>
      </trkpt>
      <trkpt lat="48.70333" lon="1.97678">
        <ele>169</ele>
        <time>2017-03-12T11:52:20+01:00</time>
      </trkpt>
      <trkpt lat="48.70333" lon="1.97669">
        <ele>172</ele>
        <time>2017-03-12T11:52:24+01:00</time>
      </trkpt>
      <trkpt lat="48.70334" lon="1.97659">
        <ele>171</ele>
        <time>2017-03-12T11:52:28+01:00</time>
      </trkpt>
      <trkpt lat="48.70336" lon="1.97648">
        <ele>168</ele>
        <time>2017-03-12T11:52:32+01:00</time>
      </trkpt>
      <trkpt lat="48.70335" lon="1.97639">
        <ele>166</ele>
        <time>2017-03-12T11:52:36+01:00</time>
      </trkpt>
      <trkpt lat="48.70334" lon="1.97632">
        <ele>166</ele>
        <time>2017-03-12T11:52:40+01:00</time>
      </trkpt>
      <trkpt lat="48.70336" lon="1.97623">
        <ele>167</ele>
        <time>2017-03-12T11:52:44+01:00</time>
      </trkpt>
      <trkpt lat="48.70338" lon="1.97616">
        <ele>162</ele>
        <time>2017-03-12T11:52:48+01:00</time>
      </trkpt>
      <trkpt lat="48.70339" lon="1.97606">
        <ele>161</ele>
        <time>2017-03-12T11:52:52+01:00</time>
      </trkpt>
      <trkpt lat="48.70342" lon="1.97596">
        <ele>159</ele>
        <time>2017-03-12T11:52:56+01:00</time>
      </trkpt>
      <trkpt lat="48.70345" lon="1.97585">
        <ele>159</ele>
        <time>2017-03-12T11:53:00+01:00</time>
      </trkpt>
      <trkpt lat="48.70347" lon="1.97578">
        <ele>160</ele>
        <time>2017-03-12T11:53:04+01:00</time>
      </trkpt>
      <trkpt lat="48.7035" lon="1.97571">
        <ele>160</ele>
        <time>2017-03-12T11:53:08+01:00</time>
      </trkpt>
      <trkpt lat="48.70352" lon="1.97564">
        <ele>161</ele>
        <time>2017-03-12T11:53:12+01:00</time>
      </trkpt>
      <trkpt lat="48.70355" lon="1.97557">
        <ele>161</ele>
        <time>2017-03-12T11:53:16+01:00</time>
      </trkpt>
      <trkpt lat="48.70357" lon="1.97549">
        <ele>160</ele>
        <time>2017-03-12T11:53:20+01:00</time>
      </trkpt>
      <trkpt lat="48.70357" lon="1.9754">
        <ele>162</ele>
        <time>2017-03-12T11:53:24+01:00</time>
      </trkpt>
      <trkpt lat="48.70357" lon="1.97531">
        <ele>158</ele>
        <time>2017-03-12T11:53:28+01:00</time>
      </trkpt>
      <trkpt lat="48.70357" lon="1.97523">
        <ele>158</ele>
        <time>2017-03-12T11:53:32+01:00</time>
      </trkpt>
      <trkpt lat="48.70357" lon="1.97516">
        <ele>158</ele>
        <time>2017-03-12T11:53:36+01:00</time>
      </trkpt>
      <trkpt lat="48.70358" lon="1.97508">
        <ele>157</ele>
        <time>2017-03-12T11:53:40+01:00</time>
      </trkpt>
      <trkpt lat="48.70357" lon="1.975">
        <ele>158</ele>
        <time>2017-03-12T11:53:44+01:00</time>
      </trkpt>
      <trkpt lat="48.70357" lon="1.97491">
        <ele>158</ele>
        <time>2017-03-12T11:53:48+01:00</time>
      </trkpt>
      <trkpt lat="48.70358" lon="1.9748">
        <ele>158</ele>
        <time>2017-03-12T11:53:52+01:00</time>
      </trkpt>
      <trkpt lat="48.70361" lon="1.97471">
        <ele>156</ele>
        <time>2017-03-12T11:53:56+01:00</time>
      </trkpt>
      <trkpt lat="48.70362" lon="1.97463">
        <ele>157</ele>
        <time>2017-03-12T11:54:00+01:00</time>
      </trkpt>
      <trkpt lat="48.70364" lon="1.97455">
        <ele>156</ele>
        <time>2017-03-12T11:54:04+01:00</time>
      </trkpt>
      <trkpt lat="48.70366" lon="1.97449">
        <ele>155</ele>
        <time>2017-03-12T11:54:08+01:00</time>
      </trkpt>
      <trkpt lat="48.70365" lon="1.97443">
        <ele>154</ele>
        <time>2017-03-12T11:54:12+01:00</time>
      </trkpt>
      <trkpt lat="48.70365" lon="1.97436">
        <ele>156</ele>
        <time>2017-03-12T11:54:16+01:00</time>
      </trkpt>
      <trkpt lat="48.70366" lon="1.97429">
        <ele>155</ele>
        <time>2017-03-12T11:54:20+01:00</time>
      </trkpt>
      <trkpt lat="48.70368" lon="1.97422">
        <ele>155</ele>
        <time>2017-03-12T11:54:24+01:00</time>
      </trkpt>
      <trkpt lat="48.70371" lon="1.97418">
        <ele>155</ele>
        <time>2017-03-12T11:54:28+01:00</time>
      </trkpt>
      <trkpt lat="48.70374" lon="1.97411">
        <ele>155</ele>
        <time>2017-03-12T11:54:32+01:00</time>
      </trkpt>
      <trkpt lat="48.70375" lon="1.97402">
        <ele>157</ele>
        <time>2017-03-12T11:54:36+01:00</time>
      </trkpt>
      <trkpt lat="48.70375" lon="1.97393">
        <ele>158</ele>
        <time>2017-03-12T11:54:40+01:00</time>
      </trkpt>
      <trkpt lat="48.70378" lon="1.97384">
        <ele>160</ele>
        <time>2017-03-12T11:54:44+01:00</time>
      </trkpt>
      <trkpt lat="48.70382" lon="1.97373">
        <ele>158</ele>
        <time>2017-03-12T11:54:48+01:00</time>
      </trkpt>
      <trkpt lat="48.70383" lon="1.97362">
        <ele>155</ele>
        <time>2017-03-12T11:54:52+01:00</time>
      </trkpt>
      <trkpt lat="48.70384" lon="1.97353">
        <ele>155</ele>
        <time>2017-03-12T11:54:56+01:00</time>
      </trkpt>
      <trkpt lat="48.70388" lon="1.97346">
        <ele>158</ele>
        <time>2017-03-12T11:55:00+01:00</time>
      </trkpt>
      <trkpt lat="48.70392" lon="1.97338">
        <ele>160</ele>
        <time>2017-03-12T11:55:04+01:00</time>
      </trkpt>
      <trkpt lat="48.70392" lon="1.97328">
        <ele>162</ele>
        <time>2017-03-12T11:55:08+01:00</time>
      </trkpt>
      <trkpt lat="48.70392" lon="1.97321">
        <ele>160</ele>
        <time>2017-03-12T11:55:12+01:00</time>
      </trkpt>
      <trkpt lat="48.70393" lon="1.97313">
        <ele>161</ele>
        <time>2017-03-12T11:55:16+01:00</time>
      </trkpt>
      <trkpt lat="48.70394" lon="1.97306">
        <ele>162</ele>
        <time>2017-03-12T11:55:20+01:00</time>
      </trkpt>
      <trkpt lat="48.70398" lon="1.97299">
        <ele>163</ele>
        <time>2017-03-12T11:55:24+01:00</time>
      </trkpt>
      <trkpt lat="48.704" lon="1.97289">
        <ele>163</ele>
        <time>2017-03-12T11:55:28+01:00</time>
      </trkpt>
      <trkpt lat="48.70403" lon="1.97279">
        <ele>163</ele>
        <time>2017-03-12T11:55:32+01:00</time>
      </trkpt>
      <trkpt lat="48.70404" lon="1.97272">
        <ele>165</ele>
        <time>2017-03-12T11:55:36+01:00</time>
      </trkpt>
      <trkpt lat="48.70407" lon="1.97267">
        <ele>166</ele>
        <time>2017-03-12T11:55:40+01:00</time>
      </trkpt>
      <trkpt lat="48.70411" lon="1.97264">
        <ele>169</ele>
        <time>2017-03-12T11:55:44+01:00</time>
      </trkpt>
      <trkpt lat="48.70415" lon="1.97257">
        <ele>173</ele>
        <time>2017-03-12T11:55:48+01:00</time>
      </trkpt>
      <trkpt lat="48.70418" lon="1.97251">
        <ele>173</ele>
        <time>2017-03-12T11:55:52+01:00</time>
      </trkpt>
      <trkpt lat="48.70424" lon="1.97246">
        <ele>171</ele>
        <time>2017-03-12T11:55:56+01:00</time>
      </trkpt>
      <trkpt lat="48.7043" lon="1.97241">
        <ele>172</ele>
        <time>2017-03-12T11:56:00+01:00</time>
      </trkpt>
      <trkpt lat="48.70435" lon="1.97236">
        <ele>172</ele>
        <time>2017-03-12T11:56:04+01:00</time>
      </trkpt>
      <trkpt lat="48.70441" lon="1.97232">
        <ele>173</ele>
        <time>2017-03-12T11:56:08+01:00</time>
      </trkpt>
      <trkpt lat="48.70445" lon="1.97231">
        <ele>172</ele>
        <time>2017-03-12T11:56:12+01:00</time>
      </trkpt>
      <trkpt lat="48.7045" lon="1.97228">
        <ele>170</ele>
        <time>2017-03-12T11:56:16+01:00</time>
      </trkpt>
      <trkpt lat="48.70456" lon="1.97226">
        <ele>171</ele>
        <time>2017-03-12T11:56:20+01:00</time>
      </trkpt>
      <trkpt lat="48.70461" lon="1.97223">
        <ele>170</ele>
        <time>2017-03-12T11:56:24+01:00</time>
      </trkpt>
      <trkpt lat="48.70466" lon="1.9722">
        <ele>171</ele>
        <time>2017-03-12T11:56:28+01:00</time>
      </trkpt>
      <trkpt lat="48.70472" lon="1.97215">
        <ele>173</ele>
        <time>2017-03-12T11:56:32+01:00</time>
      </trkpt>
      <trkpt lat="48.70478" lon="1.97213">
        <ele>174</ele>
        <time>2017-03-12T11:56:36+01:00</time>
      </trkpt>
      <trkpt lat="48.70483" lon="1.9721">
        <ele>174</ele>
        <time>2017-03-12T11:56:40+01:00</time>
      </trkpt>
      <trkpt lat="48.70488" lon="1.97205">
        <ele>174</ele>
        <time>2017-03-12T11:56:44+01:00</time>
      </trkpt>
      <trkpt lat="48.70493" lon="1.97204">
        <ele>174</ele>
        <time>2017-03-12T11:56:48+01:00</time>
      </trkpt>
      <trkpt lat="48.70498" lon="1.97205">
        <ele>175</ele>
        <time>2017-03-12T11:56:52+01:00</time>
      </trkpt>
      <trkpt lat="48.70504" lon="1.97201">
        <ele>176</ele>
        <time>2017-03-12T11:56:56+01:00</time>
      </trkpt>
      <trkpt lat="48.70509" lon="1.97199">
        <ele>178</ele>
        <time>2017-03-12T11:57:00+01:00</time>
      </trkpt>
      <trkpt lat="48.70515" lon="1.97197">
        <ele>177</ele>
        <time>2017-03-12T11:57:04+01:00</time>
      </trkpt>
      <trkpt lat="48.70521" lon="1.97196">
        <ele>177</ele>
        <time>2017-03-12T11:57:08+01:00</time>
      </trkpt>
      <trkpt lat="48.70527" lon="1.97195">
        <ele>175</ele>
        <time>2017-03-12T11:57:12+01:00</time>
      </trkpt>
      <trkpt lat="48.70534" lon="1.97195">
        <ele>173</ele>
        <time>2017-03-12T11:57:16+01:00</time>
      </trkpt>
      <trkpt lat="48.70539" lon="1.97193">
        <ele>172</ele>
        <time>2017-03-12T11:57:20+01:00</time>
      </trkpt>
      <trkpt lat="48.70543" lon="1.9719">
        <ele>170</ele>
        <time>2017-03-12T11:57:24+01:00</time>
      </trkpt>
      <trkpt lat="48.70548" lon="1.9719">
        <ele>171</ele>
        <time>2017-03-12T11:57:28+01:00</time>
      </trkpt>
      <trkpt lat="48.70553" lon="1.97187">
        <ele>171</ele>
        <time>2017-03-12T11:57:32+01:00</time>
      </trkpt>
      <trkpt lat="48.70556" lon="1.97185">
        <ele>168</ele>
        <time>2017-03-12T11:57:36+01:00</time>
      </trkpt>
      <trkpt lat="48.70561" lon="1.97189">
        <ele>167</ele>
        <time>2017-03-12T11:57:40+01:00</time>
      </trkpt>
      <trkpt lat="48.70565" lon="1.97193">
        <ele>168</ele>
        <time>2017-03-12T11:57:44+01:00</time>
      </trkpt>
      <trkpt lat="48.70571" lon="1.97193">
        <ele>168</ele>
        <time>2017-03-12T11:57:48+01:00</time>
      </trkpt>
      <trkpt lat="48.70577" lon="1.97191">
        <ele>167</ele>
        <time>2017-03-12T11:57:52+01:00</time>
      </trkpt>
      <trkpt lat="48.70584" lon="1.9719">
        <ele>168</ele>
        <time>2017-03-12T11:57:56+01:00</time>
      </trkpt>
      <trkpt lat="48.70587" lon="1.97188">
        <ele>167</ele>
        <time>2017-03-12T11:58:00+01:00</time>
      </trkpt>
      <trkpt lat="48.70591" lon="1.97186">
        <ele>168</ele>
        <time>2017-03-12T11:58:04+01:00</time>
      </trkpt>
      <trkpt lat="48.70596" lon="1.97186">
        <ele>168</ele>
        <time>2017-03-12T11:58:08+01:00</time>
      </trkpt>
      <trkpt lat="48.70602" lon="1.97188">
        <ele>167</ele>
        <time>2017-03-12T11:58:12+01:00</time>
      </trkpt>
      <trkpt lat="48.70607" lon="1.97191">
        <ele>167</ele>
        <time>2017-03-12T11:58:16+01:00</time>
      </trkpt>
      <trkpt lat="48.70613" lon="1.97191">
        <ele>167</ele>
        <time>2017-03-12T11:58:20+01:00</time>
      </trkpt>
      <trkpt lat="48.70618" lon="1.97193">
        <ele>167</ele>
        <time>2017-03-12T11:58:24+01:00</time>
      </trkpt>
      <trkpt lat="48.70621" lon="1.97194">
        <ele>169</ele>
        <time>2017-03-12T11:58:28+01:00</time>
      </trkpt>
      <trkpt lat="48.70626" lon="1.97195">
        <ele>169</ele>
        <time>2017-03-12T11:58:32+01:00</time>
      </trkpt>
      <trkpt lat="48.70631" lon="1.97195">
        <ele>169</ele>
        <time>2017-03-12T11:58:36+01:00</time>
      </trkpt>
      <trkpt lat="48.70634" lon="1.97193">
        <ele>170</ele>
        <time>2017-03-12T11:58:40+01:00</time>
      </trkpt>
      <trkpt lat="48.70638" lon="1.97193">
        <ele>168</ele>
        <time>2017-03-12T11:58:44+01:00</time>
      </trkpt>
      <trkpt lat="48.70643" lon="1.97193">
        <ele>167</ele>
        <time>2017-03-12T11:58:48+01:00</time>
      </trkpt>
      <trkpt lat="48.70647" lon="1.97192">
        <ele>169</ele>
        <time>2017-03-12T11:58:52+01:00</time>
      </trkpt>
      <trkpt lat="48.70652" lon="1.97193">
        <ele>169</ele>
        <time>2017-03-12T11:58:56+01:00</time>
      </trkpt>
      <trkpt lat="48.70656" lon="1.97195">
        <ele>171</ele>
        <time>2017-03-12T11:59:00+01:00</time>
      </trkpt>
      <trkpt lat="48.70663" lon="1.97196">
        <ele>171</ele>
        <time>2017-03-12T11:59:04+01:00</time>
      </trkpt>
      <trkpt lat="48.70668" lon="1.97197">
        <ele>170</ele>
        <time>2017-03-12T11:59:08+01:00</time>
      </trkpt>
      <trkpt lat="48.70672" lon="1.97196">
        <ele>171</ele>
        <time>2017-03-12T11:59:12+01:00</time>
      </trkpt>
      <trkpt lat="48.70678" lon="1.97196">
        <ele>172</ele>
        <time>2017-03-12T11:59:16+01:00</time>
      </trkpt>
      <trkpt lat="48.70683" lon="1.97196">
        <ele>170</ele>
        <time>2017-03-12T11:59:20+01:00</time>
      </trkpt>
      <trkpt lat="48.70688" lon="1.97196">
        <ele>170</ele>
        <time>2017-03-12T11:59:24+01:00</time>
      </trkpt>
      <trkpt lat="48.70695" lon="1.97195">
        <ele>169</ele>
        <time>2017-03-12T11:59:28+01:00</time>
      </trkpt>
      <trkpt lat="48.707" lon="1.97194">
        <ele>165</ele>
        <time>2017-03-12T11:59:32+01:00</time>
      </trkpt>
      <trkpt lat="48.70706" lon="1.97192">
        <ele>165</ele>
        <time>2017-03-12T11:59:36+01:00</time>
      </trkpt>
      <trkpt lat="48.7071" lon="1.97187">
        <ele>162</ele>
        <time>2017-03-12T11:59:40+01:00</time>
      </trkpt>
      <trkpt lat="48.70717" lon="1.97182">
        <ele>162</ele>
        <time>2017-03-12T11:59:44+01:00</time>
      </trkpt>
      <trkpt lat="48.70719" lon="1.97174">
        <ele>161</ele>
        <time>2017-03-12T11:59:48+01:00</time>
      </trkpt>
      <trkpt lat="48.70723" lon="1.97167">
        <ele>161</ele>
        <time>2017-03-12T11:59:52+01:00</time>
      </trkpt>
      <trkpt lat="48.70727" lon="1.9716">
        <ele>163</ele>
        <time>2017-03-12T11:59:56+01:00</time>
      </trkpt>
      <trkpt lat="48.70731" lon="1.97156">
        <ele>164</ele>
        <time>2017-03-12T12:00:00+01:00</time>
      </trkpt>
      <trkpt lat="48.70734" lon="1.97154">
        <ele>163</ele>
        <time>2017-03-12T12:00:04+01:00</time>
      </trkpt>
      <trkpt lat="48.70737" lon="1.97147">
        <ele>165</ele>
        <time>2017-03-12T12:00:08+01:00</time>
      </trkpt>
      <trkpt lat="48.7074" lon="1.97141">
        <ele>167</ele>
        <time>2017-03-12T12:00:12+01:00</time>
      </trkpt>
      <trkpt lat="48.70743" lon="1.97133">
        <ele>168</ele>
        <time>2017-03-12T12:00:16+01:00</time>
      </trkpt>
      <trkpt lat="48.70745" lon="1.97126">
        <ele>168</ele>
        <time>2017-03-12T12:00:20+01:00</time>
      </trkpt>
      <trkpt lat="48.70748" lon="1.97122">
        <ele>166</ele>
        <time>2017-03-12T12:00:53+01:00</time>
      </trkpt>
      <trkpt lat="48.70748" lon="1.97121">
        <ele>166</ele>
        <time>2017-03-12T12:00:57+01:00</time>
      </trkpt>
      <trkpt lat="48.70748" lon="1.97119">
        <ele>167</ele>
        <time>2017-03-12T12:01:01+01:00</time>
      </trkpt>
      <trkpt lat="48.7075" lon="1.97116">
        <ele>163</ele>
        <time>2017-03-12T12:04:33+01:00</time>
      </trkpt>
      <trkpt lat="48.70755" lon="1.97106">
        <ele>164</ele>
        <time>2017-03-12T12:04:37+01:00</time>
      </trkpt>
      <trkpt lat="48.7076" lon="1.97095">
        <ele>158</ele>
        <time>2017-03-12T12:04:41+01:00</time>
      </trkpt>
      <trkpt lat="48.70765" lon="1.97081">
        <ele>157</ele>
        <time>2017-03-12T12:04:45+01:00</time>
      </trkpt>
      <trkpt lat="48.70764" lon="1.97067">
        <ele>158</ele>
        <time>2017-03-12T12:04:49+01:00</time>
      </trkpt>
      <trkpt lat="48.70765" lon="1.97056">
        <ele>160</ele>
        <time>2017-03-12T12:04:53+01:00</time>
      </trkpt>
      <trkpt lat="48.70768" lon="1.97049">
        <ele>160</ele>
        <time>2017-03-12T12:04:57+01:00</time>
      </trkpt>
      <trkpt lat="48.70773" lon="1.97039">
        <ele>158</ele>
        <time>2017-03-12T12:05:01+01:00</time>
      </trkpt>
      <trkpt lat="48.70777" lon="1.97031">
        <ele>157</ele>
        <time>2017-03-12T12:05:05+01:00</time>
      </trkpt>
      <trkpt lat="48.7078" lon="1.97024">
        <ele>158</ele>
        <time>2017-03-12T12:05:09+01:00</time>
      </trkpt>
      <trkpt lat="48.70785" lon="1.97018">
        <ele>158</ele>
        <time>2017-03-12T12:05:13+01:00</time>
      </trkpt>
      <trkpt lat="48.70789" lon="1.97011">
        <ele>157</ele>
        <time>2017-03-12T12:05:17+01:00</time>
      </trkpt>
      <trkpt lat="48.70793" lon="1.97004">
        <ele>157</ele>
        <time>2017-03-12T12:05:21+01:00</time>
      </trkpt>
      <trkpt lat="48.70797" lon="1.96998">
        <ele>157</ele>
        <time>2017-03-12T12:05:25+01:00</time>
      </trkpt>
      <trkpt lat="48.708" lon="1.96992">
        <ele>155</ele>
        <time>2017-03-12T12:05:29+01:00</time>
      </trkpt>
      <trkpt lat="48.70804" lon="1.96987">
        <ele>156</ele>
        <time>2017-03-12T12:05:33+01:00</time>
      </trkpt>
      <trkpt lat="48.70807" lon="1.96981">
        <ele>158</ele>
        <time>2017-03-12T12:05:37+01:00</time>
      </trkpt>
      <trkpt lat="48.70811" lon="1.96976">
        <ele>156</ele>
        <time>2017-03-12T12:05:41+01:00</time>
      </trkpt>
      <trkpt lat="48.70815" lon="1.96972">
        <ele>155</ele>
        <time>2017-03-12T12:05:45+01:00</time>
      </trkpt>
      <trkpt lat="48.70819" lon="1.96967">
        <ele>156</ele>
        <time>2017-03-12T12:05:49+01:00</time>
      </trkpt>
      <trkpt lat="48.70824" lon="1.96961">
        <ele>155</ele>
        <time>2017-03-12T12:05:53+01:00</time>
      </trkpt>
      <trkpt lat="48.70827" lon="1.96953">
        <ele>155</ele>
        <time>2017-03-12T12:05:57+01:00</time>
      </trkpt>
      <trkpt lat="48.7083" lon="1.96946">
        <ele>155</ele>
        <time>2017-03-12T12:06:01+01:00</time>
      </trkpt>
      <trkpt lat="48.70833" lon="1.96938">
        <ele>160</ele>
        <time>2017-03-12T12:06:05+01:00</time>
      </trkpt>
      <trkpt lat="48.70836" lon="1.96932">
        <ele>160</ele>
        <time>2017-03-12T12:06:09+01:00</time>
      </trkpt>
      <trkpt lat="48.7084" lon="1.96926">
        <ele>160</ele>
        <time>2017-03-12T12:06:13+01:00</time>
      </trkpt>
      <trkpt lat="48.70844" lon="1.9692">
        <ele>161</ele>
        <time>2017-03-12T12:06:17+01:00</time>
      </trkpt>
      <trkpt lat="48.70849" lon="1.96915">
        <ele>160</ele>
        <time>2017-03-12T12:06:21+01:00</time>
      </trkpt>
      <trkpt lat="48.70853" lon="1.96909">
        <ele>160</ele>
        <time>2017-03-12T12:06:25+01:00</time>
      </trkpt>
      <trkpt lat="48.70856" lon="1.969">
        <ele>160</ele>
        <time>2017-03-12T12:06:29+01:00</time>
      </trkpt>
      <trkpt lat="48.7086" lon="1.96894">
        <ele>159</ele>
        <time>2017-03-12T12:06:33+01:00</time>
      </trkpt>
      <trkpt lat="48.70864" lon="1.96888">
        <ele>160</ele>
        <time>2017-03-12T12:06:37+01:00</time>
      </trkpt>
      <trkpt lat="48.70868" lon="1.96881">
        <ele>161</ele>
        <time>2017-03-12T12:06:41+01:00</time>
      </trkpt>
      <trkpt lat="48.70872" lon="1.96876">
        <ele>162</ele>
        <time>2017-03-12T12:06:45+01:00</time>
      </trkpt>
      <trkpt lat="48.70877" lon="1.96871">
        <ele>162</ele>
        <time>2017-03-12T12:06:49+01:00</time>
      </trkpt>
      <trkpt lat="48.70881" lon="1.96866">
        <ele>162</ele>
        <time>2017-03-12T12:06:53+01:00</time>
      </trkpt>
      <trkpt lat="48.70887" lon="1.96867">
        <ele>158</ele>
        <time>2017-03-12T12:06:57+01:00</time>
      </trkpt>
      <trkpt lat="48.70891" lon="1.96862">
        <ele>159</ele>
        <time>2017-03-12T12:07:01+01:00</time>
      </trkpt>
      <trkpt lat="48.70894" lon="1.96856">
        <ele>160</ele>
        <time>2017-03-12T12:07:05+01:00</time>
      </trkpt>
      <trkpt lat="48.70897" lon="1.96849">
        <ele>161</ele>
        <time>2017-03-12T12:07:09+01:00</time>
      </trkpt>
      <trkpt lat="48.709" lon="1.96841">
        <ele>163</ele>
        <time>2017-03-12T12:07:13+01:00</time>
      </trkpt>
      <trkpt lat="48.70902" lon="1.96832">
        <ele>163</ele>
        <time>2017-03-12T12:07:17+01:00</time>
      </trkpt>
      <trkpt lat="48.70905" lon="1.96821">
        <ele>162</ele>
        <time>2017-03-12T12:07:21+01:00</time>
      </trkpt>
      <trkpt lat="48.70908" lon="1.96814">
        <ele>162</ele>
        <time>2017-03-12T12:07:25+01:00</time>
      </trkpt>
      <trkpt lat="48.7091" lon="1.96804">
        <ele>159</ele>
        <time>2017-03-12T12:07:29+01:00</time>
      </trkpt>
      <trkpt lat="48.70913" lon="1.96796">
        <ele>158</ele>
        <time>2017-03-12T12:07:33+01:00</time>
      </trkpt>
      <trkpt lat="48.70918" lon="1.96797">
        <ele>159</ele>
        <time>2017-03-12T12:07:37+01:00</time>
      </trkpt>
      <trkpt lat="48.70924" lon="1.96808">
        <ele>157</ele>
        <time>2017-03-12T12:07:41+01:00</time>
      </trkpt>
      <trkpt lat="48.7093" lon="1.96813">
        <ele>156</ele>
        <time>2017-03-12T12:07:45+01:00</time>
      </trkpt>
      <trkpt lat="48.70936" lon="1.96815">
        <ele>157</ele>
        <time>2017-03-12T12:07:49+01:00</time>
      </trkpt>
      <trkpt lat="48.70941" lon="1.96818">
        <ele>156</ele>
        <time>2017-03-12T12:07:53+01:00</time>
      </trkpt>
      <trkpt lat="48.70947" lon="1.96821">
        <ele>155</ele>
        <time>2017-03-12T12:07:57+01:00</time>
      </trkpt>
      <trkpt lat="48.70953" lon="1.9682">
        <ele>153</ele>
        <time>2017-03-12T12:08:01+01:00</time>
      </trkpt>
      <trkpt lat="48.70958" lon="1.96817">
        <ele>155</ele>
        <time>2017-03-12T12:08:05+01:00</time>
      </trkpt>
      <trkpt lat="48.70964" lon="1.96814">
        <ele>157</ele>
        <time>2017-03-12T12:08:09+01:00</time>
      </trkpt>
      <trkpt lat="48.70969" lon="1.96808">
        <ele>158</ele>
        <time>2017-03-12T12:08:13+01:00</time>
      </trkpt>
      <trkpt lat="48.70974" lon="1.96803">
        <ele>158</ele>
        <time>2017-03-12T12:08:17+01:00</time>
      </trkpt>
      <trkpt lat="48.70979" lon="1.96802">
        <ele>155</ele>
        <time>2017-03-12T12:08:21+01:00</time>
      </trkpt>
      <trkpt lat="48.70985" lon="1.96801">
        <ele>155</ele>
        <time>2017-03-12T12:08:25+01:00</time>
      </trkpt>
      <trkpt lat="48.7099" lon="1.96798">
        <ele>156</ele>
        <time>2017-03-12T12:08:29+01:00</time>
      </trkpt>
      <trkpt lat="48.70997" lon="1.96799">
        <ele>156</ele>
        <time>2017-03-12T12:08:33+01:00</time>
      </trkpt>
      <trkpt lat="48.71003" lon="1.96798">
        <ele>157</ele>
        <time>2017-03-12T12:08:37+01:00</time>
      </trkpt>
      <trkpt lat="48.71008" lon="1.96796">
        <ele>158</ele>
        <time>2017-03-12T12:08:41+01:00</time>
      </trkpt>
      <trkpt lat="48.71014" lon="1.96797">
        <ele>157</ele>
        <time>2017-03-12T12:08:45+01:00</time>
      </trkpt>
      <trkpt lat="48.71019" lon="1.96794">
        <ele>159</ele>
        <time>2017-03-12T12:08:49+01:00</time>
      </trkpt>
      <trkpt lat="48.71024" lon="1.9679">
        <ele>158</ele>
        <time>2017-03-12T12:08:53+01:00</time>
      </trkpt>
      <trkpt lat="48.71029" lon="1.96791">
        <ele>157</ele>
        <time>2017-03-12T12:08:57+01:00</time>
      </trkpt>
      <trkpt lat="48.71035" lon="1.96793">
        <ele>159</ele>
        <time>2017-03-12T12:09:01+01:00</time>
      </trkpt>
      <trkpt lat="48.71041" lon="1.96793">
        <ele>158</ele>
        <time>2017-03-12T12:09:05+01:00</time>
      </trkpt>
      <trkpt lat="48.71047" lon="1.96791">
        <ele>158</ele>
        <time>2017-03-12T12:09:09+01:00</time>
      </trkpt>
      <trkpt lat="48.71052" lon="1.96785">
        <ele>157</ele>
        <time>2017-03-12T12:09:13+01:00</time>
      </trkpt>
      <trkpt lat="48.71057" lon="1.96778">
        <ele>158</ele>
        <time>2017-03-12T12:09:17+01:00</time>
      </trkpt>
      <trkpt lat="48.71062" lon="1.96775">
        <ele>159</ele>
        <time>2017-03-12T12:09:21+01:00</time>
      </trkpt>
      <trkpt lat="48.71067" lon="1.96776">
        <ele>160</ele>
        <time>2017-03-12T12:09:25+01:00</time>
      </trkpt>
      <trkpt lat="48.71072" lon="1.96776">
        <ele>161</ele>
        <time>2017-03-12T12:09:29+01:00</time>
      </trkpt>
      <trkpt lat="48.71076" lon="1.9677">
        <ele>160</ele>
        <time>2017-03-12T12:09:33+01:00</time>
      </trkpt>
      <trkpt lat="48.71081" lon="1.96768">
        <ele>160</ele>
        <time>2017-03-12T12:09:37+01:00</time>
      </trkpt>
      <trkpt lat="48.71087" lon="1.96766">
        <ele>160</ele>
        <time>2017-03-12T12:09:41+01:00</time>
      </trkpt>
      <trkpt lat="48.71093" lon="1.96765">
        <ele>162</ele>
        <time>2017-03-12T12:09:45+01:00</time>
      </trkpt>
      <trkpt lat="48.71097" lon="1.96761">
        <ele>164</ele>
        <time>2017-03-12T12:09:49+01:00</time>
      </trkpt>
      <trkpt lat="48.71102" lon="1.96758">
        <ele>163</ele>
        <time>2017-03-12T12:09:53+01:00</time>
      </trkpt>
      <trkpt lat="48.71108" lon="1.96757">
        <ele>163</ele>
        <time>2017-03-12T12:09:57+01:00</time>
      </trkpt>
      <trkpt lat="48.71113" lon="1.96759">
        <ele>165</ele>
        <time>2017-03-12T12:10:01+01:00</time>
      </trkpt>
      <trkpt lat="48.71121" lon="1.96759">
        <ele>164</ele>
        <time>2017-03-12T12:10:05+01:00</time>
      </trkpt>
      <trkpt lat="48.71127" lon="1.96755">
        <ele>163</ele>
        <time>2017-03-12T12:10:09+01:00</time>
      </trkpt>
      <trkpt lat="48.71133" lon="1.96751">
        <ele>164</ele>
        <time>2017-03-12T12:10:13+01:00</time>
      </trkpt>
      <trkpt lat="48.71138" lon="1.96749">
        <ele>164</ele>
        <time>2017-03-12T12:10:17+01:00</time>
      </trkpt>
      <trkpt lat="48.71144" lon="1.96747">
        <ele>164</ele>
        <time>2017-03-12T12:10:21+01:00</time>
      </trkpt>
      <trkpt lat="48.71148" lon="1.9675">
        <ele>166</ele>
        <time>2017-03-12T12:10:25+01:00</time>
      </trkpt>
      <trkpt lat="48.71153" lon="1.96749">
        <ele>167</ele>
        <time>2017-03-12T12:10:29+01:00</time>
      </trkpt>
      <trkpt lat="48.71159" lon="1.96748">
        <ele>166</ele>
        <time>2017-03-12T12:10:33+01:00</time>
      </trkpt>
      <trkpt lat="48.71165" lon="1.96752">
        <ele>164</ele>
        <time>2017-03-12T12:10:37+01:00</time>
      </trkpt>
      <trkpt lat="48.71171" lon="1.96753">
        <ele>164</ele>
        <time>2017-03-12T12:10:41+01:00</time>
      </trkpt>
      <trkpt lat="48.71176" lon="1.96751">
        <ele>163</ele>
        <time>2017-03-12T12:10:45+01:00</time>
      </trkpt>
      <trkpt lat="48.71181" lon="1.96749">
        <ele>164</ele>
        <time>2017-03-12T12:10:49+01:00</time>
      </trkpt>
      <trkpt lat="48.71185" lon="1.96751">
        <ele>165</ele>
        <time>2017-03-12T12:10:53+01:00</time>
      </trkpt>
      <trkpt lat="48.71188" lon="1.96754">
        <ele>162</ele>
        <time>2017-03-12T12:10:57+01:00</time>
      </trkpt>
      <trkpt lat="48.71191" lon="1.96756">
        <ele>164</ele>
        <time>2017-03-12T12:11:01+01:00</time>
      </trkpt>
      <trkpt lat="48.71197" lon="1.96757">
        <ele>163</ele>
        <time>2017-03-12T12:11:05+01:00</time>
      </trkpt>
      <trkpt lat="48.71201" lon="1.96758">
        <ele>166</ele>
        <time>2017-03-12T12:11:09+01:00</time>
      </trkpt>
      <trkpt lat="48.71205" lon="1.9676">
        <ele>165</ele>
        <time>2017-03-12T12:11:13+01:00</time>
      </trkpt>
      <trkpt lat="48.71208" lon="1.96764">
        <ele>166</ele>
        <time>2017-03-12T12:11:17+01:00</time>
      </trkpt>
      <trkpt lat="48.71213" lon="1.96765">
        <ele>166</ele>
        <time>2017-03-12T12:11:21+01:00</time>
      </trkpt>
      <trkpt lat="48.71218" lon="1.96768">
        <ele>166</ele>
        <time>2017-03-12T12:11:25+01:00</time>
      </trkpt>
      <trkpt lat="48.71219" lon="1.96773">
        <ele>165</ele>
        <time>2017-03-12T12:11:29+01:00</time>
      </trkpt>
      <trkpt lat="48.71224" lon="1.96774">
        <ele>164</ele>
        <time>2017-03-12T12:11:33+01:00</time>
      </trkpt>
      <trkpt lat="48.71229" lon="1.96776">
        <ele>163</ele>
        <time>2017-03-12T12:11:37+01:00</time>
      </trkpt>
      <trkpt lat="48.71234" lon="1.96776">
        <ele>163</ele>
        <time>2017-03-12T12:11:41+01:00</time>
      </trkpt>
      <trkpt lat="48.71238" lon="1.96781">
        <ele>159</ele>
        <time>2017-03-12T12:11:45+01:00</time>
      </trkpt>
      <trkpt lat="48.71241" lon="1.9679">
        <ele>159</ele>
        <time>2017-03-12T12:11:49+01:00</time>
      </trkpt>
      <trkpt lat="48.71243" lon="1.96799">
        <ele>158</ele>
        <time>2017-03-12T12:11:53+01:00</time>
      </trkpt>
      <trkpt lat="48.71246" lon="1.96806">
        <ele>157</ele>
        <time>2017-03-12T12:11:57+01:00</time>
      </trkpt>
      <trkpt lat="48.71249" lon="1.96812">
        <ele>157</ele>
        <time>2017-03-12T12:12:01+01:00</time>
      </trkpt>
      <trkpt lat="48.71254" lon="1.96817">
        <ele>157</ele>
        <time>2017-03-12T12:12:05+01:00</time>
      </trkpt>
      <trkpt lat="48.71258" lon="1.96822">
        <ele>158</ele>
        <time>2017-03-12T12:12:09+01:00</time>
      </trkpt>
      <trkpt lat="48.71265" lon="1.96824">
        <ele>156</ele>
        <time>2017-03-12T12:12:13+01:00</time>
      </trkpt>
      <trkpt lat="48.71268" lon="1.96829">
        <ele>153</ele>
        <time>2017-03-12T12:12:17+01:00</time>
      </trkpt>
      <trkpt lat="48.71274" lon="1.96832">
        <ele>150</ele>
        <time>2017-03-12T12:12:21+01:00</time>
      </trkpt>
      <trkpt lat="48.7128" lon="1.96834">
        <ele>150</ele>
        <time>2017-03-12T12:12:25+01:00</time>
      </trkpt>
      <trkpt lat="48.71285" lon="1.96837">
        <ele>148</ele>
        <time>2017-03-12T12:12:29+01:00</time>
      </trkpt>
      <trkpt lat="48.7129" lon="1.96839">
        <ele>147</ele>
        <time>2017-03-12T12:12:33+01:00</time>
      </trkpt>
      <trkpt lat="48.71293" lon="1.96845">
        <ele>148</ele>
        <time>2017-03-12T12:12:37+01:00</time>
      </trkpt>
      <trkpt lat="48.71297" lon="1.96849">
        <ele>143</ele>
        <time>2017-03-12T12:12:41+01:00</time>
      </trkpt>
      <trkpt lat="48.713" lon="1.96854">
        <ele>141</ele>
        <time>2017-03-12T12:12:45+01:00</time>
      </trkpt>
      <trkpt lat="48.71307" lon="1.96858">
        <ele>132</ele>
        <time>2017-03-12T12:12:53+01:00</time>
      </trkpt>
      <trkpt lat="48.71311" lon="1.96862">
        <ele>127</ele>
        <time>2017-03-12T12:12:57+01:00</time>
      </trkpt>
      <trkpt lat="48.71314" lon="1.96867">
        <ele>123</ele>
        <time>2017-03-12T12:13:01+01:00</time>
      </trkpt>
      <trkpt lat="48.71318" lon="1.96871">
        <ele>123</ele>
        <time>2017-03-12T12:13:05+01:00</time>
      </trkpt>
      <trkpt lat="48.7132" lon="1.96876">
        <ele>121</ele>
        <time>2017-03-12T12:13:09+01:00</time>
      </trkpt>
      <trkpt lat="48.71325" lon="1.9688">
        <ele>124</ele>
        <time>2017-03-12T12:13:13+01:00</time>
      </trkpt>
      <trkpt lat="48.71332" lon="1.96883">
        <ele>129</ele>
        <time>2017-03-12T12:13:17+01:00</time>
      </trkpt>
      <trkpt lat="48.7134" lon="1.96887">
        <ele>132</ele>
        <time>2017-03-12T12:13:21+01:00</time>
      </trkpt>
      <trkpt lat="48.71347" lon="1.96892">
        <ele>132</ele>
        <time>2017-03-12T12:13:25+01:00</time>
      </trkpt>
      <trkpt lat="48.71354" lon="1.96895">
        <ele>127</ele>
        <time>2017-03-12T12:13:29+01:00</time>
      </trkpt>
      <trkpt lat="48.7136" lon="1.96897">
        <ele>130</ele>
        <time>2017-03-12T12:13:33+01:00</time>
      </trkpt>
      <trkpt lat="48.71366" lon="1.96898">
        <ele>131</ele>
        <time>2017-03-12T12:13:37+01:00</time>
      </trkpt>
      <trkpt lat="48.71372" lon="1.96901">
        <ele>131</ele>
        <time>2017-03-12T12:13:41+01:00</time>
      </trkpt>
      <trkpt lat="48.71376" lon="1.96906">
        <ele>129</ele>
        <time>2017-03-12T12:13:45+01:00</time>
      </trkpt>
      <trkpt lat="48.71379" lon="1.96912">
        <ele>128</ele>
        <time>2017-03-12T12:13:49+01:00</time>
      </trkpt>
      <trkpt lat="48.71384" lon="1.96915">
        <ele>127</ele>
        <time>2017-03-12T12:13:53+01:00</time>
      </trkpt>
      <trkpt lat="48.71389" lon="1.96919">
        <ele>125</ele>
        <time>2017-03-12T12:13:57+01:00</time>
      </trkpt>
      <trkpt lat="48.71394" lon="1.96924">
        <ele>125</ele>
        <time>2017-03-12T12:14:01+01:00</time>
      </trkpt>
      <trkpt lat="48.714" lon="1.9693">
        <ele>122</ele>
        <time>2017-03-12T12:14:05+01:00</time>
      </trkpt>
      <trkpt lat="48.71405" lon="1.96934">
        <ele>122</ele>
        <time>2017-03-12T12:14:09+01:00</time>
      </trkpt>
      <trkpt lat="48.7141" lon="1.96938">
        <ele>123</ele>
        <time>2017-03-12T12:14:13+01:00</time>
      </trkpt>
      <trkpt lat="48.71417" lon="1.96939">
        <ele>122</ele>
        <time>2017-03-12T12:14:17+01:00</time>
      </trkpt>
      <trkpt lat="48.71425" lon="1.96941">
        <ele>120</ele>
        <time>2017-03-12T12:14:21+01:00</time>
      </trkpt>
      <trkpt lat="48.71431" lon="1.96943">
        <ele>118</ele>
        <time>2017-03-12T12:14:25+01:00</time>
      </trkpt>
      <trkpt lat="48.71435" lon="1.96945">
        <ele>118</ele>
        <time>2017-03-12T12:14:29+01:00</time>
      </trkpt>
      <trkpt lat="48.71439" lon="1.96948">
        <ele>116</ele>
        <time>2017-03-12T12:14:33+01:00</time>
      </trkpt>
      <trkpt lat="48.71443" lon="1.96948">
        <ele>117</ele>
        <time>2017-03-12T12:14:37+01:00</time>
      </trkpt>
      <trkpt lat="48.71445" lon="1.96944">
        <ele>118</ele>
        <time>2017-03-12T12:14:41+01:00</time>
      </trkpt>
      <trkpt lat="48.71447" lon="1.96936">
        <ele>118</ele>
        <time>2017-03-12T12:14:45+01:00</time>
      </trkpt>
      <trkpt lat="48.71449" lon="1.96926">
        <ele>118</ele>
        <time>2017-03-12T12:14:49+01:00</time>
      </trkpt>
      <trkpt lat="48.7145" lon="1.96918">
        <ele>117</ele>
        <time>2017-03-12T12:14:53+01:00</time>
      </trkpt>
      <trkpt lat="48.71451" lon="1.96909">
        <ele>117</ele>
        <time>2017-03-12T12:14:57+01:00</time>
      </trkpt>
      <trkpt lat="48.71452" lon="1.96902">
        <ele>116</ele>
        <time>2017-03-12T12:15:01+01:00</time>
      </trkpt>
      <trkpt lat="48.71452" lon="1.96893">
        <ele>118</ele>
        <time>2017-03-12T12:15:05+01:00</time>
      </trkpt>
      <trkpt lat="48.71455" lon="1.96883">
        <ele>115</ele>
        <time>2017-03-12T12:15:09+01:00</time>
      </trkpt>
      <trkpt lat="48.71456" lon="1.96877">
        <ele>115</ele>
        <time>2017-03-12T12:15:13+01:00</time>
      </trkpt>
      <trkpt lat="48.71454" lon="1.9687">
        <ele>113</ele>
        <time>2017-03-12T12:15:17+01:00</time>
      </trkpt>
      <trkpt lat="48.71451" lon="1.96862">
        <ele>113</ele>
        <time>2017-03-12T12:15:21+01:00</time>
      </trkpt>
      <trkpt lat="48.71449" lon="1.96853">
        <ele>113</ele>
        <time>2017-03-12T12:15:25+01:00</time>
      </trkpt>
      <trkpt lat="48.71449" lon="1.96843">
        <ele>115</ele>
        <time>2017-03-12T12:15:29+01:00</time>
      </trkpt>
      <trkpt lat="48.71452" lon="1.96837">
        <ele>115</ele>
        <time>2017-03-12T12:15:33+01:00</time>
      </trkpt>
      <trkpt lat="48.71459" lon="1.96829">
        <ele>114</ele>
        <time>2017-03-12T12:15:37+01:00</time>
      </trkpt>
      <trkpt lat="48.71473" lon="1.96811">
        <ele>115</ele>
        <time>2017-03-12T12:15:41+01:00</time>
      </trkpt>
      <trkpt lat="48.71474" lon="1.96798">
        <ele>113</ele>
        <time>2017-03-12T12:15:45+01:00</time>
      </trkpt>
      <trkpt lat="48.71478" lon="1.96797">
        <ele>112</ele>
        <time>2017-03-12T12:15:53+01:00</time>
      </trkpt>
      <trkpt lat="48.71484" lon="1.96805">
        <ele>112</ele>
        <time>2017-03-12T12:15:57+01:00</time>
      </trkpt>
      <trkpt lat="48.71489" lon="1.96812">
        <ele>113</ele>
        <time>2017-03-12T12:16:01+01:00</time>
      </trkpt>
      <trkpt lat="48.71492" lon="1.9682">
        <ele>113</ele>
        <time>2017-03-12T12:16:05+01:00</time>
      </trkpt>
      <trkpt lat="48.71496" lon="1.96826">
        <ele>113</ele>
        <time>2017-03-12T12:16:09+01:00</time>
      </trkpt>
      <trkpt lat="48.71501" lon="1.9683">
        <ele>112</ele>
        <time>2017-03-12T12:16:13+01:00</time>
      </trkpt>
      <trkpt lat="48.71507" lon="1.96833">
        <ele>113</ele>
        <time>2017-03-12T12:16:17+01:00</time>
      </trkpt>
      <trkpt lat="48.71513" lon="1.96836">
        <ele>114</ele>
        <time>2017-03-12T12:16:21+01:00</time>
      </trkpt>
      <trkpt lat="48.71517" lon="1.96838">
        <ele>114</ele>
        <time>2017-03-12T12:16:25+01:00</time>
      </trkpt>
      <trkpt lat="48.71522" lon="1.96839">
        <ele>114</ele>
        <time>2017-03-12T12:16:29+01:00</time>
      </trkpt>
      <trkpt lat="48.71528" lon="1.96841">
        <ele>114</ele>
        <time>2017-03-12T12:16:33+01:00</time>
      </trkpt>
      <trkpt lat="48.71533" lon="1.96843">
        <ele>111</ele>
        <time>2017-03-12T12:16:37+01:00</time>
      </trkpt>
      <trkpt lat="48.71538" lon="1.96846">
        <ele>111</ele>
        <time>2017-03-12T12:16:41+01:00</time>
      </trkpt>
      <trkpt lat="48.71544" lon="1.96848">
        <ele>109</ele>
        <time>2017-03-12T12:16:45+01:00</time>
      </trkpt>
      <trkpt lat="48.71549" lon="1.96851">
        <ele>108</ele>
        <time>2017-03-12T12:16:49+01:00</time>
      </trkpt>
      <trkpt lat="48.71554" lon="1.96853">
        <ele>107</ele>
        <time>2017-03-12T12:16:53+01:00</time>
      </trkpt>
      <trkpt lat="48.71559" lon="1.96854">
        <ele>109</ele>
        <time>2017-03-12T12:16:57+01:00</time>
      </trkpt>
      <trkpt lat="48.71564" lon="1.96856">
        <ele>108</ele>
        <time>2017-03-12T12:17:01+01:00</time>
      </trkpt>
      <trkpt lat="48.71569" lon="1.96859">
        <ele>109</ele>
        <time>2017-03-12T12:17:05+01:00</time>
      </trkpt>
      <trkpt lat="48.71574" lon="1.96861">
        <ele>112</ele>
        <time>2017-03-12T12:17:09+01:00</time>
      </trkpt>
      <trkpt lat="48.71579" lon="1.96862">
        <ele>112</ele>
        <time>2017-03-12T12:17:13+01:00</time>
      </trkpt>
      <trkpt lat="48.71583" lon="1.96864">
        <ele>112</ele>
        <time>2017-03-12T12:17:17+01:00</time>
      </trkpt>
      <trkpt lat="48.71585" lon="1.96867">
        <ele>113</ele>
        <time>2017-03-12T12:17:21+01:00</time>
      </trkpt>
      <trkpt lat="48.7159" lon="1.96868">
        <ele>112</ele>
        <time>2017-03-12T12:17:25+01:00</time>
      </trkpt>
      <trkpt lat="48.71597" lon="1.96873">
        <ele>112</ele>
        <time>2017-03-12T12:17:29+01:00</time>
      </trkpt>
      <trkpt lat="48.71602" lon="1.96869">
        <ele>111</ele>
        <time>2017-03-12T12:17:33+01:00</time>
      </trkpt>
      <trkpt lat="48.71603" lon="1.96862">
        <ele>111</ele>
        <time>2017-03-12T12:17:37+01:00</time>
      </trkpt>
      <trkpt lat="48.71604" lon="1.96853">
        <ele>110</ele>
        <time>2017-03-12T12:17:41+01:00</time>
      </trkpt>
      <trkpt lat="48.71604" lon="1.96845">
        <ele>111</ele>
        <time>2017-03-12T12:17:45+01:00</time>
      </trkpt>
      <trkpt lat="48.71606" lon="1.96838">
        <ele>111</ele>
        <time>2017-03-12T12:17:49+01:00</time>
      </trkpt>
      <trkpt lat="48.71607" lon="1.96832">
        <ele>111</ele>
        <time>2017-03-12T12:17:53+01:00</time>
      </trkpt>
      <trkpt lat="48.71611" lon="1.96826">
        <ele>111</ele>
        <time>2017-03-12T12:17:57+01:00</time>
      </trkpt>
      <trkpt lat="48.71615" lon="1.96823">
        <ele>110</ele>
        <time>2017-03-12T12:18:01+01:00</time>
      </trkpt>
      <trkpt lat="48.71618" lon="1.9682">
        <ele>110</ele>
        <time>2017-03-12T12:18:04+01:00</time>
      </trkpt>
      <trkpt lat="48.7162" lon="1.96819">
        <ele>107</ele>
        <time>2017-03-12T12:18:09+01:00</time>
      </trkpt>
      <trkpt lat="48.71623" lon="1.96811">
        <ele>107</ele>
        <time>2017-03-12T12:18:21+01:00</time>
      </trkpt>
      <trkpt lat="48.71628" lon="1.96807">
        <ele>106</ele>
        <time>2017-03-12T12:18:25+01:00</time>
      </trkpt>
      <trkpt lat="48.71633" lon="1.96803">
        <ele>106</ele>
        <time>2017-03-12T12:18:29+01:00</time>
      </trkpt>
      <trkpt lat="48.71637" lon="1.96803">
        <ele>105</ele>
        <time>2017-03-12T12:18:33+01:00</time>
      </trkpt>
      <trkpt lat="48.71641" lon="1.96799">
        <ele>101</ele>
        <time>2017-03-12T12:18:37+01:00</time>
      </trkpt>
      <trkpt lat="48.71643" lon="1.96795">
        <ele>96</ele>
        <time>2017-03-12T12:18:41+01:00</time>
      </trkpt>
      <trkpt lat="48.71646" lon="1.96789">
        <ele>94</ele>
        <time>2017-03-12T12:18:45+01:00</time>
      </trkpt>
      <trkpt lat="48.71649" lon="1.96784">
        <ele>93</ele>
        <time>2017-03-12T12:18:49+01:00</time>
      </trkpt>
      <trkpt lat="48.71652" lon="1.96779">
        <ele>94</ele>
        <time>2017-03-12T12:18:53+01:00</time>
      </trkpt>
      <trkpt lat="48.71654" lon="1.96771">
        <ele>95</ele>
        <time>2017-03-12T12:18:57+01:00</time>
      </trkpt>
      <trkpt lat="48.71656" lon="1.96764">
        <ele>95</ele>
        <time>2017-03-12T12:19:01+01:00</time>
      </trkpt>
      <trkpt lat="48.71657" lon="1.96756">
        <ele>99</ele>
        <time>2017-03-12T12:19:05+01:00</time>
      </trkpt>
      <trkpt lat="48.71659" lon="1.9675">
        <ele>98</ele>
        <time>2017-03-12T12:19:09+01:00</time>
      </trkpt>
      <trkpt lat="48.71659" lon="1.96744">
        <ele>97</ele>
        <time>2017-03-12T12:19:13+01:00</time>
      </trkpt>
      <trkpt lat="48.7166" lon="1.96739">
        <ele>100</ele>
        <time>2017-03-12T12:19:17+01:00</time>
      </trkpt>
      <trkpt lat="48.71662" lon="1.96732">
        <ele>102</ele>
        <time>2017-03-12T12:19:21+01:00</time>
      </trkpt>
      <trkpt lat="48.71665" lon="1.96724">
        <ele>102</ele>
        <time>2017-03-12T12:19:25+01:00</time>
      </trkpt>
      <trkpt lat="48.71668" lon="1.96715">
        <ele>103</ele>
        <time>2017-03-12T12:19:29+01:00</time>
      </trkpt>
      <trkpt lat="48.71673" lon="1.96709">
        <ele>103</ele>
        <time>2017-03-12T12:19:33+01:00</time>
      </trkpt>
      <trkpt lat="48.71676" lon="1.96703">
        <ele>104</ele>
        <time>2017-03-12T12:19:37+01:00</time>
      </trkpt>
      <trkpt lat="48.71677" lon="1.96699">
        <ele>105</ele>
        <time>2017-03-12T12:19:41+01:00</time>
      </trkpt>
      <trkpt lat="48.71679" lon="1.96692">
        <ele>106</ele>
        <time>2017-03-12T12:19:45+01:00</time>
      </trkpt>
      <trkpt lat="48.71682" lon="1.96686">
        <ele>109</ele>
        <time>2017-03-12T12:19:49+01:00</time>
      </trkpt>
      <trkpt lat="48.71688" lon="1.96679">
        <ele>109</ele>
        <time>2017-03-12T12:19:53+01:00</time>
      </trkpt>
      <trkpt lat="48.7169" lon="1.96673">
        <ele>108</ele>
        <time>2017-03-12T12:19:57+01:00</time>
      </trkpt>
      <trkpt lat="48.71693" lon="1.96666">
        <ele>108</ele>
        <time>2017-03-12T12:20:01+01:00</time>
      </trkpt>
      <trkpt lat="48.71696" lon="1.96661">
        <ele>107</ele>
        <time>2017-03-12T12:20:05+01:00</time>
      </trkpt>
      <trkpt lat="48.71698" lon="1.96655">
        <ele>107</ele>
        <time>2017-03-12T12:20:09+01:00</time>
      </trkpt>
      <trkpt lat="48.71701" lon="1.96647">
        <ele>105</ele>
        <time>2017-03-12T12:20:13+01:00</time>
      </trkpt>
      <trkpt lat="48.71704" lon="1.96641">
        <ele>104</ele>
        <time>2017-03-12T12:20:17+01:00</time>
      </trkpt>
      <trkpt lat="48.71706" lon="1.96633">
        <ele>104</ele>
        <time>2017-03-12T12:20:21+01:00</time>
      </trkpt>
      <trkpt lat="48.71709" lon="1.96628">
        <ele>103</ele>
        <time>2017-03-12T12:20:25+01:00</time>
      </trkpt>
      <trkpt lat="48.71709" lon="1.96621">
        <ele>103</ele>
        <time>2017-03-12T12:20:29+01:00</time>
      </trkpt>
      <trkpt lat="48.71711" lon="1.96617">
        <ele>102</ele>
        <time>2017-03-12T12:20:33+01:00</time>
      </trkpt>
      <trkpt lat="48.71714" lon="1.96612">
        <ele>101</ele>
        <time>2017-03-12T12:20:37+01:00</time>
      </trkpt>
      <trkpt lat="48.71718" lon="1.96607">
        <ele>99</ele>
        <time>2017-03-12T12:20:41+01:00</time>
      </trkpt>
      <trkpt lat="48.7172" lon="1.966">
        <ele>99</ele>
        <time>2017-03-12T12:20:45+01:00</time>
      </trkpt>
      <trkpt lat="48.71722" lon="1.96594">
        <ele>101</ele>
        <time>2017-03-12T12:20:49+01:00</time>
      </trkpt>
      <trkpt lat="48.71724" lon="1.96589">
        <ele>101</ele>
        <time>2017-03-12T12:20:53+01:00</time>
      </trkpt>
      <trkpt lat="48.71726" lon="1.96583">
        <ele>102</ele>
        <time>2017-03-12T12:20:57+01:00</time>
      </trkpt>
      <trkpt lat="48.71728" lon="1.96579">
        <ele>99</ele>
        <time>2017-03-12T12:21:01+01:00</time>
      </trkpt>
      <trkpt lat="48.7173" lon="1.96573">
        <ele>101</ele>
        <time>2017-03-12T12:21:05+01:00</time>
      </trkpt>
      <trkpt lat="48.71733" lon="1.9657">
        <ele>103</ele>
        <time>2017-03-12T12:21:09+01:00</time>
      </trkpt>
      <trkpt lat="48.71735" lon="1.96566">
        <ele>102</ele>
        <time>2017-03-12T12:21:13+01:00</time>
      </trkpt>
      <trkpt lat="48.71739" lon="1.96559">
        <ele>101</ele>
        <time>2017-03-12T12:21:17+01:00</time>
      </trkpt>
      <trkpt lat="48.71743" lon="1.96551">
        <ele>100</ele>
        <time>2017-03-12T12:21:21+01:00</time>
      </trkpt>
      <trkpt lat="48.71745" lon="1.96544">
        <ele>99</ele>
        <time>2017-03-12T12:21:25+01:00</time>
      </trkpt>
      <trkpt lat="48.71748" lon="1.96538">
        <ele>96</ele>
        <time>2017-03-12T12:21:29+01:00</time>
      </trkpt>
      <trkpt lat="48.71753" lon="1.96532">
        <ele>94</ele>
        <time>2017-03-12T12:21:33+01:00</time>
      </trkpt>
      <trkpt lat="48.71759" lon="1.96526">
        <ele>93</ele>
        <time>2017-03-12T12:21:37+01:00</time>
      </trkpt>
      <trkpt lat="48.71764" lon="1.96517">
        <ele>91</ele>
        <time>2017-03-12T12:21:41+01:00</time>
      </trkpt>
      <trkpt lat="48.71765" lon="1.96508">
        <ele>92</ele>
        <time>2017-03-12T12:21:45+01:00</time>
      </trkpt>
      <trkpt lat="48.71768" lon="1.965">
        <ele>92</ele>
        <time>2017-03-12T12:21:49+01:00</time>
      </trkpt>
      <trkpt lat="48.71773" lon="1.96493">
        <ele>93</ele>
        <time>2017-03-12T12:21:53+01:00</time>
      </trkpt>
      <trkpt lat="48.71775" lon="1.96485">
        <ele>97</ele>
        <time>2017-03-12T12:21:57+01:00</time>
      </trkpt>
      <trkpt lat="48.71778" lon="1.96476">
        <ele>96</ele>
        <time>2017-03-12T12:22:01+01:00</time>
      </trkpt>
      <trkpt lat="48.71781" lon="1.96467">
        <ele>93</ele>
        <time>2017-03-12T12:22:05+01:00</time>
      </trkpt>
      <trkpt lat="48.71782" lon="1.96458">
        <ele>91</ele>
        <time>2017-03-12T12:22:09+01:00</time>
      </trkpt>
      <trkpt lat="48.71783" lon="1.96448">
        <ele>89</ele>
        <time>2017-03-12T12:22:13+01:00</time>
      </trkpt>
      <trkpt lat="48.71786" lon="1.96439">
        <ele>90</ele>
        <time>2017-03-12T12:22:17+01:00</time>
      </trkpt>
      <trkpt lat="48.71788" lon="1.9643">
        <ele>92</ele>
        <time>2017-03-12T12:22:21+01:00</time>
      </trkpt>
      <trkpt lat="48.71791" lon="1.96423">
        <ele>91</ele>
        <time>2017-03-12T12:22:25+01:00</time>
      </trkpt>
      <trkpt lat="48.71794" lon="1.96415">
        <ele>90</ele>
        <time>2017-03-12T12:22:29+01:00</time>
      </trkpt>
      <trkpt lat="48.71794" lon="1.96404">
        <ele>94</ele>
        <time>2017-03-12T12:22:33+01:00</time>
      </trkpt>
      <trkpt lat="48.71796" lon="1.96394">
        <ele>94</ele>
        <time>2017-03-12T12:22:37+01:00</time>
      </trkpt>
      <trkpt lat="48.71798" lon="1.96384">
        <ele>92</ele>
        <time>2017-03-12T12:22:41+01:00</time>
      </trkpt>
      <trkpt lat="48.71801" lon="1.96374">
        <ele>94</ele>
        <time>2017-03-12T12:22:45+01:00</time>
      </trkpt>
      <trkpt lat="48.71805" lon="1.96364">
        <ele>94</ele>
        <time>2017-03-12T12:22:49+01:00</time>
      </trkpt>
      <trkpt lat="48.7181" lon="1.96356">
        <ele>95</ele>
        <time>2017-03-12T12:22:53+01:00</time>
      </trkpt>
      <trkpt lat="48.71813" lon="1.96349">
        <ele>96</ele>
        <time>2017-03-12T12:22:57+01:00</time>
      </trkpt>
      <trkpt lat="48.71816" lon="1.96341">
        <ele>96</ele>
        <time>2017-03-12T12:23:01+01:00</time>
      </trkpt>
      <trkpt lat="48.71818" lon="1.96335">
        <ele>96</ele>
        <time>2017-03-12T12:23:05+01:00</time>
      </trkpt>
      <trkpt lat="48.7182" lon="1.96328">
        <ele>97</ele>
        <time>2017-03-12T12:23:17+01:00</time>
      </trkpt>
      <trkpt lat="48.7182" lon="1.96327">
        <ele>97</ele>
        <time>2017-03-12T12:23:21+01:00</time>
      </trkpt>
      <trkpt lat="48.7182" lon="1.96328">
        <ele>97</ele>
        <time>2017-03-12T12:23:25+01:00</time>
      </trkpt>
      <trkpt lat="48.7183" lon="1.96323">
        <ele>96</ele>
        <time>2017-03-12T12:23:53+01:00</time>
      </trkpt>
      <trkpt lat="48.71836" lon="1.96314">
        <ele>97</ele>
        <time>2017-03-12T12:23:57+01:00</time>
      </trkpt>
      <trkpt lat="48.7184" lon="1.96305">
        <ele>97</ele>
        <time>2017-03-12T12:24:01+01:00</time>
      </trkpt>
      <trkpt lat="48.71844" lon="1.96297">
        <ele>97</ele>
        <time>2017-03-12T12:24:05+01:00</time>
      </trkpt>
      <trkpt lat="48.71846" lon="1.96291">
        <ele>97</ele>
        <time>2017-03-12T12:24:09+01:00</time>
      </trkpt>
      <trkpt lat="48.71842" lon="1.96282">
        <ele>97</ele>
        <time>2017-03-12T12:24:17+01:00</time>
      </trkpt>
      <trkpt lat="48.71839" lon="1.96277">
        <ele>96</ele>
        <time>2017-03-12T12:24:21+01:00</time>
      </trkpt>
      <trkpt lat="48.71838" lon="1.9627">
        <ele>97</ele>
        <time>2017-03-12T12:24:25+01:00</time>
      </trkpt>
      <trkpt lat="48.71844" lon="1.96264">
        <ele>98</ele>
        <time>2017-03-12T12:24:29+01:00</time>
      </trkpt>
      <trkpt lat="48.71848" lon="1.96254">
        <ele>98</ele>
        <time>2017-03-12T12:24:33+01:00</time>
      </trkpt>
      <trkpt lat="48.71852" lon="1.96245">
        <ele>100</ele>
        <time>2017-03-12T12:24:37+01:00</time>
      </trkpt>
      <trkpt lat="48.71855" lon="1.96236">
        <ele>100</ele>
        <time>2017-03-12T12:24:41+01:00</time>
      </trkpt>
      <trkpt lat="48.71857" lon="1.96229">
        <ele>99</ele>
        <time>2017-03-12T12:24:45+01:00</time>
      </trkpt>
      <trkpt lat="48.71859" lon="1.9622">
        <ele>100</ele>
        <time>2017-03-12T12:24:49+01:00</time>
      </trkpt>
      <trkpt lat="48.71863" lon="1.96206">
        <ele>101</ele>
        <time>2017-03-12T12:24:53+01:00</time>
      </trkpt>
      <trkpt lat="48.71866" lon="1.96194">
        <ele>101</ele>
        <time>2017-03-12T12:24:57+01:00</time>
      </trkpt>
      <trkpt lat="48.71871" lon="1.96188">
        <ele>102</ele>
        <time>2017-03-12T12:25:01+01:00</time>
      </trkpt>
      <trkpt lat="48.71875" lon="1.96185">
        <ele>101</ele>
        <time>2017-03-12T12:25:05+01:00</time>
      </trkpt>
      <trkpt lat="48.71878" lon="1.96183">
        <ele>101</ele>
        <time>2017-03-12T12:25:09+01:00</time>
      </trkpt>
      <trkpt lat="48.71886" lon="1.96174">
        <ele>101</ele>
        <time>2017-03-12T12:25:13+01:00</time>
      </trkpt>
      <trkpt lat="48.7189" lon="1.96167">
        <ele>102</ele>
        <time>2017-03-12T12:25:17+01:00</time>
      </trkpt>
      <trkpt lat="48.71887" lon="1.96161">
        <ele>101</ele>
        <time>2017-03-12T12:25:21+01:00</time>
      </trkpt>
      <trkpt lat="48.71884" lon="1.96155">
        <ele>102</ele>
        <time>2017-03-12T12:25:25+01:00</time>
      </trkpt>
      <trkpt lat="48.71883" lon="1.96149">
        <ele>101</ele>
        <time>2017-03-12T12:25:29+01:00</time>
      </trkpt>
      <trkpt lat="48.71884" lon="1.96143">
        <ele>101</ele>
        <time>2017-03-12T12:25:33+01:00</time>
      </trkpt>
      <trkpt lat="48.71886" lon="1.96137">
        <ele>100</ele>
        <time>2017-03-12T12:25:37+01:00</time>
      </trkpt>
      <trkpt lat="48.71887" lon="1.96129">
        <ele>100</ele>
        <time>2017-03-12T12:25:41+01:00</time>
      </trkpt>
      <trkpt lat="48.71889" lon="1.96117">
        <ele>100</ele>
        <time>2017-03-12T12:25:45+01:00</time>
      </trkpt>
      <trkpt lat="48.71893" lon="1.96108">
        <ele>100</ele>
        <time>2017-03-12T12:25:49+01:00</time>
      </trkpt>
      <trkpt lat="48.71898" lon="1.96103">
        <ele>100</ele>
        <time>2017-03-12T12:25:53+01:00</time>
      </trkpt>
      <trkpt lat="48.71903" lon="1.96099">
        <ele>101</ele>
        <time>2017-03-12T12:25:57+01:00</time>
      </trkpt>
      <trkpt lat="48.71906" lon="1.96092">
        <ele>100</ele>
        <time>2017-03-12T12:26:01+01:00</time>
      </trkpt>
      <trkpt lat="48.7191" lon="1.96089">
        <ele>98</ele>
        <time>2017-03-12T12:26:05+01:00</time>
      </trkpt>
      <trkpt lat="48.71911" lon="1.96089">
        <ele>101</ele>
        <time>2017-03-12T12:26:09+01:00</time>
      </trkpt>
      <trkpt lat="48.71916" lon="1.9609">
        <ele>100</ele>
        <time>2017-03-12T12:26:13+01:00</time>
      </trkpt>
      <trkpt lat="48.71922" lon="1.96093">
        <ele>99</ele>
        <time>2017-03-12T12:26:17+01:00</time>
      </trkpt>
      <trkpt lat="48.71927" lon="1.96098">
        <ele>99</ele>
        <time>2017-03-12T12:26:21+01:00</time>
      </trkpt>
      <trkpt lat="48.7193" lon="1.96103">
        <ele>99</ele>
        <time>2017-03-12T12:26:25+01:00</time>
      </trkpt>
      <trkpt lat="48.71932" lon="1.96107">
        <ele>101</ele>
        <time>2017-03-12T12:26:29+01:00</time>
      </trkpt>
      <trkpt lat="48.71934" lon="1.96114">
        <ele>101</ele>
        <time>2017-03-12T12:26:33+01:00</time>
      </trkpt>
      <trkpt lat="48.71935" lon="1.96121">
        <ele>100</ele>
        <time>2017-03-12T12:26:37+01:00</time>
      </trkpt>
      <trkpt lat="48.71939" lon="1.96128">
        <ele>101</ele>
        <time>2017-03-12T12:26:41+01:00</time>
      </trkpt>
      <trkpt lat="48.71939" lon="1.96135">
        <ele>105</ele>
        <time>2017-03-12T12:26:45+01:00</time>
      </trkpt>
      <trkpt lat="48.71941" lon="1.9614">
        <ele>106</ele>
        <time>2017-03-12T12:26:49+01:00</time>
      </trkpt>
      <trkpt lat="48.71943" lon="1.96143">
        <ele>108</ele>
        <time>2017-03-12T12:26:53+01:00</time>
      </trkpt>
      <trkpt lat="48.71946" lon="1.96142">
        <ele>110</ele>
        <time>2017-03-12T12:26:57+01:00</time>
      </trkpt>
      <trkpt lat="48.71952" lon="1.96134">
        <ele>112</ele>
        <time>2017-03-12T12:27:05+01:00</time>
      </trkpt>
      <trkpt lat="48.71953" lon="1.96129">
        <ele>111</ele>
        <time>2017-03-12T12:27:09+01:00</time>
      </trkpt>
      <trkpt lat="48.71955" lon="1.96123">
        <ele>111</ele>
        <time>2017-03-12T12:27:13+01:00</time>
      </trkpt>
      <trkpt lat="48.71958" lon="1.96115">
        <ele>111</ele>
        <time>2017-03-12T12:27:17+01:00</time>
      </trkpt>
      <trkpt lat="48.7196" lon="1.96108">
        <ele>108</ele>
        <time>2017-03-12T12:27:21+01:00</time>
      </trkpt>
      <trkpt lat="48.71964" lon="1.96102">
        <ele>111</ele>
        <time>2017-03-12T12:27:33+01:00</time>
      </trkpt>
      <trkpt lat="48.71964" lon="1.96096">
        <ele>112</ele>
        <time>2017-03-12T12:27:37+01:00</time>
      </trkpt>
      <trkpt lat="48.71964" lon="1.96081">
        <ele>114</ele>
        <time>2017-03-12T12:27:41+01:00</time>
      </trkpt>
      <trkpt lat="48.71967" lon="1.96077">
        <ele>113</ele>
        <time>2017-03-12T12:27:45+01:00</time>
      </trkpt>
      <trkpt lat="48.71968" lon="1.96074">
        <ele>116</ele>
        <time>2017-03-12T12:27:49+01:00</time>
      </trkpt>
      <trkpt lat="48.71972" lon="1.96067">
        <ele>116</ele>
        <time>2017-03-12T12:27:57+01:00</time>
      </trkpt>
      <trkpt lat="48.71974" lon="1.96062">
        <ele>117</ele>
        <time>2017-03-12T12:28:01+01:00</time>
      </trkpt>
      <trkpt lat="48.71974" lon="1.96056">
        <ele>118</ele>
        <time>2017-03-12T12:28:05+01:00</time>
      </trkpt>
      <trkpt lat="48.71975" lon="1.96049">
        <ele>116</ele>
        <time>2017-03-12T12:28:09+01:00</time>
      </trkpt>
      <trkpt lat="48.71977" lon="1.96043">
        <ele>116</ele>
        <time>2017-03-12T12:28:13+01:00</time>
      </trkpt>
      <trkpt lat="48.71978" lon="1.96036">
        <ele>116</ele>
        <time>2017-03-12T12:28:17+01:00</time>
      </trkpt>
      <trkpt lat="48.71977" lon="1.96029">
        <ele>117</ele>
        <time>2017-03-12T12:28:21+01:00</time>
      </trkpt>
      <trkpt lat="48.71977" lon="1.96024">
        <ele>118</ele>
        <time>2017-03-12T12:28:25+01:00</time>
      </trkpt>
      <trkpt lat="48.71978" lon="1.96018">
        <ele>119</ele>
        <time>2017-03-12T12:28:29+01:00</time>
      </trkpt>
      <trkpt lat="48.71979" lon="1.96009">
        <ele>120</ele>
        <time>2017-03-12T12:28:33+01:00</time>
      </trkpt>
      <trkpt lat="48.71979" lon="1.95998">
        <ele>121</ele>
        <time>2017-03-12T12:28:37+01:00</time>
      </trkpt>
      <trkpt lat="48.7198" lon="1.95989">
        <ele>121</ele>
        <time>2017-03-12T12:28:41+01:00</time>
      </trkpt>
      <trkpt lat="48.71979" lon="1.95981">
        <ele>121</ele>
        <time>2017-03-12T12:28:45+01:00</time>
      </trkpt>
      <trkpt lat="48.71978" lon="1.95973">
        <ele>120</ele>
        <time>2017-03-12T12:28:49+01:00</time>
      </trkpt>
      <trkpt lat="48.71981" lon="1.95966">
        <ele>118</ele>
        <time>2017-03-12T12:28:53+01:00</time>
      </trkpt>
      <trkpt lat="48.71983" lon="1.95958">
        <ele>116</ele>
        <time>2017-03-12T12:28:57+01:00</time>
      </trkpt>
      <trkpt lat="48.71982" lon="1.95949">
        <ele>116</ele>
        <time>2017-03-12T12:29:01+01:00</time>
      </trkpt>
      <trkpt lat="48.7198" lon="1.95935">
        <ele>117</ele>
        <time>2017-03-12T12:29:05+01:00</time>
      </trkpt>
      <trkpt lat="48.71979" lon="1.95926">
        <ele>116</ele>
        <time>2017-03-12T12:29:09+01:00</time>
      </trkpt>
      <trkpt lat="48.7198" lon="1.95928">
        <ele>117</ele>
        <time>2017-03-12T12:29:45+01:00</time>
      </trkpt>
      <trkpt lat="48.7198" lon="1.95928">
        <ele>117</ele>
        <time>2017-03-12T12:29:49+01:00</time>
      </trkpt>
      <trkpt lat="48.7198" lon="1.95928">
        <ele>117</ele>
        <time>2017-03-12T12:29:53+01:00</time>
      </trkpt>
      <trkpt lat="48.7198" lon="1.95928">
        <ele>117</ele>
        <time>2017-03-12T12:29:57+01:00</time>
      </trkpt>
    </trkseg>
  </trk>
</gpx>